[[{"header":{"parameterUnit":"m.s-1","parameterCategory":1,"la1":30.6,"la2":29.2853,"lo1":-89.7004,"lo2":-87.6739,"dy":0.0162,"dx":0.0183,"nx":112,"ny":82,"refTime":"2023-04-07T00:00:00:Z","depth":0,"parameterNumber":2,"parameterNumberName":"U-component_of_WINDS"},"data":[0.0,0.0,0.0,0.0,0.0,0.0,0.0,0.0,0.0,0.0,0.0,0.0,0.0,0.0,0.0,0.0,0.0,0.0,0.0,0.0,0.0,0.0,0.0,0.0,0.0,0.0,0.0,0.0,0.0,0.0,0.0,0.0,0.0,0.0,0.0,0.0,0.0,0.0,0.0,0.0,0.0,0.0,0.0,0.0,0.0,0.0,0.0,0.0,0.0,0.0,0.0,0.0,0.0,0.0,0.0,0.0,0.0,0.0,0.0,0.0,0.0,0.0,0.0,0.0,0.0,0.0,0.0,0.0,0.0,0.0,0.0,0.0,0.0,0.0,0.0,0.0,0.0,0.0,0.0,0.0,0.0,0.0,0.0,0.0,0.0,0.0,0.0,0.0,0.0,0.0,0.0,3.0293,3.0644,3.0898,3.0898,3.0898,3.0898,3.0898,0.0,0.0,0.0,0.0,0.0,0.0,0.0,0.0,0.0,0.0,0.0,0.0,0.0,0.0,0.0,0.0,0.0,0.0,0.0,0.0,0.0,0.0,0.0,0.0,0.0,0.0,0.0,0.0,0.0,0.0,0.0,0.0,0.0,0.0,0.0,0.0,0.0,0.0,0.0,0.0,0.0,0.0,0.0,0.0,0.0,0.0,0.0,0.0,0.0,0.0,0.0,0.0,0.0,0.0,0.0,0.0,0.0,0.0,0.0,0.0,0.0,0.0,0.0,0.0,0.0,0.0,0.0,0.0,0.0,0.0,0.0,0.0,0.0,0.0,0.0,0.0,0.0,0.0,0.0,0.0,0.0,0.0,0.0,0.0,0.0,0.0,0.0,0.0,0.0,0.0,0.0,0.0,0.0,0.0,0.0,0.0,0.0,0.0,0.0,0.0,0.0,0.0,0.0,0.0,3.0351,3.0742,3.0859,3.0898,3.0898,3.0898,3.0898,3.0898,0.0,0.0,0.0,0.0,0.0,0.0,0.0,0.0,0.0,0.0,0.0,0.0,0.0,0.0,0.0,0.0,0.0,0.0,0.0,0.0,0.0,0.0,0.0,0.0,0.0,0.0,0.0,0.0,0.0,0.0,0.0,0.0,0.0,0.0,0.0,0.0,0.0,0.0,0.0,0.0,0.0,0.0,0.0,0.0,0.0,0.0,0.0,0.0,0.0,0.0,0.0,0.0,0.0,0.0,0.0,0.0,0.0,0.0,0.0,0.0,0.0,0.0,0.0,0.0,0.0,0.0,0.0,0.0,0.0,0.0,0.0,0.0,0.0,0.0,0.0,0.0,0.0,0.0,0.0,0.0,0.0,0.0,0.0,0.0,0.0,0.0,0.0,0.0,0.0,0.0,0.0,0.0,0.0,0.0,0.0,0.0,0.0,0.0,0.0,0.0,0.0,0.0,0.0,3.0566,3.0742,3.1191,3.123,3.1328,3.1592,3.1612,3.1612,3.1612,3.1612,0.0,0.0,0.0,0.0,0.0,0.0,0.0,0.0,0.0,0.0,0.0,0.0,0.0,0.0,0.0,0.0,0.0,0.0,0.0,0.0,0.0,0.0,0.0,0.0,0.0,0.0,0.0,0.0,0.0,0.0,0.0,0.0,0.0,0.0,0.0,0.0,0.0,0.0,0.0,0.0,0.0,0.0,0.0,0.0,0.0,0.0,0.0,0.0,0.0,0.0,0.0,0.0,0.0,0.0,0.0,0.0,0.0,0.0,0.0,0.0,0.0,0.0,0.0,0.0,0.0,0.0,0.0,0.0,0.0,0.0,0.0,0.0,0.0,0.0,0.0,0.0,0.0,0.0,0.0,0.0,0.0,0.0,0.0,0.0,0.0,0.0,0.0,0.0,0.0,0.0,0.0,0.0,0.0,0.0,0.0,0.0,0.0,0.0,0.0,0.0,0.0,0.0,3.1035,3.1191,3.1621,3.168,3.1816,3.2179,3.2198,3.2198,3.2198,3.2198,0.0,0.0,0.0,0.0,0.0,0.0,0.0,0.0,0.0,0.0,0.0,0.0,0.0,0.0,0.0,0.0,0.0,0.0,0.0,0.0,0.0,0.0,0.0,0.0,0.0,0.0,0.0,0.0,0.0,0.0,0.0,0.0,0.0,0.0,0.0,0.0,0.0,0.0,0.0,0.0,0.0,0.0,0.0,0.0,0.0,0.0,0.0,0.0,0.0,0.0,0.0,0.0,0.0,0.0,0.0,0.0,0.0,0.0,0.0,0.0,0.0,0.0,0.0,0.0,0.0,0.0,0.0,0.0,0.0,0.0,0.0,0.0,0.0,0.0,0.0,0.0,0.0,0.0,0.0,0.0,0.0,0.0,0.0,0.0,0.0,0.0,0.0,0.0,0.0,0.0,0.0,0.0,0.0,0.0,0.0,0.0,0.0,0.0,0.0,0.0,0.0,0.0,3.1465,3.1641,3.2101,3.2159,3.2159,3.2198,3.2198,3.2198,3.2198,3.2198,0.0,0.0,0.0,0.0,0.0,0.0,0.0,0.0,0.0,0.0,0.0,0.0,0.0,0.0,0.0,0.0,0.0,0.0,0.0,0.0,0.0,0.0,0.0,0.0,0.0,0.0,0.0,0.0,0.0,0.0,0.0,0.0,0.0,0.0,0.0,0.0,0.0,0.0,0.0,0.0,0.0,0.0,0.0,0.0,0.0,0.0,0.0,0.0,0.0,0.0,0.0,0.0,0.0,0.0,0.0,0.0,0.0,0.0,0.0,0.0,0.0,0.0,0.0,0.0,0.0,0.0,0.0,0.0,0.0,0.0,0.0,0.0,0.0,0.0,0.0,0.0,0.0,0.0,0.0,0.0,0.0,0.0,0.0,0.0,0.0,0.0,0.0,0.0,0.0,0.0,0.0,0.0,0.0,0.0,0.0,0.0,0.0,0.0,0.0,0.0,0.0,0.0,3.1934,3.209,0.0,3.2559,3.2656,3.293,3.2949,3.2949,3.2949,0.0,0.0,0.0,0.0,0.0,0.0,0.0,0.0,0.0,0.0,0.0,0.0,0.0,0.0,0.0,0.0,0.0,0.0,0.0,0.0,0.0,0.0,0.0,0.0,0.0,0.0,0.0,0.0,0.0,0.0,0.0,0.0,0.0,0.0,0.0,0.0,0.0,0.0,0.0,0.0,0.0,0.0,0.0,0.0,0.0,0.0,0.0,0.0,0.0,0.0,0.0,0.0,0.0,0.0,0.0,0.0,0.0,0.0,0.0,0.0,0.0,0.0,0.0,0.0,0.0,0.0,0.0,0.0,0.0,0.0,0.0,0.0,0.0,0.0,0.0,0.0,0.0,0.0,0.0,0.0,0.0,0.0,0.0,0.0,0.0,0.0,0.0,0.0,0.0,0.0,0.0,0.0,0.0,0.0,0.0,0.0,0.0,0.0,0.0,0.0,0.0,0.0,3.2335,3.2394,3.2609,0.0,3.3203,3.3379,3.3789,3.3796,3.3796,3.3796,0.0,0.0,0.0,0.0,0.0,0.0,0.0,0.0,0.0,0.0,0.0,0.0,0.0,0.0,0.0,0.0,0.0,0.0,0.0,0.0,0.0,0.0,0.0,0.0,0.0,0.0,0.0,0.0,0.0,0.0,0.0,0.0,0.0,0.0,0.0,0.0,0.0,0.0,0.0,0.0,0.0,0.0,0.0,0.0,0.0,0.0,0.0,0.0,0.0,0.0,0.0,0.0,0.0,0.0,0.0,0.0,0.0,0.0,0.0,0.0,0.0,0.0,0.0,0.0,0.0,0.0,0.0,0.0,0.0,0.0,0.0,0.0,0.0,0.0,0.0,0.0,0.0,0.0,0.0,0.0,0.0,0.0,0.0,0.0,0.0,0.0,0.0,0.0,0.0,0.0,0.0,0.0,0.0,0.0,0.0,0.0,0.0,0.0,0.0,0.0,0.0,0.0,3.2754,3.2812,3.3144,3.4016,3.4114,3.429,3.4668,3.4707,3.4707,0.0,0.0,0.0,0.0,0.0,0.0,0.0,0.0,0.0,0.0,0.0,0.0,0.0,0.0,0.0,0.0,0.0,0.0,0.0,0.0,0.0,0.0,0.0,0.0,0.0,0.0,0.0,0.0,0.0,0.0,0.0,0.0,0.0,0.0,0.0,0.0,0.0,0.0,0.0,0.0,0.0,0.0,0.0,0.0,0.0,0.0,0.0,0.0,0.0,0.0,0.0,0.0,0.0,0.0,0.0,0.0,0.0,0.0,0.0,0.0,0.0,0.0,0.0,0.0,0.0,0.0,0.0,0.0,0.0,0.0,0.0,0.0,0.0,0.0,0.0,0.0,0.0,0.0,0.0,0.0,0.0,0.0,0.0,0.0,0.0,0.0,0.0,0.0,0.0,0.0,0.0,0.0,0.0,0.0,0.0,0.0,0.0,0.0,0.0,0.0,0.0,0.0,0.0,3.3665,3.3965,3.4238,3.4492,3.4512,3.457,3.4687,3.4707,3.4707,3.4707,0.0,0.0,0.0,0.0,0.0,0.0,0.0,0.0,0.0,0.0,0.0,0.0,0.0,0.0,0.0,0.0,0.0,0.0,0.0,0.0,0.0,0.0,0.0,0.0,0.0,0.0,0.0,0.0,0.0,0.0,0.0,0.0,0.0,0.0,0.0,0.0,0.0,0.0,0.0,0.0,0.0,0.0,0.0,0.0,0.0,0.0,0.0,0.0,0.0,0.0,0.0,0.0,0.0,0.0,0.0,0.0,0.0,0.0,0.0,0.0,0.0,0.0,0.0,0.0,0.0,0.0,0.0,0.0,0.0,0.0,0.0,0.0,0.0,0.0,0.0,0.0,0.0,0.0,0.0,0.0,0.0,0.0,0.0,0.0,0.0,0.0,0.0,0.0,0.0,0.0,0.0,0.0,0.0,0.0,0.0,0.0,0.0,0.0,0.0,0.0,0.0,0.0,3.4297,3.4551,3.4766,3.4961,3.498,3.5039,3.5215,3.5234,3.5234,3.5234,0.0,0.0,0.0,0.0,0.0,0.0,0.0,0.0,0.0,0.0,0.0,0.0,0.0,0.0,0.0,0.0,0.0,0.0,0.0,0.0,0.0,0.0,0.0,0.0,0.0,0.0,0.0,0.0,0.0,0.0,0.0,0.0,0.0,0.0,0.0,0.0,0.0,0.0,0.0,0.0,0.0,0.0,0.0,0.0,0.0,0.0,0.0,0.0,0.0,0.0,0.0,0.0,0.0,0.0,0.0,0.0,0.0,0.0,0.0,0.0,0.0,0.0,0.0,0.0,0.0,0.0,0.0,0.0,0.0,0.0,0.0,0.0,0.0,0.0,0.0,0.0,0.0,0.0,0.0,0.0,0.0,0.0,0.0,0.0,0.0,0.0,0.0,0.0,0.0,0.0,0.0,0.0,0.0,0.0,0.0,0.0,0.0,0.0,0.0,0.0,0.0,0.0,3.4766,3.4805,3.498,3.541,3.5449,3.5605,3.5996,3.5982,3.5982,3.5982,0.0,0.0,0.0,0.0,0.0,0.0,0.0,0.0,0.0,0.0,0.0,0.0,0.0,0.0,0.0,0.0,0.0,0.0,0.0,0.0,0.0,0.0,0.0,0.0,0.0,0.0,0.0,0.0,0.0,0.0,0.0,0.0,0.0,0.0,0.0,0.0,0.0,0.0,0.0,0.0,0.0,0.0,0.0,0.0,0.0,0.0,0.0,0.0,0.0,0.0,0.0,0.0,0.0,0.0,0.0,0.0,0.0,0.0,0.0,0.0,3.9245,0.0,0.0,0.0,0.0,0.0,0.0,0.0,0.0,0.0,0.0,0.0,0.0,0.0,0.0,0.0,0.0,0.0,0.0,0.0,0.0,0.0,0.0,0.0,0.0,0.0,0.0,0.0,0.0,0.0,0.0,0.0,0.0,0.0,0.0,0.0,0.0,0.0,0.0,0.0,0.0,0.0,3.5234,3.5527,3.5747,3.5879,3.5845,3.5918,3.5982,3.5982,3.5982,3.5982,0.0,0.0,0.0,0.0,0.0,0.0,0.0,0.0,0.0,0.0,0.0,0.0,0.0,0.0,0.0,0.0,0.0,0.0,0.0,0.0,0.0,0.0,0.0,0.0,0.0,0.0,0.0,0.0,0.0,0.0,0.0,0.0,0.0,0.0,0.0,0.0,0.0,0.0,0.0,0.0,0.0,0.0,0.0,0.0,0.0,0.0,0.0,0.0,0.0,0.0,0.0,0.0,0.0,0.0,0.0,0.0,0.0,0.0,0.0,0.0,0.0,3.9859,0.0,0.0,0.0,0.0,0.0,0.0,0.0,0.0,0.0,0.0,0.0,0.0,0.0,0.0,0.0,0.0,0.0,0.0,0.0,0.0,0.0,0.0,0.0,0.0,0.0,0.0,0.0,0.0,0.0,0.0,0.0,0.0,0.0,0.0,0.0,0.0,0.0,0.0,0.0,0.0,3.5703,3.5879,3.5982,3.5982,3.5982,3.5982,3.5982,3.5982,3.5982,3.5982,3.5982,0.0,0.0,0.0,0.0,0.0,0.0,0.0,0.0,0.0,0.0,0.0,0.0,0.0,0.0,0.0,0.0,0.0,0.0,0.0,0.0,0.0,0.0,0.0,0.0,0.0,0.0,0.0,0.0,0.0,0.0,0.0,0.0,0.0,0.0,0.0,0.0,0.0,0.0,0.0,0.0,0.0,0.0,0.0,0.0,0.0,0.0,0.0,0.0,0.0,0.0,0.0,0.0,0.0,4.004,4.0081,4.1114,3.9051,3.8942,4.0378,4.0926,4.0519,3.9586,4.0734,0.0,0.0,0.0,0.0,0.0,0.0,0.0,0.0,0.0,0.0,0.0,0.0,0.0,0.0,0.0,0.0,0.0,0.0,0.0,0.0,0.0,0.0,0.0,0.0,3.4922,3.4922,0.0,0.0,0.0,0.0,0.0,0.0,0.0,0.0,0.0,0.0,0.0,0.0,3.5982,3.5982,3.5982,3.5982,3.5982,3.5982,3.5982,3.5982,3.5982,3.5982,3.6094,3.6133,0.0,0.0,0.0,0.0,0.0,0.0,0.0,0.0,0.0,0.0,0.0,0.0,0.0,0.0,0.0,0.0,0.0,0.0,0.0,0.0,0.0,0.0,0.0,0.0,0.0,0.0,0.0,0.0,0.0,0.0,0.0,0.0,3.7739,3.7889,0.0,0.0,0.0,0.0,0.0,0.0,0.0,0.0,0.0,0.0,0.0,0.0,0.0,3.9458,3.953,3.9052,3.9546,4.1022,4.0206,4.0138,4.0674,4.0341,4.0327,4.0577,4.066,0.0,3.987,4.0458,0.0,0.0,0.0,0.0,0.0,0.0,0.0,0.0,0.0,0.0,0.0,0.0,0.0,0.0,0.0,0.0,0.0,0.0,0.0,0.0,0.0,0.0,3.5806,3.5806,3.5806,3.5806,0.0,3.5566,3.5293,3.5293,3.5605,0.0,0.0,0.0,0.0,0.0,0.0,0.0,3.5982,3.5982,3.5982,3.5982,3.5982,3.5982,3.5982,3.5982,3.5982,3.5982,3.6367,3.6616,3.6616,3.6934,0.0,0.0,0.0,0.0,0.0,0.0,0.0,0.0,0.0,0.0,0.0,0.0,0.0,0.0,0.0,0.0,0.0,0.0,0.0,0.0,0.0,0.0,0.0,0.0,0.0,0.0,0.0,0.0,0.0,3.7839,3.8241,3.8868,3.8944,3.9195,0.0,0.0,0.0,0.0,0.0,0.0,0.0,0.0,0.0,3.927,3.9493,3.9768,4.0077,3.9778,4.0009,4.0748,3.9718,3.9699,4.0571,3.9116,3.8835,3.9521,3.9024,3.873,3.8661,4.0039,4.0517,4.0464,0.0,0.0,0.0,0.0,4.0341,3.9116,3.8263,3.7503,0.0,3.6295,0.0,0.0,0.0,0.0,0.0,0.0,0.0,0.0,0.0,0.0,3.5982,3.5982,3.5982,3.5982,3.5982,3.6074,3.6035,0.0,3.5898,3.5982,3.5982,0.0,0.0,0.0,0.0,3.6113,3.6348,3.6387,3.6484,3.6719,3.6738,3.6738,3.6738,3.6738,3.6738,3.6738,3.6914,3.7031,3.7031,3.7207,3.7207,0.0,0.0,0.0,0.0,0.0,0.0,0.0,0.0,0.0,0.0,0.0,0.0,0.0,0.0,0.0,0.0,0.0,0.0,0.0,0.0,0.0,0.0,0.0,0.0,0.0,0.0,0.0,0.0,3.8642,3.9019,3.9998,3.9838,4.0058,0.0,0.0,0.0,0.0,0.0,0.0,3.8481,3.9551,3.9861,3.901,3.9364,3.9695,4.0087,3.98,3.9868,4.029,3.901,3.8949,3.9931,3.8039,3.7685,3.853,3.7933,3.7674,3.7797,3.9328,3.9648,3.9185,4.0128,4.0502,4.044,4.0074,3.9131,3.7986,3.7598,3.6854,3.6089,3.6285,3.62,3.605,3.6302,0.0,0.0,0.0,0.0,3.5982,3.5982,3.5982,3.5982,3.5982,3.5982,3.6021,3.6152,3.6445,3.6577,0.0,3.6113,3.6191,3.6191,0.0,0.0,0.0,0.0,3.6465,3.6832,3.6871,3.6988,3.7266,3.7305,3.7305,3.7305,3.7305,3.7305,3.7305,3.7402,3.7461,3.7461,3.7559,3.7578,3.7461,0.0,0.0,0.0,0.0,0.0,0.0,0.0,0.0,0.0,0.0,0.0,0.0,0.0,0.0,0.0,0.0,0.0,0.0,0.0,0.0,0.0,0.0,0.0,0.0,0.0,0.0,0.0,0.0,0.0,4.1152,4.0153,0.0,0.0,0.0,0.0,4.087,4.0971,4.085,4.0487,4.0525,3.9996,3.8747,3.8738,3.876,3.8782,3.7594,3.7826,3.9449,3.8174,3.7826,3.8308,3.8175,3.8142,3.8208,3.8163,3.815,3.8183,3.8296,3.9026,4.0126,4.0191,4.0224,4.0191,3.9845,3.8819,3.7554,3.6816,3.6513,3.6431,3.6098,3.6016,3.5982,3.6016,3.6016,0.0,0.0,3.5982,3.5982,3.5982,3.5982,3.5982,3.5982,3.5982,3.6133,3.6577,3.6695,3.6577,0.0,3.6348,3.6675,3.6675,0.0,3.6812,3.7168,3.7226,3.7246,3.7266,3.7266,3.7266,3.7305,3.7305,3.7305,3.7305,3.7305,3.7305,3.7305,3.7676,3.7855,3.7855,3.8301,3.832,3.7874,3.7855,0.0,0.0,0.0,0.0,0.0,0.0,0.0,0.0,0.0,0.0,0.0,0.0,0.0,0.0,0.0,0.0,0.0,0.0,0.0,0.0,0.0,0.0,0.0,0.0,0.0,0.0,0.0,0.0,4.2201,4.0495,0.0,4.1942,4.0945,3.9969,3.9552,4.0294,4.0,3.8237,3.9214,3.9231,3.7963,3.8226,3.8373,3.8373,3.7937,3.7987,3.8627,3.8154,3.8026,3.8191,3.8191,3.8191,3.8191,3.8191,3.8191,3.8191,3.7937,3.825,3.888,3.8627,3.8528,3.8461,3.7875,3.7307,3.6823,3.6336,3.6166,3.6166,3.605,3.5982,3.5982,3.5982,3.5982,3.5982,3.5982,3.623,3.6445,3.6445,3.6641,3.6836,3.6836,3.6836,3.6894,3.7031,3.7285,3.7344,3.6934,3.6973,3.707,3.707,3.707,3.7129,3.7266,3.7305,3.7402,3.7676,3.7695,3.7812,3.8086,3.8359,3.8516,3.8516,3.8789,3.8965,3.8965,3.9101,3.9199,3.9199,3.9336,3.9355,3.9199,3.9199,3.9121,0.0,0.0,0.0,0.0,0.0,0.0,0.0,0.0,0.0,0.0,0.0,0.0,0.0,0.0,0.0,0.0,0.0,0.0,0.0,0.0,0.0,0.0,0.0,0.0,0.0,0.0,4.0201,4.2569,4.0575,3.9726,4.1747,4.0732,3.9659,3.8991,3.9735,3.933,3.739,3.8377,3.8611,3.7748,3.8171,3.8398,3.8398,3.8564,3.8647,3.8647,3.8647,3.8647,3.8647,3.8647,3.8579,3.8478,3.8478,3.841,3.8241,3.7983,3.8017,3.82,3.7637,3.7415,3.7348,3.6722,3.6519,3.6471,3.6308,3.623,3.6269,3.6406,3.6445,3.6445,3.6445,3.6445,3.6445,3.6445,3.666,3.6914,3.7051,3.7305,3.7539,3.7695,3.7734,3.7773,3.791,3.8164,3.832,3.8203,3.793,3.7734,3.7734,3.7851,3.7988,3.8144,3.8184,3.8281,3.8555,3.8557,3.8691,3.9021,3.9277,3.9434,3.9434,3.9726,3.9902,3.9902,3.9902,3.9902,3.9902,3.9902,3.9902,3.9902,3.9902,3.9902,3.9902,0.0,0.0,0.0,0.0,0.0,0.0,0.0,0.0,0.0,0.0,0.0,0.0,0.0,0.0,0.0,0.0,0.0,0.0,0.0,0.0,0.0,0.0,0.0,4.2768,4.0745,3.995,4.2293,4.0241,3.917,4.0463,3.9419,3.8864,3.9311,3.9355,3.9045,3.8237,3.8212,3.8245,3.8233,3.8613,3.8841,3.8841,3.9275,3.9502,3.9502,3.9523,3.9523,3.9523,3.9544,3.9336,3.9024,3.9024,3.8781,3.8452,3.8417,3.8417,3.8317,3.7481,3.7119,3.7051,3.666,3.6525,3.655,3.6681,3.6734,3.6812,3.7187,3.7324,3.7344,3.7344,3.7344,3.7344,3.7344,3.7344,3.7461,3.7851,3.7933,3.8086,3.8516,3.865,3.8767,3.9141,3.9219,3.9355,3.9824,3.9238,3.8689,3.865,3.8945,3.9375,3.9824,3.9902,0.0,3.9902,3.9902,3.9922,3.9922,3.9941,3.9961,3.9961,3.9961,3.9961,3.9961,3.9961,3.9941,3.9941,3.9941,3.9941,3.9941,3.9941,3.9941,3.9941,0.0,0.0,0.0,0.0,0.0,0.0,0.0,0.0,0.0,0.0,0.0,0.0,0.0,0.0,0.0,0.0,0.0,0.0,0.0,0.0,0.0,0.0,4.0058,4.2391,4.0469,3.9537,4.1499,3.9401,3.8487,4.0162,3.9131,3.8399,3.8525,3.8525,3.857,3.8647,3.8634,3.8778,3.913,3.9254,3.9316,3.9316,3.944,3.9502,3.9502,3.9847,4.0013,4.0019,4.0047,4.0014,3.9907,3.9642,3.9428,3.9321,3.9014,3.8907,3.8827,3.7952,3.7594,3.756,3.7212,3.7073,3.7093,3.7105,3.7324,3.7598,3.7715,3.7969,3.8223,3.8223,3.8223,3.8223,3.8223,3.8437,3.8711,3.8809,3.9101,3.9394,3.9512,3.9531,3.957,3.9687,3.9707,3.9824,4.0273,4.041,4.0292,3.9648,3.9629,3.9746,3.9883,3.9902,0.0,3.9902,4.0156,4.0351,4.0351,4.0898,4.1269,4.1269,4.1562,4.1601,4.1289,4.1269,4.1133,4.084,4.082,4.082,4.082,4.082,4.082,0.0,0.0,0.0,0.0,0.0,0.0,0.0,0.0,0.0,0.0,0.0,0.0,0.0,0.0,0.0,0.0,0.0,0.0,0.0,0.0,0.0,0.0,4.0061,3.9224,4.1289,3.963,3.8871,4.0679,3.9077,3.8211,3.9266,3.8804,3.846,3.846,3.8647,3.8874,3.9089,3.9109,3.9316,3.9771,3.9957,4.0199,4.0386,4.0572,4.0569,4.0391,4.0673,4.071,4.055,4.0577,4.0517,4.0314,4.0078,3.9895,3.9767,3.9527,3.9416,0.0,0.0,0.0,0.0,0.0,3.7832,3.7851,3.8027,3.8262,3.8496,3.8691,3.8926,3.9121,3.9121,3.9121,3.9121,3.9121,3.9297,3.957,3.9941,4.0234,4.0527,4.0879,4.0957,4.0957,4.0957,4.0957,4.1035,4.123,4.1523,0.0,4.1035,4.0957,4.0957,4.0957,4.0957,4.0957,4.0957,4.1133,4.1289,4.1289,4.1758,4.207,4.207,4.2285,0.0,0.0,0.0,4.0481,3.9459,3.9459,0.0,0.0,0.0,3.9459,3.9459,0.0,0.0,0.0,4.0355,4.0685,0.0,0.0,0.0,0.0,0.0,0.0,0.0,0.0,0.0,0.0,0.0,0.0,0.0,0.0,0.0,0.0,3.9541,3.8624,3.9855,3.865,3.8238,3.9844,3.8976,3.8274,3.8336,3.8654,3.8882,3.8882,3.9316,3.9606,3.9647,0.0,0.0,0.0,0.0,4.1234,4.1612,4.2005,4.199,4.1546,4.1647,4.1464,4.1148,4.1211,4.1025,4.0704,4.0629,4.0459,4.0176,4.0176,4.0176,4.0078,3.9101,3.8767,3.8767,3.8767,3.8767,3.8806,3.916,0.0,0.0,3.9824,4.0,4.0039,4.0098,4.0117,4.0117,4.0176,4.0176,4.0351,4.1113,4.1348,4.1504,4.2246,4.2382,4.2382,4.2382,4.2382,4.2361,4.2199,4.2159,4.2098,4.1935,4.2199,4.2382,4.2382,4.2382,4.2342,4.2141,4.214,4.2078,4.1877,0.0,0.0,4.1935,4.1935,4.1209,3.9586,3.9409,3.8694,3.7059,3.7017,3.7017,3.7017,3.7017,3.7017,3.7017,3.7051,3.7068,3.7151,4.0343,4.0933,0.0,0.0,0.0,0.0,0.0,0.0,0.0,0.0,0.0,0.0,0.0,0.0,0.0,0.0,0.0,4.0449,3.9157,3.8395,3.8984,3.8761,3.8693,3.9025,3.8844,3.8841,3.9213,3.9316,3.9378,3.9378,3.9792,4.0241,4.0593,4.0965,4.1415,4.1892,4.1975,4.1874,4.1588,4.169,4.1546,4.112,0.0,0.0,4.2034,4.2483,4.2645,4.2566,4.2171,4.1973,4.1933,4.1933,4.1933,4.1777,4.0234,3.9648,3.9648,3.9648,3.9648,3.9648,3.9726,3.998,4.0235,4.0333,4.0644,4.0996,4.1328,4.1426,0.0,4.1836,4.1933,4.1973,4.2109,4.2187,4.2226,4.2343,4.2382,4.2382,4.2382,4.2382,4.2077,4.0916,4.0684,4.0363,3.919,4.0916,4.2382,4.2382,4.2382,4.188,4.0428,4.0521,4.0148,3.8658,3.8814,3.899,3.899,3.899,3.874,3.8048,3.7712,3.7373,3.7,3.7017,3.7017,3.7017,3.7017,3.7017,3.7017,3.7349,3.7486,3.7486,3.7861,3.787,0.0,0.0,0.0,0.0,0.0,0.0,0.0,0.0,0.0,0.0,0.0,4.1979,0.0,0.0,4.0051,3.9586,3.8938,3.8634,3.9089,3.9151,3.9151,3.9151,3.9151,3.9337,3.9813,4.004,4.0303,4.053,4.0986,4.1338,4.1581,4.159,4.1933,4.2631,4.2631,4.2669,4.2659,4.2851,4.2659,4.2043,4.2482,4.2584,4.2348,4.2625,4.2742,4.2742,4.2502,4.2382,4.2382,4.2382,4.2382,4.2304,4.1504,4.1152,4.1152,4.1152,4.1152,4.1152,4.1152,4.1289,4.1426,4.1426,4.1621,4.1836,4.2051,4.2109,4.2148,4.2323,4.2382,4.244,4.2695,4.2754,4.2812,4.3008,4.2354,4.1698,4.1698,4.0961,4.0086,3.9407,3.9232,3.9032,3.8331,3.9365,4.0281,4.0281,4.0281,3.999,3.9056,3.9108,3.8895,3.8006,3.8075,3.8195,3.8195,3.738,3.6754,3.6573,3.551,3.4916,3.4916,3.4916,3.4916,3.4916,3.4916,3.4916,3.4916,3.509,3.5213,3.5197,3.4995,3.5371,0.0,0.0,0.0,0.0,0.0,0.0,0.0,4.3669,4.3107,4.1715,4.1428,4.1075,4.0018,3.9876,3.9654,3.8906,3.8882,3.913,3.9688,3.9771,3.9833,4.0019,3.9875,3.9978,4.0536,4.0944,4.1296,4.1596,4.2124,4.2435,4.2443,4.2153,4.2374,4.321,4.3154,4.3266,4.3599,4.3916,4.3718,4.2942,4.3081,4.292,4.2558,4.2637,4.2635,4.2635,4.2635,4.2635,4.2635,4.2635,4.2635,4.2635,4.2635,4.2635,4.2616,4.244,4.2382,4.2382,4.2382,4.2382,4.2382,4.2382,4.2382,4.2401,4.2519,4.2558,4.2558,4.2616,4.2635,4.2754,4.3105,4.2958,4.279,4.3118,4.1784,4.0482,4.0482,3.926,3.8109,3.7724,3.7681,3.7552,3.7208,3.7172,3.7464,3.8109,3.8195,3.8066,3.7724,3.7681,3.7552,3.7165,3.7165,3.7155,3.7222,3.5931,3.5162,3.5162,3.3782,3.2954,3.2954,3.2954,3.2954,3.2954,3.2954,3.2954,3.2954,3.2954,3.2954,3.2954,3.2954,3.3707,4.5397,4.5748,4.6125,4.62,4.5305,4.4086,0.0,4.1524,4.0257,3.8913,3.8648,3.8603,3.8437,3.8737,3.8906,3.8799,3.9151,3.973,4.0613,4.0737,4.1063,4.1892,4.127,4.1104,4.1975,4.212,4.1977,4.1612,4.2357,4.2847,4.2917,4.319,4.3639,4.4148,4.3814,4.3459,4.3181,4.3201,4.2982,4.2462,4.2893,4.3089,4.3008,4.3398,4.3555,4.3555,4.3555,4.3555,4.3555,4.3555,4.3555,4.3555,4.3555,4.3555,4.3476,4.2715,4.2382,4.2382,4.2382,4.2382,4.2382,4.2382,4.2382,4.25,4.2891,4.3008,4.3086,4.3457,4.3555,4.3574,4.3633,4.2455,4.1244,4.1281,3.9872,3.8537,3.8537,3.8366,3.7724,3.6118,3.5814,3.5308,3.3675,3.3605,3.4773,3.7774,3.8195,3.7638,3.5999,3.5814,3.5177,3.3587,3.3411,3.3486,3.3725,3.3842,3.3884,3.3884,3.3717,3.3581,3.3581,3.3581,3.3581,3.3581,3.3581,3.3581,3.3581,3.3581,3.3581,3.3581,3.3581,3.3409,4.4998,4.4988,4.5159,4.5159,4.4706,4.3917,4.2517,4.1171,3.9823,3.847,3.8398,3.853,3.853,3.8903,3.9378,0.0,4.0199,4.0634,4.1581,4.1705,4.1954,4.2559,4.2538,4.2518,4.2642,4.289,4.2971,4.2762,4.3364,4.3614,4.3428,4.3336,4.3518,4.394,4.3779,4.3617,4.3449,4.3693,4.3612,4.3164,4.3359,4.3437,4.3437,4.3633,4.3711,4.3711,4.3711,4.3711,4.3711,4.3711,4.3711,4.3711,4.3711,4.3711,4.3672,4.3301,4.3164,4.3164,4.3164,4.3164,4.3164,4.3164,4.3164,4.3203,4.3379,4.3437,4.3476,4.3652,4.3711,4.3443,4.2387,4.1593,4.0734,3.9618,3.7981,3.667,3.6883,3.6059,3.5127,3.4559,3.447,3.4202,3.3454,3.3436,3.3962,3.5347,3.5598,3.5331,3.4545,3.447,3.4157,3.3424,3.3334,3.3378,3.3464,3.3611,3.3684,3.3684,3.3684,3.3684,3.3684,3.3684,3.3684,3.3684,3.3684,3.3684,3.3684,3.3684,3.3684,3.3684,3.3684,3.3401,4.4003,4.37,4.37,4.37,4.3451,4.2887,4.1875,4.0702,3.9545,3.8558,3.8696,3.9006,3.9006,3.9482,4.0116,4.0794,4.1125,4.156,4.2368,4.2596,4.2787,4.3242,4.3718,4.3787,4.3342,4.3589,4.3687,4.3469,4.3892,4.4016,4.3739,4.342,4.3458,4.3873,4.3772,4.3706,4.3691,4.4041,4.4041,4.3711,4.3711,4.3711,4.3711,4.3711,4.3711,4.3711,4.3711,4.3711,4.3711,4.3711,4.3711,4.3711,4.3711,4.3711,4.3711,4.3711,4.3711,4.3711,4.3711,4.3711,4.3711,4.3711,4.3711,4.3711,4.3711,4.3361,4.2946,4.2946,4.2595,4.1886,4.0693,3.999,3.9283,3.8054,3.6321,3.5054,3.5331,3.4292,3.3406,3.364,3.3684,3.3684,3.3684,3.3757,3.3815,3.3815,3.3949,3.3888,3.3713,3.3684,3.3684,3.3684,3.3771,3.3815,3.3815,3.3903,3.3993,3.3993,3.3993,3.3993,3.3993,3.3993,3.3993,3.3993,3.3993,3.3993,3.3993,3.3993,3.3993,3.3993,3.3993,3.3717,4.2264,4.2264,4.2264,4.2264,4.13,4.0289,4.0257,3.9529,3.8833,3.8799,3.9151,3.9482,3.9482,4.0241,4.0877,4.0897,4.1664,4.241,4.2828,4.3284,4.3739,4.4215,4.467,4.4783,0.0,4.4271,4.3955,4.3161,4.3479,4.3699,4.3697,4.3675,4.3914,4.4371,4.3939,4.3691,4.3711,4.3711,4.3711,4.3711,4.3711,4.3711,4.3711,4.3711,4.3711,4.3711,4.3711,4.3711,4.3711,4.3711,4.3711,4.3711,4.3711,4.3711,4.3711,4.3711,4.3711,4.3711,4.3711,4.3711,4.3711,4.3711,4.3711,4.3711,4.3711,4.247,4.1089,4.1089,3.9787,3.8434,3.8683,3.7479,3.6214,3.6476,3.5105,3.3745,3.376,3.3715,3.3669,3.3684,3.3684,3.3684,3.3684,3.3947,3.4197,3.4197,3.4475,3.4446,3.3771,3.3684,3.3684,3.3684,3.3976,3.4197,3.4197,3.449,3.468,3.468,3.468,3.468,3.468,3.468,3.468,3.468,3.468,3.468,3.468,3.468,3.468,3.468,3.468,3.4385,4.0646,4.085,4.085,4.085,4.0759,4.064,4.064,3.9951,3.9275,3.9275,3.9909,4.0427,4.0427,4.1208,4.1933,4.2186,4.2497,4.2973,4.3739,4.3698,4.3771,4.4222,4.4495,0.0,0.0,0.0,4.4401,4.3558,4.3897,4.4034,4.3723,4.3701,4.376,4.3939,4.3793,4.3711,4.3711,4.3711,4.3711,4.3711,4.3711,4.3711,4.3711,4.3711,4.3711,4.3711,4.3711,4.3711,4.373,4.4043,4.416,4.4199,4.4473,4.4548,4.4548,4.4548,4.4548,4.4492,4.3906,4.3711,4.3485,4.2303,4.1928,4.1714,4.0686,3.9947,3.9528,3.9747,3.9339,3.8615,3.7518,3.6813,3.6043,3.4894,3.4169,3.3742,3.3961,3.4005,3.4124,3.4329,3.4373,3.4373,3.4373,3.4475,3.4549,3.4549,3.4636,3.4622,3.4402,3.4373,3.4373,3.4373,3.4475,3.4549,3.4549,3.4636,3.471,3.471,3.471,3.471,3.471,3.471,3.4797,3.5049,3.5049,3.5152,3.5372,3.499,3.4847,3.4799,3.4478,3.3985,3.9254,3.9591,3.9687,3.9687,4.0051,4.0394,4.0394,4.0051,3.9751,3.9751,4.0489,4.1167,4.1167,4.1912,4.258,4.287,4.3201,4.3615,4.4215,4.4177,4.423,4.4515,4.4603,4.442,0.0,0.0,4.4502,4.377,4.3965,4.4041,4.3711,4.3711,4.3711,4.3711,4.3711,4.3711,4.3711,4.3711,4.3711,4.3711,4.3867,4.3945,4.3965,4.4101,4.418,4.418,4.418,4.418,4.4199,4.4492,4.4629,4.4564,4.4117,4.3957,4.3871,4.3165,4.295,4.2961,4.3054,4.3136,4.2842,4.0941,4.0343,4.0165,3.9201,3.844,3.7964,3.8153,3.7747,3.6977,3.5951,3.5681,3.5394,3.4327,3.408,3.4139,3.4344,3.4388,3.4446,3.4666,3.471,3.471,3.471,3.4797,3.49,3.5017,3.5046,3.5002,3.4885,3.4871,3.4914,3.5031,3.5046,3.5046,3.5046,3.5046,3.5046,3.5046,3.5046,3.5046,3.5046,3.5046,3.5181,3.5372,3.5181,3.5187,3.5405,3.4875,3.4633,3.4585,3.426,3.3824,3.8212,3.8489,3.882,3.8841,3.9192,3.9544,3.9544,3.9895,4.0226,4.0268,4.0986,4.1643,4.1664,4.2352,4.2952,4.2952,4.3718,4.4319,4.4301,4.4711,4.5005,0.0,0.0,0.0,0.0,0.0,0.0,4.3752,4.3711,4.3711,4.3711,4.3711,4.3711,4.3711,4.3711,4.3711,4.373,4.3769,4.3769,4.3769,4.4219,4.4433,4.4433,4.4844,4.4977,4.4977,4.4977,4.4977,4.4977,4.4911,4.4888,4.4698,4.2772,4.2035,4.1818,3.9947,3.9243,3.9507,4.1278,4.1912,4.1615,3.9676,3.9059,3.9059,3.8944,3.7719,3.6395,3.6411,3.5151,3.3801,3.4168,3.4241,3.4314,3.4636,3.471,3.471,3.471,3.471,3.471,3.4724,3.4739,3.4753,3.4753,3.4988,3.5328,3.565,3.5694,3.5577,3.5269,3.5225,3.5343,3.5665,3.5694,3.5694,3.5694,3.5694,3.5694,3.5694,3.5694,3.5694,3.5694,3.5694,3.5694,3.5675,3.5179,3.4903,3.4918,3.4351,3.4122,3.4122,3.4074,3.3831,3.8551,3.8737,3.8903,3.9233,3.9668,4.0019,4.0019,4.0386,4.08,4.1151,4.1726,4.2223,4.2518,4.3056,4.3428,4.3428,4.3925,4.4306,4.4284,4.4697,0.0,4.458,0.0,4.437,4.3917,4.3876,0.0,4.3711,4.3711,4.3711,4.3711,4.3711,4.3711,4.3711,4.3711,4.3867,4.4219,4.4531,4.4687,4.4645,4.4805,4.4863,4.4863,4.4938,4.4977,4.4977,4.4977,4.4977,4.4911,4.3806,4.3354,4.3217,4.1533,4.0925,4.0835,4.0342,4.0162,4.001,3.9079,3.925,3.9632,3.7775,3.7213,3.6993,3.585,3.5166,3.486,3.5099,3.4818,3.4475,3.4563,3.4578,3.4607,3.468,3.471,3.471,3.471,3.471,3.4768,3.5002,3.5284,3.5445,3.5445,3.5518,3.5592,3.568,3.5694,3.5665,3.5577,3.5562,3.5606,3.568,3.5694,3.5694,3.5694,3.5694,3.5694,3.5694,3.5694,3.5694,3.5694,3.5694,3.5604,3.5399,3.5267,3.5123,3.497,3.4427,3.4193,3.413,3.3747,3.362,3.8758,3.9109,3.9482,3.9751,4.0143,4.0572,4.0779,4.1007,4.1353,4.1809,4.2265,4.2621,4.287,4.3304,4.3677,4.3884,4.4143,4.4362,4.4576,4.4663,4.4663,0.0,4.4205,0.0,4.3752,4.3711,4.3711,4.3711,4.3711,4.3711,4.3711,4.3711,4.3789,4.4004,4.4004,4.4219,4.4668,4.4902,4.4977,4.4977,4.5215,4.5312,4.5312,4.5508,4.5586,4.5586,0.0,4.5092,4.4206,4.3408,4.2573,4.1639,3.9914,3.9209,3.9134,3.8281,3.7959,3.7775,3.6684,3.6711,3.7065,3.6034,3.5715,3.5532,3.4683,3.4432,3.4475,3.4651,3.471,3.471,3.471,3.471,3.471,3.471,3.471,3.4739,3.4871,3.49,3.5002,3.5357,3.5562,3.5738,3.5885,3.5899,3.5958,3.609,3.6119,3.6119,3.6119,3.5987,3.5958,3.6104,3.6119,3.6119,3.6119,3.6119,3.6119,3.6119,3.6119,3.5973,3.5764,3.5715,3.5557,3.5189,3.5083,3.5003,3.487,3.4455,3.427,3.427,3.3966,3.3908,3.8882,3.9544,4.0206,4.0268,4.0593,4.1022,4.1498,4.1602,4.1747,4.2265,4.2642,4.2894,4.2956,4.3387,4.3804,4.4158,4.4302,4.4496,4.4783,4.4642,4.4452,4.4329,4.4,4.3793,4.3711,4.3711,4.3711,4.3711,4.3769,4.3769,4.3711,4.3769,4.4004,4.4473,4.4531,4.4746,4.5117,4.5176,4.5153,4.5195,4.5586,4.5762,4.5762,4.5871,4.5939,4.5895,4.5612,4.4561,4.2988,4.2747,4.1626,3.9937,3.7943,3.7223,3.6992,3.5335,3.4724,3.4768,3.4768,3.4797,3.4812,3.4739,3.471,3.471,3.471,3.471,3.471,3.471,3.471,3.471,3.471,3.471,3.471,3.4753,3.4768,3.4856,3.5196,3.5299,3.5416,3.5694,3.5797,3.5914,3.6129,3.6187,3.6275,3.6553,3.6597,3.6626,3.667,3.6378,3.6305,3.6626,3.667,3.6685,3.6729,3.6729,3.6679,3.663,3.663,3.6382,3.5835,3.5835,3.5536,3.5037,3.4863,3.471,3.4659,3.4393,3.4322,3.4322,3.4322,3.4336,3.9275,3.9771,4.0288,4.0675,4.0856,4.1022,4.1498,4.1602,4.183,4.2642,4.287,4.2998,4.3428,4.3863,4.4079,4.3774,4.4371,4.4663,4.4019,4.4479,4.4636,4.3917,4.4082,4.4123,4.3752,4.3711,0.0,4.3711,4.4062,4.4101,4.373,4.4062,4.4473,4.486,4.5273,4.5488,4.5566,4.5898,4.6074,4.6074,4.6152,4.6191,4.6148,4.4586,4.3897,4.3789,4.221,0.0,4.0888,3.9254,3.8402,3.7897,3.5972,3.5195,3.5148,3.4835,3.4871,3.5123,3.5123,3.5299,3.5445,3.4871,3.471,3.471,3.471,3.471,3.471,3.471,3.471,3.471,3.471,3.471,3.4768,3.5046,3.509,3.5211,3.5533,3.5811,3.5968,3.6027,3.6246,3.6451,3.6509,3.6524,3.6539,3.6597,3.6597,3.67,3.6978,3.6714,3.6641,3.6978,3.7007,3.7109,3.7387,3.7402,3.72,3.673,3.668,3.6441,3.5896,3.5896,3.5642,3.5082,3.5034,3.4806,3.4345,3.4347,3.4322,3.4322,3.4322,3.4456,3.944,3.9999,4.0613,4.082,4.0918,4.1104,4.1809,4.1954,4.2223,4.3097,4.3284,4.3346,4.3573,4.3987,4.4303,4.4335,4.4517,4.4583,4.4419,4.4333,4.4164,4.3752,4.3917,4.3958,4.3711,4.3711,4.3808,4.4043,4.4277,4.4297,4.4082,4.4707,4.5156,4.5351,4.5781,4.5996,4.5996,4.6191,4.6308,4.6308,4.526,4.4801,4.4712,4.2792,4.1896,4.1851,4.0888,3.9937,3.8906,3.8198,3.7257,3.6277,3.5546,3.524,3.524,3.524,3.5328,3.546,3.546,3.5562,3.565,3.5343,3.524,3.524,3.524,3.524,3.524,3.524,3.524,3.524,3.524,3.524,3.5284,3.543,3.5544,3.5705,3.5851,3.6144,3.6363,3.6363,3.6495,3.6597,3.6597,3.6597,3.6513,3.6202,3.6346,3.6406,3.6263,3.6242,3.6414,3.686,3.6875,3.6846,3.6699,3.6714,3.6612,3.6306,3.6306,3.6051,3.5502,3.5502,3.5246,3.4682,3.4882,3.4808,3.4549,3.4696,3.4776,3.4776,3.4776,3.4857,3.9502,4.0199,4.0918,4.0918,4.0918,4.1167,4.2078,4.2285,4.2555,4.3428,4.3615,4.3615,4.3615,4.407,4.4528,4.4822,4.4661,4.4623,4.4842,4.4205,4.3711,4.3711,4.3711,4.3711,4.3711,4.3711,4.3887,4.4355,4.457,4.4668,4.4668,4.5312,4.5766,4.5801,4.6133,4.6308,4.6308,4.5895,4.5656,4.5656,4.3701,4.2792,4.2702,4.0752,3.9891,3.9863,3.952,3.8516,3.7132,3.743,3.6691,3.5328,3.5592,3.5694,3.5694,3.5694,3.5738,3.5797,3.5797,3.5841,3.5899,3.5899,3.5811,3.5694,3.5694,3.5694,3.5694,3.5694,3.5694,3.5694,3.5694,3.5694,3.5709,3.5782,3.5983,3.6168,3.607,3.6225,3.64,3.6301,3.6251,3.6251,3.6251,3.6251,3.6103,3.5706,3.5927,3.6005,3.5607,3.5851,3.6177,3.6541,3.6587,3.647,3.6145,3.6093,3.6056,3.5953,3.5902,3.5696,3.5129,3.5129,3.4923,3.4509,3.4736,3.4909,3.4909,3.5084,3.5191,3.5191,3.5191,3.5191,3.9502,4.0199,4.0918,4.0918,4.0918,4.1167,4.2078,4.2285,4.2555,4.3428,4.3615,4.3615,4.3615,4.4339,4.4822,4.443,4.4664,4.4842,4.4493,4.4041,4.3711,4.3711,4.3711,4.3711,4.3711,4.3711,4.3887,4.4355,4.5117,4.5566,4.5566,4.5688,4.5859,4.623,4.6289,4.6308,4.6308,4.4536,4.3656,4.3656,4.1716,4.0752,4.0707,3.8752,3.7851,3.7775,3.6322,0.0,0.0,3.5791,3.5842,3.565,3.568,3.5694,3.5694,3.5694,3.587,3.607,3.607,3.6275,3.6509,3.6509,3.6163,3.5694,3.5694,3.5694,3.5694,3.5694,3.5694,3.5694,3.5694,3.5694,3.5767,3.6012,3.6319,3.6405,3.5911,3.5841,3.5706,3.5259,3.516,3.516,3.516,3.516,3.511,3.5061,3.5377,3.5621,3.5851,3.6159,3.6259,3.6081,3.6263,3.6518,3.6799,3.6827,3.6566,3.6003,3.6003,3.5741,3.5216,3.5163,3.5163,3.511,3.5137,3.5151,3.5151,3.5177,3.5191,3.5191,3.5191,3.5191,3.9502,4.0199,4.0918,4.0918,4.1125,4.1498,4.214,4.2493,4.2828,4.3491,4.3615,4.3615,4.3615,4.4381,4.4844,4.4391,4.4905,4.5168,4.4493,4.4247,4.4041,4.3752,4.3711,4.3711,4.3711,4.3965,4.4414,4.5117,4.5723,4.6055,4.6055,4.6055,4.6133,4.6289,4.5172,4.4561,4.4561,4.2613,4.1671,4.1626,3.9664,3.8752,3.8677,3.673,3.5832,3.5847,3.5395,0.0,0.0,3.5767,3.5924,3.5953,3.6144,3.6217,3.6217,3.6217,3.6305,3.6407,3.6407,3.6495,3.6597,3.6597,3.6436,3.6217,3.6217,3.6217,3.6217,3.6217,3.6217,3.6217,3.6217,3.6021,3.5805,3.5886,3.5769,3.5557,3.5359,3.5309,3.5259,3.5061,3.5011,3.5011,3.5011,3.5011,3.4981,3.4825,3.5065,3.5266,3.5259,3.5507,3.5634,3.5546,3.5924,3.6106,3.5914,3.5875,3.577,3.5507,3.5507,3.5401,3.5204,3.5191,3.5191,3.5191,3.5191,3.5191,3.5191,3.5191,3.5191,3.5191,3.5191,3.5191,3.9502,4.0199,4.0918,4.0918,4.125,4.1726,4.2182,4.26,4.3018,4.3511,4.3615,4.3615,4.3615,4.4244,4.4666,4.4351,4.4865,4.5127,4.4493,4.4288,4.4082,4.3752,4.3711,4.3711,4.3711,4.4238,4.4883,4.5625,4.6055,4.6308,4.6308,4.5744,4.5436,4.5436,4.4118,4.3122,4.2568,4.0616,3.9618,3.9618,3.7683,3.673,3.6684,3.5335,3.471,3.4724,3.5181,3.5343,0.0,3.5997,3.6261,3.629,3.6509,3.6597,3.6597,3.6597,3.6597,3.6597,3.6597,3.6597,3.6597,3.6597,3.6597,3.6548,3.64,3.6449,3.6597,3.6597,3.6498,3.635,3.6152,3.5855,3.5557,3.5557,3.5259,3.4961,3.4812,3.4762,3.4712,3.4563,3.4513,3.4513,3.4513,3.4513,3.4523,3.4449,3.4697,3.4841,3.4827,3.5017,3.5191,3.5191,3.5559,3.5612,3.5243,3.5191,3.5191,3.5191,3.5191,3.5191,3.5191,3.5191,3.5191,3.5191,3.5191,3.5191,3.5191,3.5191,3.5191,3.5191,3.5191,3.5191,3.9502,4.0199,4.0918,4.0918,4.125,4.1726,4.2182,4.26,4.3018,4.3511,4.3615,4.3615,4.3615,4.3972,4.4312,4.4312,4.4361,4.4411,4.4411,4.4,4.3711,4.3711,4.3711,4.3711,4.3711,4.4492,4.5195,4.5644,4.6055,4.6308,4.6308,4.4473,4.3434,4.3434,4.3389,4.2479,4.0526,3.8585,3.7621,3.7621,3.5646,3.4742,3.4742,3.471,3.471,3.4739,3.5416,3.5694,0.0,3.6334,3.6597,3.6597,3.6597,3.6597,3.6597,3.6597,3.6597,3.6597,3.6597,3.6597,3.6597,3.6597,3.6597,3.6498,3.5954,3.6152,3.6597,3.6597,3.6202,3.5706,3.516,3.5011,3.5011,3.5011,3.5011,3.4862,3.4313,3.4214,3.4064,3.3514,3.3414,3.3414,3.3414,3.3414,3.3521,3.3841,3.4135,3.4429,3.4775,3.5017,3.5191,3.5191,3.5191,3.5204,3.5191,3.5191,3.5191,3.5191,3.5191,3.5191,3.5191,3.5191,3.5191,3.5191,3.5191,3.5191,3.5191,3.5191,3.5191,3.5191,3.5191,3.5191,3.9502,4.0199,4.0918,4.0918,4.125,4.1726,4.2182,4.26,4.3018,4.3511,4.3615,4.35,4.3233,4.3778,4.4114,4.3559,4.422,4.4575,4.4,4.4082,4.4082,4.3752,4.3711,4.3945,4.4551,4.4863,4.5332,4.6055,4.623,4.6308,4.6308,4.4473,4.3389,4.3389,4.0797,3.9117,3.854,3.6591,3.56,3.56,3.4976,3.471,3.471,3.471,3.471,3.4739,3.5416,3.5694,3.5738,3.6334,3.6597,3.6597,3.6597,3.6597,3.6597,3.6597,3.6597,3.6597,3.6597,3.6597,3.6597,3.6597,3.635,3.6004,3.5855,3.5905,3.6004,3.5607,3.5359,3.521,3.5061,3.4712,3.4463,3.4463,3.4164,3.3864,3.3714,3.3664,3.3614,3.3414,3.3414,3.3414,3.3414,3.3414,3.3521,3.3841,3.4135,3.4429,3.4775,3.5017,3.5191,3.5191,3.5191,3.5191,3.5191,3.5191,3.5191,3.5191,3.5191,3.5191,3.5191,3.5191,3.5191,3.5191,3.5191,3.5191,3.5191,3.5191,3.5191,3.5191,3.5191,3.5191,3.9461,4.0199,4.0918,4.0918,4.125,4.1685,4.1975,4.2476,4.2956,4.3284,4.3339,4.331,4.3042,4.3324,4.3477,4.3161,4.3757,4.415,4.3774,4.3958,4.4041,4.3752,4.3711,4.4062,4.4941,4.4361,4.4257,4.514,4.4536,4.4118,4.4118,4.2255,4.1203,4.1203,3.8843,3.7269,3.6498,3.5288,3.471,3.471,3.471,3.471,3.471,3.471,3.471,3.4739,3.5284,3.5577,0.0,3.6202,3.6495,3.6597,3.6597,3.6597,3.6597,3.6597,3.6597,3.6597,3.6597,3.6597,3.6548,3.635,3.5805,3.521,3.521,3.5359,3.5408,3.4862,3.4712,3.4662,3.4463,3.4164,3.3914,3.3914,3.3664,3.3414,3.3414,3.3414,3.3414,3.3414,3.3414,3.3414,3.3414,3.3414,3.3521,3.3841,3.4135,3.4429,3.4775,3.5017,3.5191,3.5191,3.5191,3.5191,3.5191,3.5191,3.5191,3.5191,3.5191,3.5191,3.5191,3.5191,3.5191,3.5191,3.5191,3.5191,3.5191,3.5191,3.5191,3.5191,3.5191,3.5191,0.0,4.0179,4.0877,4.0897,4.1229,4.156,4.1602,4.2249,0.0,4.2873,4.2964,4.2966,4.2966,4.2674,4.2546,4.3002,4.3076,4.3223,4.3652,4.3711,4.3711,4.3711,4.3711,4.4043,4.4902,4.3233,4.2465,4.3279,4.1564,4.0481,4.0481,3.8677,3.7575,3.7575,3.7453,3.656,3.471,3.471,3.471,3.471,3.471,3.471,3.471,3.471,3.471,0.0,3.5079,3.5372,3.568,3.5968,3.629,3.6568,3.6597,3.6597,3.6597,3.6597,3.6597,3.6597,3.6597,3.6562,3.6449,3.5855,3.5011,3.4214,3.4164,3.4513,3.4762,3.4263,3.4164,3.4014,3.3514,3.3414,3.3414,3.3414,3.3414,3.3414,3.3414,3.3414,3.3414,3.3414,3.3414,3.3414,3.3414,3.3414,3.3507,3.3814,3.4108,3.4402,3.4748,3.499,3.5177,3.5191,3.5191,3.5191,3.5191,3.5191,3.5191,3.5191,3.5191,3.5191,3.5191,3.5191,3.5191,3.5191,3.5191,3.5191,3.5191,3.5191,3.5191,3.5191,3.5191,3.5191,3.9378,0.0,4.0468,4.0835,4.1001,4.1167,0.0,4.2037,4.2555,4.2849,4.2964,4.2889,4.2621,4.246,4.2428,4.2563,4.2874,4.3223,4.3652,4.3711,4.3711,4.3711,4.3711,4.3926,4.4492,4.3082,4.2312,4.2894,4.1405,4.0481,4.0481,3.8677,3.7575,3.7575,3.6143,3.5148,3.471,3.471,3.471,3.471,3.471,3.471,3.471,3.471,3.471,3.4724,3.5079,3.5255,3.5357,3.588,3.6158,3.6261,3.6509,3.6597,3.6597,3.6597,3.6597,3.6597,3.6597,3.635,3.5805,3.4862,3.4413,3.4114,3.3714,3.3664,3.3764,3.3614,3.3614,3.3564,3.3414,3.3414,3.3414,3.3414,3.3414,3.3414,3.3414,3.3414,3.3414,3.3414,3.3414,3.3414,3.3414,3.3414,3.344,3.3507,3.3788,3.4095,3.4389,3.4683,3.495,3.5177,3.5191,3.5191,3.5191,3.5191,3.5191,3.5191,3.5191,3.5191,3.5191,3.5191,3.5191,3.5191,3.5191,3.5191,3.5191,3.5191,3.5191,3.5191,3.5191,3.5191,3.9316,3.9833,4.0288,4.0758,4.0918,4.098,4.1229,4.1663,4.2015,4.2261,4.2383,4.239,4.2139,4.1951,4.1975,4.2324,4.2617,4.2988,4.3613,4.3711,4.3402,4.2553,4.247,4.2306,4.1896,4.0471,3.9698,4.0166,3.8754,3.7821,3.7821,3.6822,3.6282,3.6282,3.5241,3.471,3.471,3.471,3.471,3.471,3.471,3.471,3.471,3.471,3.471,3.471,3.4871,3.5079,3.524,3.5529,3.5851,3.608,3.601,3.6121,3.6202,3.5954,3.5855,3.5855,3.5855,3.5508,3.4961,3.4413,3.4014,3.3764,3.3514,3.3414,3.3414,3.3414,3.3414,3.3414,3.3414,3.3414,3.3414,3.3414,3.3414,3.3414,3.3414,3.3414,3.3414,3.3414,3.3414,3.3414,3.3414,3.3414,3.3414,3.3414,3.3681,3.3948,3.4095,3.4376,3.467,3.4963,3.499,3.5044,3.5191,3.5191,3.5191,3.5191,3.5191,3.5191,3.5191,3.5191,3.5191,3.5191,3.5191,3.5191,3.5191,3.5191,3.5191,3.5191,3.5191,3.5191,3.9254,3.9792,4.0206,4.0737,4.0918,4.0882,4.0811,4.1161,4.1501,4.1525,4.1592,4.1732,4.1792,4.1483,4.1445,4.2245,4.2499,4.2871,4.3594,4.3711,4.3029,4.1215,4.0987,4.0439,3.8942,3.7396,3.6625,3.7001,3.5559,3.471,3.471,3.471,3.471,3.471,3.471,3.471,3.471,3.471,3.471,3.471,3.471,3.471,3.471,3.471,3.471,3.471,0.0,0.0,3.5137,3.5181,3.5423,3.5774,3.5393,3.5398,3.5585,3.509,3.4969,3.5011,3.4911,3.4563,3.4214,3.4114,3.3764,3.3414,3.3414,3.3414,3.3414,3.3414,3.3414,3.3414,3.3414,3.3414,3.3414,3.3414,3.3414,3.3414,3.3414,3.3414,3.3414,3.3414,3.3414,3.3414,3.3414,3.3414,3.3414,3.3414,3.3641,3.3828,3.3881,3.4108,3.4362,3.467,3.4696,3.4751,3.511,3.5137,3.5151,3.5191,3.5191,3.5191,3.5191,3.5191,3.5191,3.5191,3.5191,3.5191,3.5191,3.5191,3.5191,3.5191,3.5191,3.5191,3.9254,3.9564,3.9813,4.0675,4.0918,4.0811,4.0453,4.0754,4.1135,4.1167,4.1201,4.1337,4.1732,4.1483,4.1445,4.2245,4.3027,4.3555,4.3691,4.3711,4.3029,4.1215,4.0987,4.0289,3.8477,3.7205,3.653,3.6577,3.5438,3.471,3.471,3.471,3.471,3.471,3.471,3.471,3.471,3.471,3.471,3.471,3.471,3.471,3.471,3.471,3.471,3.471,0.0,3.4724,3.4797,3.5093,3.4984,3.4656,3.488,3.4889,3.4766,3.4668,3.4787,3.4961,3.4463,3.4263,3.4114,3.3664,3.3464,3.3414,3.3414,3.3414,3.3414,3.3414,3.3414,3.3414,3.3414,3.3414,3.3414,3.3414,3.3414,3.3414,3.3414,3.3414,3.3414,3.3414,3.3414,3.3414,3.3414,3.3414,3.3414,3.3414,3.3454,3.3587,3.3855,3.3921,3.4068,3.4362,3.4389,3.4509,3.4803,3.4882,3.4989,3.5177,3.5191,3.5191,3.5191,3.5191,3.5191,3.5191,3.5191,3.5191,3.5191,3.5191,3.5191,3.5191,3.5191,3.5191,3.8944,3.9316,3.9633,4.0062,4.0376,4.0453,4.0094,4.0185,4.0409,4.0664,4.0745,4.0913,4.1384,4.1327,4.1445,4.2245,4.3144,4.3711,4.3711,4.3711,4.2636,3.983,3.949,3.8366,3.5553,3.4925,3.4817,3.4985,3.466,3.4519,3.4695,3.471,3.471,3.471,3.471,3.471,3.471,3.471,3.471,3.471,3.471,3.471,3.471,3.471,3.471,3.4695,0.0,3.4259,3.4273,3.4182,3.4103,3.4021,3.3889,3.3837,3.3886,3.3806,3.3904,3.4114,3.3864,3.3764,3.3714,3.3464,3.3414,3.3414,3.3414,3.3414,3.3414,3.3414,3.3414,3.3414,3.3414,3.3414,3.3414,3.3414,3.3414,3.3414,3.3414,3.3414,3.3414,3.3414,3.3414,3.3414,3.3414,3.3414,3.3414,3.3414,3.3414,3.3467,3.3614,3.3627,3.3748,3.4055,3.4082,3.4202,3.4496,3.4721,3.4883,3.5177,3.5191,3.5191,3.5191,3.5191,3.5191,3.5191,3.5191,3.5191,3.5191,3.5191,3.5191,3.5191,3.5191,3.5191,3.8696,3.9082,3.9398,3.9464,3.9912,4.0166,3.9678,3.9632,3.9773,4.0196,4.0326,4.0547,4.1113,4.1328,4.1719,4.2461,4.3203,4.3546,4.3112,4.3071,4.17,3.8024,3.7552,3.6318,3.3117,3.3056,3.3333,3.3654,3.399,3.4358,3.4695,3.471,3.471,3.471,3.471,3.471,3.471,3.471,3.471,3.471,3.471,3.471,3.471,3.471,3.4601,3.4508,3.4071,3.3822,3.3728,3.3351,3.327,3.3336,3.2955,3.2893,3.3013,3.2987,3.312,3.332,3.3387,3.3414,3.3414,3.3414,3.3414,3.3414,3.3414,3.3414,3.3414,3.3414,3.3414,3.3414,3.3414,3.3414,3.3414,3.3414,3.3414,3.3414,3.3414,3.3414,3.3414,3.3414,3.3414,3.3414,3.3414,3.3414,3.3414,3.3414,3.3414,3.3414,3.3414,3.3414,3.3507,3.3748,3.3774,3.3895,3.4189,3.4496,3.479,3.5084,3.5164,3.5191,3.5191,3.5191,3.5191,3.5191,3.5191,3.5191,3.5191,3.5191,3.5191,3.5191,3.5191,3.5191,3.8696,3.8911,3.905,3.9126,3.9734,4.0094,3.9393,3.9232,3.9363,3.9839,3.9959,4.0195,4.1016,4.1816,4.248,4.2949,4.3418,4.3112,4.1425,4.1215,3.983,3.6129,3.5684,3.4916,3.2984,3.3056,3.3333,3.3654,3.399,3.4358,3.4695,3.471,3.471,3.471,3.471,3.471,3.471,3.471,3.471,3.471,3.471,3.471,3.471,3.471,3.4414,3.3963,3.3916,3.3634,3.3257,3.321,3.2894,3.2496,3.2449,3.2341,3.2246,3.2822,3.2986,3.3053,3.332,3.3414,3.3414,3.3414,3.3414,3.3414,3.3414,3.3414,3.3414,3.3414,3.3414,3.3414,3.3414,3.3414,3.3414,3.3414,3.3414,3.3414,3.3414,3.3414,3.3414,3.3414,3.3414,3.3414,3.3414,3.3414,3.3414,3.3414,3.3414,3.3414,3.3414,3.3414,3.3414,3.344,3.344,3.3574,3.3895,3.4189,3.4482,3.4829,3.5044,3.5191,3.5191,3.5191,3.5191,3.5191,3.5191,3.5191,3.5191,3.5191,3.5191,3.5191,3.5191,3.5191,3.8076,3.8514,3.8885,3.8417,3.8962,3.9502,3.8958,3.8849,3.9011,3.9744,3.9902,4.0234,4.1367,4.2031,4.2558,4.3008,4.3437,4.3071,4.1257,4.0987,3.9618,3.5944,3.551,3.48,3.2984,3.288,3.3085,3.3362,3.3684,3.4051,3.4388,3.4592,3.471,3.471,3.4367,3.4212,3.4212,3.393,3.3789,3.3789,3.4071,3.4212,3.4212,3.3883,3.3648,3.3445,3.3116,3.288,3.2705,3.2374,3.2138,3.1948,3.1948,3.2028,3.2131,3.2345,3.2666,3.2986,3.3106,3.3253,3.3414,3.3414,3.3414,3.3414,3.3414,3.3414,3.3414,3.3414,3.3414,3.3414,3.3414,3.3414,3.3414,3.3414,3.3414,3.3414,3.3414,3.3414,3.3414,3.3414,3.3414,3.3414,3.3414,3.3414,3.3414,3.3414,3.3414,3.3414,3.3414,3.3414,3.3414,3.3414,3.3414,3.3534,3.3855,3.3988,3.4175,3.4469,3.4763,3.5004,3.5191,3.5191,3.5191,3.5191,3.5191,3.5191,3.5191,3.5191,3.5191,3.5191,3.5191,3.5191,3.7649,3.8119,3.8496,3.7937,3.8414,3.8977,3.8823,3.8769,3.8984,3.9746,4.0215,4.0801,4.1816,4.2344,4.2773,4.3203,4.3516,4.2844,4.0463,4.0126,3.8767,3.509,3.4669,3.4143,3.2896,3.2822,3.2895,3.3172,3.3508,3.383,3.4197,3.4379,3.4461,3.4461,3.3977,3.3681,3.3681,3.3351,3.3224,3.3224,3.3351,3.354,3.3681,3.3351,3.3116,3.2927,3.255,3.2327,3.2138,3.1806,3.1711,3.1711,3.1711,3.1797,3.1971,3.2064,3.2358,3.2732,3.2906,3.3106,3.3293,3.3387,3.3414,3.3414,3.3414,3.3414,3.3414,3.3414,3.3414,3.3414,3.3414,3.3414,3.3414,3.3414,3.3414,3.3414,3.3414,3.3414,3.3414,3.3414,3.3414,3.3414,3.3414,3.3414,3.3414,3.3414,3.3414,3.3414,3.3414,3.3414,3.3414,3.3414,3.3414,3.3494,3.3721,3.3734,3.3868,3.4162,3.4376,3.4656,3.5044,3.5057,3.5097,3.5191,3.5191,3.5191,3.5191,3.5191,3.5191,3.5191,3.5191,3.5191,3.7582,3.7688,3.7777,3.7777,3.818,3.8728,3.9101,3.9199,3.9336,3.9805,4.0918,4.1933,4.2344,4.2773,4.3223,4.3633,4.3711,4.2409,3.8707,3.8195,3.6863,3.3234,3.2822,3.2822,3.2822,3.2822,3.2895,3.3172,3.3508,3.383,3.4151,3.3992,3.3916,3.3916,3.3445,3.3163,3.3163,3.3163,3.3177,3.3177,3.2658,3.2644,3.3163,3.3163,3.288,3.2408,3.2408,3.2138,3.1711,3.1711,3.1711,3.1711,3.1711,3.1711,3.1751,3.1984,3.2104,3.2185,3.2772,3.2973,3.3026,3.332,3.3414,3.3414,3.3414,3.3414,3.3414,3.3414,3.3414,3.3414,3.3414,3.3414,3.3414,3.3414,3.3414,3.3414,3.3414,3.3414,3.3414,3.3414,3.3414,3.3414,3.3414,3.3414,3.3414,3.3414,3.3414,3.3414,3.3414,3.3414,3.3414,3.3414,3.3414,3.3414,3.3414,3.3414,3.3547,3.3855,3.3881,3.4148,3.4788,3.4815,3.4897,3.5191,3.5191,3.5191,3.5191,3.5191,3.5191,3.5191,3.5191,3.5191,3.6958,3.7311,3.7742,3.7516,3.8037,3.8728,3.9101,3.9199,3.9414,4.0176,4.1113,4.1933,4.2344,4.2773,4.3223,4.3633,4.3711,4.2409,3.8707,3.8195,3.6863,3.3234,3.2822,3.2822,3.2822,3.2454,3.2275,3.2361,3.2594,3.2753,3.2853,3.321,3.3398,3.3398,3.288,3.2644,3.2644,3.2327,3.2138,3.2138,3.1995,3.2138,3.2658,3.228,3.2043,3.1901,3.1901,3.1806,3.1711,3.1711,3.1711,3.1711,3.1711,3.1711,3.1724,3.177,3.1931,3.2131,3.2305,3.2625,3.2986,3.308,3.324,3.3414,3.3414,3.3414,3.3414,3.3414,3.3414,3.3414,3.3414,3.3414,3.3414,3.3414,3.3414,3.3414,3.3414,3.3414,3.3414,3.3414,3.3414,3.3414,3.3414,3.3414,3.3414,3.3414,3.3414,3.3414,3.3414,3.3414,3.3414,3.3414,3.3414,3.3414,3.3414,3.3414,3.3454,3.3547,3.3547,3.3828,3.4429,3.4456,3.4589,3.4883,3.4949,3.499,3.5191,3.5191,3.5191,3.5191,3.5191,3.5191,3.6893,3.7174,3.759,3.7535,3.8066,3.873,3.9336,3.9609,3.998,4.0859,4.1562,4.2187,4.2598,4.3027,4.3418,4.3672,4.3112,4.1574,3.8622,3.7595,3.6058,3.3161,3.2822,3.2822,3.2822,3.2321,3.201,3.201,3.2062,3.2159,3.2285,3.2576,3.2769,3.288,3.2374,3.2138,3.2138,3.1853,3.1711,3.1711,3.1711,3.1853,3.209,3.1806,3.1711,3.1711,3.1711,3.1711,3.1711,3.1711,3.1711,3.1711,3.1711,3.1711,3.1711,3.1711,3.1784,3.1944,3.2064,3.2332,3.2666,3.2906,3.3093,3.3253,3.3374,3.3414,3.3414,3.3414,3.3414,3.3414,3.3414,3.3414,3.3414,3.3414,3.3414,3.3414,3.3414,3.3414,3.3414,3.3414,3.3414,3.3414,3.3414,3.3414,3.3414,3.3414,3.3414,3.3414,3.3414,3.3414,3.3414,3.3414,3.3414,3.3414,3.3414,3.3414,3.3414,3.3414,3.3414,3.3574,3.3948,3.4082,3.4282,3.4589,3.4589,3.467,3.4843,3.4843,3.4843,3.4843,3.4843,3.4843,3.7128,3.7217,3.7402,3.7777,3.832,3.8943,3.9707,4.0254,4.082,4.1641,4.2129,4.2518,4.2988,4.3418,4.3711,4.3711,4.2178,4.0337,3.8451,3.6648,3.4813,3.294,3.2734,3.2719,3.2675,3.2188,3.1877,3.1877,3.1758,3.184,3.2147,3.1991,3.206,3.2313,3.1901,3.1711,3.1711,3.1711,3.1711,3.1711,3.1711,3.1711,3.1711,3.1711,3.1711,3.1711,3.1711,3.1711,3.1711,3.1711,3.1711,3.1711,3.1711,3.1711,3.1711,3.1711,3.1711,3.1751,3.1971,3.2078,3.2185,3.2732,3.2982,3.3026,3.3293,3.3387,3.3414,3.3414,3.3414,3.3414,3.3414,3.3414,3.3414,3.3414,3.3414,3.3414,3.3414,3.3414,3.3414,3.3414,3.3414,3.3414,3.3414,3.3414,3.3414,3.3414,3.3414,3.3414,3.3414,3.3414,3.3414,3.3414,3.3414,3.3414,3.3414,3.3414,3.3414,3.3414,3.3414,3.3414,3.3414,3.3694,3.3975,3.4269,3.4282,3.4295,3.4322,3.4322,3.4322,3.4322,3.4322,3.4322,3.6853,3.7042,3.7402,3.7777,3.8769,3.9668,3.9844,4.0488,4.1172,4.1699,4.2129,4.2518,4.2988,4.3418,4.3711,4.3711,4.2178,4.0337,3.8451,3.6621,3.4653,3.2454,3.2188,3.201,3.164,3.1196,3.0884,3.0884,3.0768,3.0794,3.1091,3.1295,3.1497,3.1853,3.1758,3.1711,3.1711,3.1711,3.1711,3.1711,3.1711,3.1711,3.1711,3.1711,3.1711,3.1711,3.1711,3.1711,3.1711,3.1711,3.1711,3.1711,3.1711,3.1711,3.1711,3.1711,3.1711,3.1724,3.1791,3.1904,3.2118,3.2251,3.2599,3.2986,3.3053,3.3227,3.3414,3.3414,3.3414,3.3414,3.3414,3.3414,3.3414,3.3414,3.3414,3.3414,3.3414,3.3414,3.3414,3.3414,3.3414,3.3414,3.3414,3.3414,3.3414,3.3414,3.3414,3.3414,3.3414,3.3414,3.3414,3.3414,3.3414,3.3414,3.3414,3.3414,3.3414,3.3414,3.3414,3.3414,3.3414,3.348,3.3654,3.3975,3.3975,3.4095,3.4322,3.4322,3.4322,3.4322,3.4322,3.4322,3.7005,3.7129,3.7441,3.8086,3.9062,3.9902,3.9902,4.0566,4.1348,4.1973,4.2226,4.2617,4.3262,4.2834,4.2387,4.2387,4.0126,3.8024,3.7036,3.5336,3.3763,3.2542,3.2143,3.1921,3.164,3.1017,3.0616,3.0616,3.0317,3.0274,3.0568,3.0862,3.1156,3.145,3.1644,3.1711,3.1711,3.1711,3.1711,3.1711,3.1711,3.1711,3.1711,3.1711,3.1711,3.1711,3.1711,3.1711,3.1711,3.1711,3.1711,3.1711,3.1711,3.1711,3.1711,3.1711,3.1711,3.1711,3.1711,3.177,3.1917,3.2051,3.2305,3.2612,3.2893,3.308,3.324,3.3374,3.3414,3.3414,3.3414,3.3414,3.3414,3.3414,3.3414,3.3414,3.3414,3.3414,3.3414,3.3414,3.3414,3.3414,3.3414,3.3414,3.3414,3.3414,3.3414,3.3414,3.3414,3.3414,3.3414,3.3414,3.3414,3.3414,3.3414,3.3414,3.3414,3.3414,3.3414,3.3414,3.3414,3.3414,3.3494,3.3654,3.3654,3.3734,3.3881,3.3881,3.3881,3.3881,3.3881,3.3881,3.7226,3.7402,3.7695,3.8435,3.9238,3.9902,3.9902,4.0566,4.1387,4.2148,4.2343,4.2695,4.3555,4.222,4.0987,4.0987,3.7852,3.5391,3.5391,3.3733,3.2498,3.2409,3.201,3.1744,3.1655,3.0942,3.0482,3.0482,3.0137,3.0047,3.0386,3.0635,3.0929,3.1162,3.1517,3.1711,3.1711,3.1711,3.1711,3.1711,3.1711,3.1711,3.1711,3.1711,3.1711,3.1711,3.1711,3.1711,3.1711,3.1711,3.1711,3.1711,3.1711,3.1711,3.1711,3.1711,3.1711,3.1711,3.1711,3.1711,3.1751,3.1944,3.2064,3.2198,3.2679,3.2893,3.3026,3.3267,3.3374,3.3414,3.3414,3.3414,3.3414,3.3414,3.3414,3.3414,3.3414,3.3414,3.3414,3.3414,3.3414,3.3414,3.3414,3.3414,3.3414,3.3414,3.3414,3.3414,3.3414,3.3414,3.3414,3.3414,3.3414,3.3414,3.3414,3.3414,3.3414,3.3414,3.3414,3.3414,3.3414,3.3414,3.3414,3.3414,3.3414,3.3414,3.3414,3.3414,3.3414,3.3414,3.3414,3.3414,3.7156,3.7832,3.8474,3.8591,3.9238,3.9902,3.9902,4.0566,4.1348,4.1777,4.2168,4.2695,4.3555,4.222,4.0987,4.0987,3.7552,3.4869,3.4869,3.2925,3.1374,3.0928,3.0839,3.0616,3.0227,3.0048,3.0003,3.0003,2.9958,3.0047,3.0386,3.0635,3.0929,3.1162,3.1517,3.1711,3.1711,3.1711,3.1711,3.1711,3.1711,3.1711,3.1711,3.1711,3.1711,3.1711,3.1711,3.1711,3.1711,3.1711,3.1711,3.1711,3.1711,3.1711,3.1711,3.1711,3.1711,3.1711,3.1711,3.1711,3.1724,3.1764,3.1891,3.2118,3.2198,3.2572,3.2986,3.3026,3.3213,3.3414,3.3414,3.3414,3.3414,3.3414,3.3414,3.3414,3.3414,3.3414,3.3414,3.3414,3.3414,3.3414,3.3414,3.3414,3.3414,3.3414,3.3414,3.3414,3.3414,3.3414,3.3414,3.3414,3.3414,3.3414,3.3414,3.3414,3.3414,3.3414,3.3414,3.3414,3.3414,3.3414,3.3414,3.3414,3.3414,3.3414,3.3414,3.3414,3.3414,3.3414,3.3414,3.3414,3.7492,3.8105,3.8611,3.8611,3.9043,3.957,3.9844,4.0371,4.0996,4.166,4.2129,4.2617,4.3242,4.1217,3.9363,3.909,3.6015,3.3469,3.2925,3.2159,3.1507,3.1062,3.075,3.0526,3.0303,3.0048,2.9913,2.9913,2.9913,2.9967,3.01,3.0394,3.0688,3.0969,3.1263,3.1503,3.1711,3.1711,3.1711,3.1711,3.1711,3.1711,3.1711,3.1711,3.1711,3.1711,3.1711,3.1711,3.1711,3.1711,3.1711,3.1711,3.1711,3.1711,3.1711,3.1711,3.1711,3.1711,3.1711,3.1711,3.1711,3.1711,3.1805,3.1891,3.2051,3.2278,3.2559,3.2893,3.3066,3.32,3.3374,3.3414,3.3414,3.3414,3.3414,3.3414,3.3414,3.3414,3.3414,3.3414,3.3414,3.3414,3.3414,3.3414,3.3414,3.3414,3.3414,3.3414,3.3414,3.3414,3.3414,3.3414,3.3414,3.3414,3.3414,3.3414,3.3414,3.3414,3.3414,3.3414,3.3414,3.3414,3.3414,3.3414,3.3414,3.3414,3.3414,3.3414,3.3414,3.3414,3.3414,3.3414,3.7789,3.8242,3.8611,3.8611,3.8887,3.9316,3.9785,4.0215,4.0742,4.1484,4.1973,4.2182,4.2063,3.9952,3.8066,3.7578,3.4638,3.2143,3.124,3.1329,3.1343,3.0973,3.066,3.0406,3.0406,3.0093,2.9913,2.9913,2.9913,2.9913,2.9913,3.0194,3.0507,3.0675,3.1036,3.133,3.1557,3.1684,3.1711,3.1711,3.1711,3.1711,3.1711,3.1711,3.1711,3.1711,3.1711,3.1711,3.1711,3.1711,3.1711,3.1711,3.1711,3.1711,3.1711,3.1711,3.1711,3.1711,3.1711,3.1711,3.1711,3.1711,3.1711,3.1751,3.1931,3.2051,3.2198,3.2625,3.2866,3.3026,3.324,3.336,3.3414,3.3414,3.3414,3.3414,3.3414,3.3414,3.3414,3.3414,3.3414,3.3414,3.3414,3.3414,3.3414,3.3414,3.3414,3.3414,3.3414,3.3414,3.3414,3.3414,3.3414,3.3414,3.3414,3.3414,3.3414,3.3414,3.3414,3.3414,3.3414,3.3414,3.3414,3.3414,3.3414,3.3414,3.3414,3.3414,3.3414,3.3414,3.3414,3.3414,3.7874,3.8242,3.8611,3.8611,3.8887,3.9316,3.9785,4.0215,4.0644,4.1113,4.1543,4.1298,3.954,3.8649,3.8066,3.7578,3.4038,3.1196,3.0705,3.0272,3.0003,2.9958,2.9958,2.9958,2.9958,2.9913,2.9913,2.9913,2.9913,2.9913,2.9913,3.0194,3.0413,3.0426,3.0929,3.1236,3.1249,3.153,3.1711,3.1711,3.1711,3.1711,3.1711,3.1711,3.1711,3.1711,3.1711,3.1711,3.1711,3.1711,3.1711,3.1711,3.1711,3.1711,3.1711,3.1711,3.1711,3.1711,3.1711,3.1711,3.1711,3.1711,3.1711,3.1724,3.1738,3.1891,3.2104,3.2144,3.2545,3.2986,3.3,3.32,3.3414,3.3414,3.3414,3.3414,3.3414,3.3414,3.3414,3.3414,3.3414,3.3414,3.3414,3.3414,3.3414,3.3414,3.3414,3.3414,3.3414,3.3414,3.3414,3.3414,3.3414,3.3414,3.3414,3.3414,3.3414,3.3414,3.3414,3.3414,3.3414,3.3414,3.3414,3.3414,3.3414,3.3414,3.3414,3.3414,3.3414,3.3414,3.3414,3.3414,3.8262,3.8457,3.8611,3.8611,3.8728,3.8906,3.9355,3.8936,3.8878,4.0433,4.0428,3.9829,3.8874,3.7972,3.6839,3.5126,3.2867,3.1017,3.0272,3.0272,3.0227,2.9958,2.9913,2.9913,2.9913,2.9913,2.9913,2.9913,2.9913,2.9913,2.9913,3.002,3.0167,3.04,3.0614,3.0849,3.1223,3.1517,3.1711,3.1711,3.1711,3.1711,3.1711,3.1711,3.1711,3.1711,3.1711,3.1711,3.1711,3.1711,3.1711,3.1711,3.1711,3.1711,3.1711,3.1711,3.1711,3.1711,3.1711,3.1711,3.1711,3.1711,3.1711,3.1711,3.1711,3.1791,3.1864,3.2051,3.2251,3.2505,3.2879,3.3053,3.3187,3.3374,3.3414,3.3414,3.3414,3.3414,3.3414,3.3414,3.3414,3.3414,3.3414,3.3414,3.3414,3.3414,3.3414,3.3414,3.3414,3.3414,3.3414,3.3414,3.3414,3.3414,3.3414,3.3414,3.3414,3.3414,3.3414,3.3414,3.3414,3.3414,3.3414,3.3414,3.3414,3.3414,3.3414,3.3414,3.3414,3.3414,3.3414,3.3414,3.8532,3.8611,3.8611,3.8611,3.8611,3.8728,3.9101,3.8535,3.8254,3.9395,3.9166,3.8522,3.7751,3.6398,3.496,3.3446,3.2028,3.0794,3.0003,3.0182,3.0272,2.9958,2.9913,2.9913,2.9913,2.9913,2.9913,2.9913,2.9913,2.9913,2.9913,2.9913,3.0047,3.04,3.04,3.0635,3.1176,3.1423,3.157,3.1711,3.1711,3.1711,3.1711,3.1711,3.1711,3.1711,3.1711,3.1711,3.1711,3.1711,3.1711,3.1711,3.1711,3.1711,3.1711,3.1711,3.1711,3.1711,3.1711,3.1711,3.1711,3.1711,3.1711,3.1711,3.1711,3.1711,3.1751,3.1904,3.2024,3.2198,3.2585,3.2826,3.3053,3.3347,3.3414,3.3414,3.3414,3.3414,3.3414,3.3414,3.3414,3.3414,3.3414,3.3414,3.3414,3.3414,3.3414,3.3414,3.3414,3.3414,3.3414,3.3414,3.3414,3.3414,3.3414,3.3414,3.3414,3.3414,3.3414,3.3414,3.3414,3.3414,3.3414,3.3414,3.3414,3.3414,3.3414,3.3414,3.3414,3.3414,3.3414,3.3414,0.0,0.0,0.0,3.8611,3.8611,3.8691,3.9082,3.9143,3.8892,3.8108,3.7886,3.7396,3.6005,3.3972,3.2547,3.2767,3.1518,3.0392,2.9958,2.9913,2.9913,2.9913,2.9913,2.9913,2.9913,2.9913,2.9913,2.9913,2.9913,2.9913,2.9913,2.9913,3.0047,3.0386,3.04,3.0635,3.1196,3.1162,3.1356,3.1698,3.1698,3.1711,3.1711,3.1711,3.1711,3.1711,3.1711,3.1711,3.1711,3.1711,3.1711,3.1711,3.1711,3.1711,3.1711,3.1711,3.1711,3.1711,3.1711,3.1711,3.1711,3.1711,3.1711,3.1711,3.1711,3.1711,3.1711,3.1711,3.1877,3.2091,3.2104,3.2545,3.3053,3.3347,3.3414,3.3414,3.3414,3.3414,3.3414,3.3414,3.3414,3.3414,3.3414,3.3414,3.3414,3.3414,3.3414,3.3414,3.3414,3.3414,3.3414,3.3414,3.3414,3.3414,3.3414,3.3414,3.3414,3.3414,3.3414,3.3414,3.3414,3.3414,3.3414,3.3414,3.3414,3.3414,3.3414,3.3414,3.3414,3.3414,3.3414,3.3414,3.8611,0.0,0.0,0.0,0.0,0.0,3.873,3.8022,3.7615,3.8612,3.7365,3.5775,3.4709,3.3391,3.1891,3.0068,2.9784,2.9851,2.9887,2.9913,2.9913,2.9913,2.9913,2.9913,2.9913,2.9913,2.9913,2.9913,2.9913,2.9913,2.9913,2.9913,2.9953,3.0034,3.0247,3.048,3.0595,3.0808,3.1062,3.1343,3.1343,3.1463,3.1711,3.1711,3.1711,3.1711,3.1711,3.1711,3.1711,3.1711,3.1711,3.1711,3.1711,3.1711,3.1711,3.1711,3.1711,3.1711,3.1711,3.1711,3.1711,3.1711,3.1711,3.1711,3.1711,3.1711,3.1711,3.1711,3.173,3.1891,3.2367,3.2755,3.3053,3.3347,3.3414,3.3414,3.3414,3.3414,3.3414,3.3414,3.3414,3.3414,3.3414,3.3414,3.3414,3.3414,3.3414,3.3414,3.3414,3.3414,3.3414,3.3414,3.3414,3.3414,3.3414,3.3414,3.3414,3.3414,3.3414,3.3414,3.3414,3.3414,3.3414,3.3414,3.3414,3.3414,3.3414,3.3414,3.3414,3.3414,3.3414,3.3414,0.0,0.0,0.0,0.0,0.0,0.0,3.8611,3.8015,3.7633,3.8272,3.7239,3.5844,3.4745,3.3331,3.1807,3.0184,2.9476,2.9259,2.9673,2.974,2.978,2.99,2.9913,2.9913,2.9913,2.9913,2.9913,2.9913,2.9913,2.9913,2.9913,2.9913,2.9913,2.9913,3.0087,3.0279,3.04,3.0574,3.0755,3.1049,3.1049,3.1196,3.149,3.149,3.1557,3.1711,3.1711,3.1711,3.1711,3.1711,3.1711,3.1711,3.1711,3.1711,3.1711,3.1711,3.1711,3.1711,3.1711,3.1711,3.1711,3.1711,3.1711,3.1711,3.1711,3.1711,3.1711,3.1711,3.1711,3.1818,3.2286,3.2634,3.2915,3.316,3.332,3.3414,3.3414,3.3414,3.3414,3.3414,3.3414,3.3414,3.3414,3.3414,3.3414,3.3414,3.3414,3.3414,3.3414,3.3414,3.3414,3.3414,3.3414,3.3414,3.3414,3.3414,3.3414,3.3414,3.3414,3.3414,3.3414,3.3414,3.3414,3.3414,3.3414,3.3414,3.3414,3.3414,3.3414,3.3414,3.3414,3.3414,0.0,0.0,0.0,0.0,0.0,0.0,3.8611,3.8611,3.8385,3.7649,3.7414,3.6919,3.5749,3.3855,3.2381,3.2157,3.0325,2.9052,2.9396,2.9432,2.9539,2.9833,2.9873,2.9887,2.9913,2.9913,2.9913,2.9913,2.9913,2.9913,2.9913,2.9913,2.9913,2.9913,2.9913,3.0047,3.036,3.036,3.0507,3.0742,3.0742,3.0902,3.1183,3.1183,3.1343,3.1623,3.1623,3.1684,3.1711,3.1711,3.1711,3.1711,3.1711,3.1711,3.1711,3.1711,3.1711,3.1711,3.1711,3.1711,3.1711,3.1711,3.1711,3.1711,3.1711,3.1711,3.1711,3.1711,3.1711,3.1744,3.2024,3.2291,3.2621,3.2955,3.3173,3.3374,3.34,3.3414,3.3414,3.3414,3.3414,3.3414,3.3414,3.3414,3.3414,3.3414,3.3414,3.3414,3.3414,3.3414,3.3414,3.3414,3.3414,3.3414,3.3414,3.3414,3.3414,3.3414,3.3414,3.3414,3.3414,3.3414,3.3414,3.3414,3.3414,3.3414,3.3414,3.3414,3.3414,3.3414,3.3414,3.3414,0.0,0.0,0.0,0.0,0.0,0.0,3.8611,3.8611,3.8638,3.881,3.8028,3.7233,3.6963,3.5692,3.4538,3.418,3.2268,3.0465,2.9249,2.9081,2.9232,2.9539,2.9566,2.9659,2.99,2.9913,2.9913,2.9913,2.9913,2.9913,2.9913,2.9913,2.9913,2.9913,2.9913,2.994,3.0007,3.0007,3.0154,3.0493,3.0493,3.0595,3.0875,3.0875,3.1036,3.1316,3.1316,3.145,3.1711,3.1711,3.1711,3.1711,3.1711,3.1711,3.1711,3.1711,3.1711,3.1711,3.1711,3.1711,3.1711,3.1711,3.1711,3.1711,3.1711,3.1711,3.1711,3.1711,3.1711,3.1744,3.2024,3.2144,3.2318,3.2853,3.3026,3.3133,3.336,3.3414,3.3414,3.3414,3.3414,3.3414,3.3414,3.3414,3.3414,3.3414,3.3414,3.3414,3.3414,3.3414,3.3414,3.3414,3.3414,3.3414,3.3414,3.3414,3.3414,3.3414,3.3414,3.3414,3.3414,3.3414,3.3414,3.3414,3.3414,3.3414,3.3414,3.3414,3.3414,3.3414,3.3414,3.3414,0.0,0.0,0.0,3.8611,0.0,0.0,0.0,3.8767,3.9004,3.9453,3.9183,3.8626,3.7771,3.7055,3.6161,3.4894,3.2817,3.1111,3.0325,2.9385,2.8895,2.9232,2.9259,2.9379,2.9673,2.97,2.9766,2.99,2.9913,2.9913,2.9913,2.9913,2.9913,2.9913,2.9913,2.9913,2.9913,2.9913,2.9993,3.014,3.014,3.0287,3.0627,3.0627,3.0742,3.1009,3.1009,3.1183,3.145,3.145,3.153,3.1711,3.1711,3.1711,3.1711,3.1711,3.1711,3.1711,3.1711,3.1711,3.1711,3.1711,3.1711,3.1711,3.1711,3.1711,3.1711,3.1711,3.1711,3.1751,3.1851,3.1998,3.2171,3.2465,3.2772,3.3013,3.316,3.3307,3.3414,3.3414,3.3414,3.3414,3.3414,3.3414,3.3414,3.3414,3.3414,3.3414,3.3414,3.3414,3.3414,3.3414,3.3414,3.3414,3.3414,3.3414,3.3414,3.3414,3.3414,3.3414,3.3414,3.3414,3.3414,3.3414,3.3414,3.3414,3.3414,3.3414,3.3414,3.3414,3.3414,3.3414,0.0,0.0,0.0,0.0,0.0,3.8611,0.0,0.0,0.0,3.9805,4.0234,4.0086,3.8769,3.8548,3.7957,3.6098,3.375,3.2119,3.2043,3.0126,2.8802,2.8925,2.8908,2.9072,2.9366,2.9446,2.9606,2.99,2.9913,2.9913,2.9913,2.9913,2.9913,2.9913,2.9913,2.9913,2.9913,2.9913,2.9913,2.9913,2.9913,3.0047,3.0319,3.0319,3.048,3.0715,3.0715,3.0875,3.1142,3.1142,3.1316,3.1583,3.165,3.1711,3.1711,3.1711,3.1711,3.1711,3.1711,3.1711,3.1711,3.1711,3.1711,3.1711,3.1711,3.1711,3.1711,3.1711,3.1711,3.1711,3.1711,3.1837,3.2038,3.2091,3.2465,3.2839,3.2946,3.316,3.3347,3.34,3.3414,3.3414,3.3414,3.3414,3.3414,3.3414,3.3414,3.3414,3.3414,3.3414,3.3414,3.3414,3.3414,3.3414,3.3414,3.3414,3.3414,3.3414,3.3414,3.3414,3.3414,3.3414,3.3414,3.3414,3.3414,3.3414,3.3414,3.3414,3.3414,3.3414,3.3414,3.3414,0.0,0.0,0.0,0.0,3.8611,0.0,0.0,0.0,3.9336,3.9805,0.0,4.0568,0.0,0.0,0.0,3.9932,3.7046,3.473,3.4382,3.1478,2.9199,2.8703,2.8657,2.8764,2.9015,2.9325,2.9606,2.99,2.9913,2.9913,2.9913,2.9913,2.9913,2.9913,2.9913,2.9913,2.9913,2.9913,2.9913,2.9913,2.9913,2.994,2.9967,2.9967,3.0127,3.0453,3.0453,3.0614,3.0849,3.0849,3.1009,3.1303,3.157,3.1711,3.1711,3.1711,3.1711,3.1711,3.1711,3.1711,3.1711,3.1711,3.1711,3.1711,3.1711,3.1711,3.1711,3.1711,3.1711,3.1711,3.1711,3.1738,3.1831,3.2038,3.2158,3.2345,3.2866,3.3,3.3106,3.336,3.3414,3.3414,3.3414,3.3414,3.3414,3.3414,3.3414,3.3414,3.3414,3.3414,3.3414,3.3414,3.3414,3.3414,3.3414,3.3414,3.3414,3.3414,3.3414,3.3414,3.3414,3.3414,3.3414,3.3414,3.3414,3.3414,3.3414,3.3414,3.3414,3.3414,3.3414,3.3414,0.0,0.0,0.0,0.0,0.0,0.0,0.0,0.0,4.0019,0.0,0.0,0.0,0.0,0.0,0.0,0.0,3.8614,0.0,3.6592,3.3367,3.0555,2.9284,2.9142,2.9138,2.9181,2.938,2.9539,2.9659,2.982,2.9913,2.9913,2.9913,2.9913,2.9913,2.9913,2.9913,2.9913,2.9913,2.9913,2.9913,2.9913,2.9913,2.9913,2.9913,2.998,3.01,3.01,3.0274,3.0587,3.0587,3.0715,3.1009,3.1303,3.1517,3.1711,3.1711,3.1711,3.1711,3.1711,3.1711,3.1711,3.1711,3.1711,3.1711,3.1711,3.1711,3.1711,3.1711,3.1711,3.1711,3.1711,3.1711,3.1751,3.1824,3.1984,3.2171,3.2412,3.2648,3.2808,3.2929,3.304,3.316,3.316,3.3293,3.3414,3.3414,3.3414,3.3414,3.3414,3.3414,3.3414,3.3414,3.3414,3.3414,3.3414,3.3414,3.3414,3.3414,3.3414,3.3414,3.3414,3.3414,3.3414,3.3414,3.3414,3.3414,3.3414,3.3414,3.3414,3.3414,3.3414,3.3414,3.8906,0.0,0.0,0.0,0.0,0.0,0.0,0.0,0.0,0.0,0.0,0.0,0.0,0.0,0.0,0.0,0.0,3.7899,0.0,3.4473,0.0,0.0,0.0,0.0,2.9461,2.9542,2.9606,2.9636,2.9851,2.9967,2.9913,2.9913,2.9913,2.9913,2.9913,2.9913,2.9913,2.9913,2.9913,2.9913,2.9913,2.9913,2.9913,2.9913,2.9913,2.9913,2.9913,3.0034,3.0234,3.0234,3.0408,3.0702,3.0902,3.1169,3.145,3.1657,3.1711,3.1711,3.1711,3.1711,3.1711,3.1711,3.1711,3.1711,3.1711,3.1711,3.1711,3.1711,3.1711,3.1711,3.1711,3.1711,3.1711,3.1711,3.1837,3.2011,3.2078,3.2278,3.25,3.2581,3.2768,3.2915,3.2915,3.316,3.3414,3.3414,3.3414,3.3414,3.3414,3.3414,3.3414,3.3414,3.3414,3.3414,3.3414,3.3414,3.3414,3.3414,3.3414,3.3414,3.3414,3.3414,3.3414,3.3414,3.3414,3.3414,3.3414,3.3414,3.3414,3.3414,3.3414,3.3414,0.0,0.0,0.0,3.9863,0.0,0.0,0.0,0.0,4.0489,0.0,0.0,0.0,0.0,0.0,0.0,0.0,0.0,0.0,0.0,0.0,0.0,0.0,0.0,0.0,0.0,2.9872,2.9952,3.0079,3.009,3.0049,2.99,2.9913,2.9913,2.9913,2.9913,2.9913,2.9913,2.9913,2.9913,2.9913,2.9913,2.9913,2.9913,2.9913,2.9913,2.9913,2.9913,2.9927,2.9927,2.9927,3.01,3.0426,3.0426,3.0614,3.0889,3.1463,3.1711,3.1711,3.1711,3.1711,3.1711,3.1711,3.1711,3.1711,3.1711,3.1711,3.1711,3.1711,3.1711,3.1711,3.1711,3.1711,3.1711,3.1711,3.1724,3.1757,3.2038,3.2104,3.2198,3.2541,3.2607,3.2607,3.2607,3.3026,3.3414,3.3414,3.3414,3.3414,3.3414,3.3414,3.3414,3.3414,3.3414,3.3414,3.3414,3.3414,3.3414,3.3414,3.3414,3.3414,3.3414,3.3414,3.3414,3.3414,3.3414,3.3414,3.3414,3.3414,3.3414,3.3414,3.3414,3.3414,0.0,0.0,3.9902,3.9902,0.0,0.0,0.0,0.0,0.0,0.0,0.0,0.0,0.0,0.0,0.0,0.0,0.0,0.0,0.0,0.0,0.0,0.0,0.0,0.0,0.0,0.0,2.94,2.9144,2.9478,2.9703,2.9619,2.9806,2.9913,2.9913,2.9913,2.9913,2.9913,2.9913,2.9913,2.9913,2.9913,2.9913,2.9913,2.9913,2.9913,2.9913,2.9913,2.9913,2.9913,2.9913,2.998,3.0087,3.0333,3.0467,3.0627,3.1156,3.1383,3.1396,3.1597,3.1711,3.1711,3.1711,3.1711,3.1711,3.1711,3.1711,3.1711,3.1711,3.1711,3.1711,3.1711,3.1711,3.1711,3.1711,3.1711,3.1738,3.1845,3.1824,3.1851,3.1992,3.2166,3.2251,3.2251,3.2572,3.2955,3.3093,3.3293,3.3414,3.3414,3.3414,3.3414,3.3414,3.3414,3.3414,3.3414,3.3414,3.3414,3.3414,3.3414,3.3414,3.3414,3.3414,3.3414,3.3414,3.3414,3.3414,3.3414,3.3414,3.3414,3.3414,3.3414,3.3414,4.0312,4.0351,0.0,4.0351,4.0547,0.0,4.0762,0.0,0.0,0.0,0.0,0.0,0.0,0.0,0.0,0.0,0.0,0.0,0.0,3.6895,0.0,0.0,0.0,0.0,0.0,2.9677,2.9421,2.889,2.9212,2.9434,2.9517,2.9659,2.9806,2.9913,2.9913,2.9913,2.9913,2.9913,2.9913,2.9913,2.9913,2.9913,2.9913,2.9913,2.9913,2.9913,2.9913,2.9913,2.9913,2.9913,2.9913,2.994,3.0127,3.0207,3.0274,3.0862,3.1129,3.1276,3.157,3.1711,3.1711,3.1711,3.1711,3.1711,3.1711,3.1711,3.1738,3.1845,3.1744,3.1738,3.1845,3.1791,3.1711,3.1711,3.1711,3.1711,3.1711,3.1711,3.1711,3.1711,3.1824,3.1944,3.1944,3.2246,3.2541,3.2835,3.3066,3.3253,3.3253,3.3347,3.3414,3.3414,3.3414,3.3414,3.3414,3.3414,3.3414,3.3414,3.3414,3.3414,3.3414,3.3414,3.3507,3.3734,3.3521,3.3521,3.3734,3.3521,3.3414,3.3414,3.3414,3.3414]},{"header":{"parameterUnit":"m.s-1","parameterCategory":1,"la1":30.6,"la2":29.2853,"lo1":-89.7004,"lo2":-87.6739,"dy":0.0162,"dx":0.0183,"nx":112,"ny":82,"refTime":"2023-04-07T00:00:00:Z","depth":0,"parameterNumber":3,"parameterNumberName":"V-component_of_WINDS"},"data":[0.0,0.0,0.0,0.0,0.0,0.0,0.0,0.0,0.0,0.0,0.0,0.0,0.0,0.0,0.0,0.0,0.0,0.0,0.0,0.0,0.0,0.0,0.0,0.0,0.0,0.0,0.0,0.0,0.0,0.0,0.0,0.0,0.0,0.0,0.0,0.0,0.0,0.0,0.0,0.0,0.0,0.0,0.0,0.0,0.0,0.0,0.0,0.0,0.0,0.0,0.0,0.0,0.0,0.0,0.0,0.0,0.0,0.0,0.0,0.0,0.0,0.0,0.0,0.0,0.0,0.0,0.0,0.0,0.0,0.0,0.0,0.0,0.0,0.0,0.0,0.0,0.0,0.0,0.0,0.0,0.0,0.0,0.0,0.0,0.0,0.0,0.0,0.0,0.0,0.0,0.0,5.2469,5.3078,5.3518,5.3518,5.3518,5.3518,5.3518,0.0,0.0,0.0,0.0,0.0,0.0,0.0,0.0,0.0,0.0,0.0,0.0,0.0,0.0,0.0,0.0,0.0,0.0,0.0,0.0,0.0,0.0,0.0,0.0,0.0,0.0,0.0,0.0,0.0,0.0,0.0,0.0,0.0,0.0,0.0,0.0,0.0,0.0,0.0,0.0,0.0,0.0,0.0,0.0,0.0,0.0,0.0,0.0,0.0,0.0,0.0,0.0,0.0,0.0,0.0,0.0,0.0,0.0,0.0,0.0,0.0,0.0,0.0,0.0,0.0,0.0,0.0,0.0,0.0,0.0,0.0,0.0,0.0,0.0,0.0,0.0,0.0,0.0,0.0,0.0,0.0,0.0,0.0,0.0,0.0,0.0,0.0,0.0,0.0,0.0,0.0,0.0,0.0,0.0,0.0,0.0,0.0,0.0,0.0,0.0,0.0,0.0,0.0,0.0,5.257,5.3247,5.345,5.3518,5.3518,5.3518,5.3518,5.3518,0.0,0.0,0.0,0.0,0.0,0.0,0.0,0.0,0.0,0.0,0.0,0.0,0.0,0.0,0.0,0.0,0.0,0.0,0.0,0.0,0.0,0.0,0.0,0.0,0.0,0.0,0.0,0.0,0.0,0.0,0.0,0.0,0.0,0.0,0.0,0.0,0.0,0.0,0.0,0.0,0.0,0.0,0.0,0.0,0.0,0.0,0.0,0.0,0.0,0.0,0.0,0.0,0.0,0.0,0.0,0.0,0.0,0.0,0.0,0.0,0.0,0.0,0.0,0.0,0.0,0.0,0.0,0.0,0.0,0.0,0.0,0.0,0.0,0.0,0.0,0.0,0.0,0.0,0.0,0.0,0.0,0.0,0.0,0.0,0.0,0.0,0.0,0.0,0.0,0.0,0.0,0.0,0.0,0.0,0.0,0.0,0.0,0.0,0.0,0.0,0.0,0.0,0.0,5.2942,5.3247,5.4025,5.4093,5.4262,5.4651,5.4684,5.4684,5.4684,5.4684,0.0,0.0,0.0,0.0,0.0,0.0,0.0,0.0,0.0,0.0,0.0,0.0,0.0,0.0,0.0,0.0,0.0,0.0,0.0,0.0,0.0,0.0,0.0,0.0,0.0,0.0,0.0,0.0,0.0,0.0,0.0,0.0,0.0,0.0,0.0,0.0,0.0,0.0,0.0,0.0,0.0,0.0,0.0,0.0,0.0,0.0,0.0,0.0,0.0,0.0,0.0,0.0,0.0,0.0,0.0,0.0,0.0,0.0,0.0,0.0,0.0,0.0,0.0,0.0,0.0,0.0,0.0,0.0,0.0,0.0,0.0,0.0,0.0,0.0,0.0,0.0,0.0,0.0,0.0,0.0,0.0,0.0,0.0,0.0,0.0,0.0,0.0,0.0,0.0,0.0,0.0,0.0,0.0,0.0,0.0,0.0,0.0,0.0,0.0,0.0,0.0,0.0,5.3754,5.4025,5.4769,5.4871,5.5108,5.5665,5.5699,5.5699,5.5699,5.5699,0.0,0.0,0.0,0.0,0.0,0.0,0.0,0.0,0.0,0.0,0.0,0.0,0.0,0.0,0.0,0.0,0.0,0.0,0.0,0.0,0.0,0.0,0.0,0.0,0.0,0.0,0.0,0.0,0.0,0.0,0.0,0.0,0.0,0.0,0.0,0.0,0.0,0.0,0.0,0.0,0.0,0.0,0.0,0.0,0.0,0.0,0.0,0.0,0.0,0.0,0.0,0.0,0.0,0.0,0.0,0.0,0.0,0.0,0.0,0.0,0.0,0.0,0.0,0.0,0.0,0.0,0.0,0.0,0.0,0.0,0.0,0.0,0.0,0.0,0.0,0.0,0.0,0.0,0.0,0.0,0.0,0.0,0.0,0.0,0.0,0.0,0.0,0.0,0.0,0.0,0.0,0.0,0.0,0.0,0.0,0.0,0.0,0.0,0.0,0.0,0.0,0.0,5.4499,5.4803,5.553,5.5631,5.5631,5.5699,5.5699,5.5699,5.5699,5.5699,0.0,0.0,0.0,0.0,0.0,0.0,0.0,0.0,0.0,0.0,0.0,0.0,0.0,0.0,0.0,0.0,0.0,0.0,0.0,0.0,0.0,0.0,0.0,0.0,0.0,0.0,0.0,0.0,0.0,0.0,0.0,0.0,0.0,0.0,0.0,0.0,0.0,0.0,0.0,0.0,0.0,0.0,0.0,0.0,0.0,0.0,0.0,0.0,0.0,0.0,0.0,0.0,0.0,0.0,0.0,0.0,0.0,0.0,0.0,0.0,0.0,0.0,0.0,0.0,0.0,0.0,0.0,0.0,0.0,0.0,0.0,0.0,0.0,0.0,0.0,0.0,0.0,0.0,0.0,0.0,0.0,0.0,0.0,0.0,0.0,0.0,0.0,0.0,0.0,0.0,0.0,0.0,0.0,0.0,0.0,0.0,0.0,0.0,0.0,0.0,0.0,0.0,5.531,5.5581,0.0,5.6393,5.6562,5.7036,5.707,5.707,5.707,0.0,0.0,0.0,0.0,0.0,0.0,0.0,0.0,0.0,0.0,0.0,0.0,0.0,0.0,0.0,0.0,0.0,0.0,0.0,0.0,0.0,0.0,0.0,0.0,0.0,0.0,0.0,0.0,0.0,0.0,0.0,0.0,0.0,0.0,0.0,0.0,0.0,0.0,0.0,0.0,0.0,0.0,0.0,0.0,0.0,0.0,0.0,0.0,0.0,0.0,0.0,0.0,0.0,0.0,0.0,0.0,0.0,0.0,0.0,0.0,0.0,0.0,0.0,0.0,0.0,0.0,0.0,0.0,0.0,0.0,0.0,0.0,0.0,0.0,0.0,0.0,0.0,0.0,0.0,0.0,0.0,0.0,0.0,0.0,0.0,0.0,0.0,0.0,0.0,0.0,0.0,0.0,0.0,0.0,0.0,0.0,0.0,0.0,0.0,0.0,0.0,0.0,5.5936,5.6037,5.6409,0.0,5.7509,5.7814,5.8524,5.861,5.861,5.861,0.0,0.0,0.0,0.0,0.0,0.0,0.0,0.0,0.0,0.0,0.0,0.0,0.0,0.0,0.0,0.0,0.0,0.0,0.0,0.0,0.0,0.0,0.0,0.0,0.0,0.0,0.0,0.0,0.0,0.0,0.0,0.0,0.0,0.0,0.0,0.0,0.0,0.0,0.0,0.0,0.0,0.0,0.0,0.0,0.0,0.0,0.0,0.0,0.0,0.0,0.0,0.0,0.0,0.0,0.0,0.0,0.0,0.0,0.0,0.0,0.0,0.0,0.0,0.0,0.0,0.0,0.0,0.0,0.0,0.0,0.0,0.0,0.0,0.0,0.0,0.0,0.0,0.0,0.0,0.0,0.0,0.0,0.0,0.0,0.0,0.0,0.0,0.0,0.0,0.0,0.0,0.0,0.0,0.0,0.0,0.0,0.0,0.0,0.0,0.0,0.0,0.0,5.6731,5.6833,5.7408,5.8844,5.9013,5.9317,6.0047,6.0114,6.0114,0.0,0.0,0.0,0.0,0.0,0.0,0.0,0.0,0.0,0.0,0.0,0.0,0.0,0.0,0.0,0.0,0.0,0.0,0.0,0.0,0.0,0.0,0.0,0.0,0.0,0.0,0.0,0.0,0.0,0.0,0.0,0.0,0.0,0.0,0.0,0.0,0.0,0.0,0.0,0.0,0.0,0.0,0.0,0.0,0.0,0.0,0.0,0.0,0.0,0.0,0.0,0.0,0.0,0.0,0.0,0.0,0.0,0.0,0.0,0.0,0.0,0.0,0.0,0.0,0.0,0.0,0.0,0.0,0.0,0.0,0.0,0.0,0.0,0.0,0.0,0.0,0.0,0.0,0.0,0.0,0.0,0.0,0.0,0.0,0.0,0.0,0.0,0.0,0.0,0.0,0.0,0.0,0.0,0.0,0.0,0.0,0.0,0.0,0.0,0.0,0.0,0.0,0.0,5.8235,5.8829,5.9302,5.9742,5.9776,5.9877,6.008,6.0114,6.0114,6.0114,0.0,0.0,0.0,0.0,0.0,0.0,0.0,0.0,0.0,0.0,0.0,0.0,0.0,0.0,0.0,0.0,0.0,0.0,0.0,0.0,0.0,0.0,0.0,0.0,0.0,0.0,0.0,0.0,0.0,0.0,0.0,0.0,0.0,0.0,0.0,0.0,0.0,0.0,0.0,0.0,0.0,0.0,0.0,0.0,0.0,0.0,0.0,0.0,0.0,0.0,0.0,0.0,0.0,0.0,0.0,0.0,0.0,0.0,0.0,0.0,0.0,0.0,0.0,0.0,0.0,0.0,0.0,0.0,0.0,0.0,0.0,0.0,0.0,0.0,0.0,0.0,0.0,0.0,0.0,0.0,0.0,0.0,0.0,0.0,0.0,0.0,0.0,0.0,0.0,0.0,0.0,0.0,0.0,0.0,0.0,0.0,0.0,0.0,0.0,0.0,0.0,0.0,5.9404,5.9844,6.0216,6.0554,6.0588,6.0689,6.0994,6.1028,6.1028,6.1028,0.0,0.0,0.0,0.0,0.0,0.0,0.0,0.0,0.0,0.0,0.0,0.0,0.0,0.0,0.0,0.0,0.0,0.0,0.0,0.0,0.0,0.0,0.0,0.0,0.0,0.0,0.0,0.0,0.0,0.0,0.0,0.0,0.0,0.0,0.0,0.0,0.0,0.0,0.0,0.0,0.0,0.0,0.0,0.0,0.0,0.0,0.0,0.0,0.0,0.0,0.0,0.0,0.0,0.0,0.0,0.0,0.0,0.0,0.0,0.0,0.0,0.0,0.0,0.0,0.0,0.0,0.0,0.0,0.0,0.0,0.0,0.0,0.0,0.0,0.0,0.0,0.0,0.0,0.0,0.0,0.0,0.0,0.0,0.0,0.0,0.0,0.0,0.0,0.0,0.0,0.0,0.0,0.0,0.0,0.0,0.0,0.0,0.0,0.0,0.0,0.0,0.0,6.0216,6.0283,6.0588,6.1332,6.14,6.167,6.2347,6.24,6.24,6.24,0.0,0.0,0.0,0.0,0.0,0.0,0.0,0.0,0.0,0.0,0.0,0.0,0.0,0.0,0.0,0.0,0.0,0.0,0.0,0.0,0.0,0.0,0.0,0.0,0.0,0.0,0.0,0.0,0.0,0.0,0.0,0.0,0.0,0.0,0.0,0.0,0.0,0.0,0.0,0.0,0.0,0.0,0.0,0.0,0.0,0.0,0.0,0.0,0.0,0.0,0.0,0.0,0.0,0.0,0.0,0.0,0.0,0.0,0.0,0.0,4.677,0.0,0.0,0.0,0.0,0.0,0.0,0.0,0.0,0.0,0.0,0.0,0.0,0.0,0.0,0.0,0.0,0.0,0.0,0.0,0.0,0.0,0.0,0.0,0.0,0.0,0.0,0.0,0.0,0.0,0.0,0.0,0.0,0.0,0.0,0.0,0.0,0.0,0.0,0.0,0.0,0.0,6.1028,6.1535,6.1994,6.2144,6.2164,6.2212,6.24,6.24,6.24,6.24,0.0,0.0,0.0,0.0,0.0,0.0,0.0,0.0,0.0,0.0,0.0,0.0,0.0,0.0,0.0,0.0,0.0,0.0,0.0,0.0,0.0,0.0,0.0,0.0,0.0,0.0,0.0,0.0,0.0,0.0,0.0,0.0,0.0,0.0,0.0,0.0,0.0,0.0,0.0,0.0,0.0,0.0,0.0,0.0,0.0,0.0,0.0,0.0,0.0,0.0,0.0,0.0,0.0,0.0,0.0,0.0,0.0,0.0,0.0,0.0,0.0,4.8191,0.0,0.0,0.0,0.0,0.0,0.0,0.0,0.0,0.0,0.0,0.0,0.0,0.0,0.0,0.0,0.0,0.0,0.0,0.0,0.0,0.0,0.0,0.0,0.0,0.0,0.0,0.0,0.0,0.0,0.0,0.0,0.0,0.0,0.0,0.0,0.0,0.0,0.0,0.0,0.0,6.1839,6.2144,6.24,6.24,6.24,6.24,6.24,6.24,6.24,6.24,6.24,0.0,0.0,0.0,0.0,0.0,0.0,0.0,0.0,0.0,0.0,0.0,0.0,0.0,0.0,0.0,0.0,0.0,0.0,0.0,0.0,0.0,0.0,0.0,0.0,0.0,0.0,0.0,0.0,0.0,0.0,0.0,0.0,0.0,0.0,0.0,0.0,0.0,0.0,0.0,0.0,0.0,0.0,0.0,0.0,0.0,0.0,0.0,0.0,0.0,0.0,0.0,0.0,0.0,5.0905,5.1072,5.0546,5.2059,5.2627,5.2326,5.105,5.0825,5.1358,5.0753,0.0,0.0,0.0,0.0,0.0,0.0,0.0,0.0,0.0,0.0,0.0,0.0,0.0,0.0,0.0,0.0,0.0,0.0,0.0,0.0,0.0,0.0,0.0,0.0,6.0486,6.0486,0.0,0.0,0.0,0.0,0.0,0.0,0.0,0.0,0.0,0.0,0.0,0.0,6.24,6.24,6.24,6.24,6.24,6.24,6.24,6.24,6.24,6.24,6.2516,6.2584,0.0,0.0,0.0,0.0,0.0,0.0,0.0,0.0,0.0,0.0,0.0,0.0,0.0,0.0,0.0,0.0,0.0,0.0,0.0,0.0,0.0,0.0,0.0,0.0,0.0,0.0,0.0,0.0,0.0,0.0,0.0,0.0,4.4975,4.5155,0.0,0.0,0.0,0.0,0.0,0.0,0.0,0.0,0.0,0.0,0.0,0.0,0.0,5.022,5.0313,5.1765,5.242,5.227,5.3781,5.4803,5.5282,5.5525,5.5632,5.5595,5.5389,0.0,5.4563,5.5052,0.0,0.0,0.0,0.0,0.0,0.0,0.0,0.0,0.0,0.0,0.0,0.0,0.0,0.0,0.0,0.0,0.0,0.0,0.0,0.0,0.0,0.0,6.2096,6.2096,6.2096,6.2096,0.0,6.1603,6.1129,6.1129,6.167,0.0,0.0,0.0,0.0,0.0,0.0,0.0,6.24,6.24,6.24,6.24,6.24,6.24,6.24,6.24,6.24,6.24,6.299,6.3342,6.3342,6.3971,0.0,0.0,0.0,0.0,0.0,0.0,0.0,0.0,0.0,0.0,0.0,0.0,0.0,0.0,0.0,0.0,0.0,0.0,0.0,0.0,0.0,0.0,0.0,0.0,0.0,0.0,0.0,0.0,0.0,4.5095,4.5574,4.6322,4.6411,4.6711,0.0,0.0,0.0,0.0,0.0,0.0,0.0,0.0,0.0,5.2529,5.2948,5.3377,5.3731,5.4437,5.4752,5.4692,5.5876,5.6369,5.6227,5.7248,5.744,5.697,5.7924,5.8169,5.7792,5.6654,5.6217,5.6208,0.0,0.0,0.0,0.0,5.6296,5.7248,5.843,5.9152,0.0,6.063,0.0,0.0,0.0,0.0,0.0,0.0,0.0,0.0,0.0,0.0,6.24,6.24,6.24,6.24,6.24,6.2482,6.2415,0.0,6.2178,6.24,6.24,0.0,0.0,0.0,0.0,6.255,6.2956,6.3024,6.3193,6.3599,6.3632,6.3632,6.3632,6.3632,6.3632,6.3632,6.3937,6.414,6.414,6.4444,6.4444,0.0,0.0,0.0,0.0,0.0,0.0,0.0,0.0,0.0,0.0,0.0,0.0,0.0,0.0,0.0,0.0,0.0,0.0,0.0,0.0,0.0,0.0,0.0,0.0,0.0,0.0,0.0,0.0,4.6052,4.6501,4.7668,4.8006,4.8432,0.0,0.0,0.0,0.0,0.0,0.0,5.2965,5.2905,5.3502,5.4943,5.5505,5.6037,5.6525,5.6775,5.6871,5.6812,5.7699,5.7881,5.7493,5.8855,5.9083,5.8489,5.9758,6.0291,6.0122,5.8238,5.7689,5.7957,5.7309,5.7045,5.7089,5.7298,5.7946,5.8843,5.9878,6.0658,6.1343,6.1908,6.2229,6.2361,6.2169,0.0,0.0,0.0,0.0,6.24,6.24,6.24,6.24,6.24,6.24,6.2468,6.2618,6.3125,6.3274,0.0,6.255,6.2685,6.2685,0.0,0.0,0.0,0.0,6.3159,6.3714,6.3781,6.3984,6.4546,6.4613,6.4613,6.4613,6.4613,6.4613,6.4613,6.4783,6.4884,6.4884,6.5053,6.5087,6.4884,0.0,0.0,0.0,0.0,0.0,0.0,0.0,0.0,0.0,0.0,0.0,0.0,0.0,0.0,0.0,0.0,0.0,0.0,0.0,0.0,0.0,0.0,0.0,0.0,0.0,0.0,0.0,0.0,0.0,4.9097,4.9917,0.0,0.0,0.0,0.0,5.2488,5.2558,5.3539,5.5854,5.5971,5.6398,5.731,5.7364,5.7396,5.7428,5.8306,5.8667,5.8486,5.9419,6.0242,6.0861,6.0945,6.0966,6.0924,6.0999,6.1053,6.1032,6.0915,6.031,5.949,5.9446,5.9424,5.9446,5.9632,6.0351,6.1283,6.173,6.191,6.2003,6.2288,6.2381,6.24,6.2381,6.2381,0.0,0.0,6.24,6.24,6.24,6.24,6.24,6.24,6.24,6.2584,6.3274,6.3477,6.3274,0.0,6.2956,6.3443,6.3443,0.0,6.368,6.4377,6.4478,6.4512,6.4546,6.4546,6.4546,6.4613,6.4613,6.4613,6.4613,6.4613,6.4613,6.4613,6.5256,6.5649,6.5649,6.6339,6.6373,6.5683,6.5649,0.0,0.0,0.0,0.0,0.0,0.0,0.0,0.0,0.0,0.0,0.0,0.0,0.0,0.0,0.0,0.0,0.0,0.0,0.0,0.0,0.0,0.0,0.0,0.0,0.0,0.0,0.0,0.0,5.046,5.1889,0.0,5.2788,5.3663,5.4636,5.5707,5.527,5.582,5.7839,5.7796,5.8162,5.909,5.9571,5.9802,5.9802,6.0126,6.0279,6.0196,6.0543,6.0854,6.1119,6.1119,6.1119,6.1119,6.1119,6.1119,6.1119,6.1231,6.099,6.0591,6.0706,6.0769,6.0811,6.1131,6.148,6.1817,6.215,6.2249,6.2249,6.2361,6.24,6.24,6.24,6.24,6.24,6.24,6.2753,6.3125,6.3125,6.3463,6.3802,6.3802,6.3802,6.3903,6.414,6.458,6.4681,6.3971,6.4038,6.4208,6.4208,6.4208,6.4309,6.4546,6.4613,6.4783,6.5256,6.529,6.5493,6.5967,6.644,6.6711,6.6711,6.7184,6.7489,6.7489,6.7726,6.7895,6.7895,6.8132,6.8166,6.7895,6.7895,6.776,0.0,0.0,0.0,0.0,0.0,0.0,0.0,0.0,0.0,0.0,0.0,0.0,0.0,0.0,0.0,0.0,0.0,0.0,0.0,0.0,0.0,0.0,0.0,0.0,0.0,0.0,5.192,5.2334,5.409,5.5247,5.5212,5.6062,5.6969,5.7806,5.7344,5.7764,5.9547,5.9521,5.9741,6.0336,6.1086,6.145,6.145,6.1715,6.1848,6.1848,6.1848,6.1848,6.1848,6.1848,6.189,6.1953,6.1953,6.1995,6.2099,6.2212,6.2191,6.2033,6.1645,6.1506,6.1547,6.1877,6.1997,6.207,6.2572,6.2753,6.2821,6.3057,6.3125,6.3125,6.3125,6.3125,6.3125,6.3125,6.3497,6.3937,6.4174,6.4613,6.5019,6.529,6.5358,6.5425,6.5662,6.6102,6.6373,6.617,6.5696,6.5358,6.5358,6.5561,6.5797,6.6068,6.6136,6.6305,6.6779,6.6867,6.7015,6.7501,6.803,6.8301,6.8301,6.8808,6.9113,6.9113,6.9113,6.9113,6.9113,6.9113,6.9113,6.9113,6.9113,6.9113,6.9113,0.0,0.0,0.0,0.0,0.0,0.0,0.0,0.0,0.0,0.0,0.0,0.0,0.0,0.0,0.0,0.0,0.0,0.0,0.0,0.0,0.0,0.0,0.0,5.1767,5.298,5.436,5.4746,5.6416,5.7259,5.6401,5.7088,5.7891,5.8626,5.8691,5.9412,6.1044,6.1152,6.1131,6.1185,6.1869,6.2233,6.2233,6.2929,6.3294,6.3294,6.3327,6.3327,6.3327,6.336,6.3489,6.3681,6.3681,6.383,6.4074,6.4095,6.4095,6.3927,6.2379,6.1776,6.1817,6.2004,6.2084,6.2205,6.3214,6.3545,6.368,6.441,6.4647,6.4681,6.4681,6.4681,6.4681,6.4681,6.4681,6.4884,6.5561,6.5784,6.5967,6.6711,6.6859,6.7062,6.7793,6.7929,6.8166,6.8977,6.7963,6.6927,6.6859,6.7455,6.8199,6.8977,6.9113,0.0,6.9113,6.9113,6.9147,6.9147,6.918,6.9214,6.9214,6.9214,6.9214,6.9214,6.9214,6.918,6.918,6.918,6.918,6.918,6.918,6.918,6.918,0.0,0.0,0.0,0.0,0.0,0.0,0.0,0.0,0.0,0.0,0.0,0.0,0.0,0.0,0.0,0.0,0.0,0.0,0.0,0.0,0.0,0.0,5.6354,5.4076,5.5383,5.653,5.6469,5.8141,5.9124,5.871,5.9543,6.0202,6.04,6.04,6.0835,6.1848,6.1902,6.2134,6.2697,6.2896,6.2996,6.2996,6.3194,6.3294,6.3294,6.3769,6.4034,6.4122,6.4795,6.5137,6.5202,6.5409,6.5538,6.5603,6.574,6.5804,6.5669,6.419,6.3585,6.3605,6.3809,6.389,6.3924,6.4187,6.4647,6.5121,6.5324,6.5764,6.6203,6.6203,6.6203,6.6203,6.6203,6.6576,6.7049,6.7218,6.7726,6.8233,6.8436,6.847,6.8538,6.8741,6.8774,6.8977,6.9755,6.9992,6.97,6.8673,6.8639,6.8842,6.9079,6.9113,0.0,6.9113,6.9553,6.9891,6.9891,7.0838,7.1481,7.1481,7.1988,7.2056,7.1515,7.1481,7.1244,7.0737,7.0703,7.0703,7.0703,7.0703,7.0703,0.0,0.0,0.0,0.0,0.0,0.0,0.0,0.0,0.0,0.0,0.0,0.0,0.0,0.0,0.0,0.0,0.0,0.0,0.0,0.0,0.0,0.0,5.7546,5.8496,5.6961,5.7796,5.845,5.8163,5.9531,6.0415,6.0248,6.1056,6.155,6.155,6.1848,6.2212,6.2631,6.2664,6.2996,6.3725,6.4023,6.4332,6.463,6.4929,6.5161,6.5271,6.5647,6.5947,6.6091,6.6623,6.6934,6.7011,6.7198,6.7307,6.7428,6.7524,6.7588,0.0,0.0,0.0,0.0,0.0,6.5527,6.5561,6.5865,6.6271,6.6677,6.7015,6.7421,6.776,6.776,6.776,6.776,6.776,6.8064,6.8538,6.918,6.9688,7.0195,7.0804,7.0939,7.0939,7.0939,7.0939,7.1075,7.1503,7.1921,0.0,7.1075,7.0939,7.0939,7.0939,7.0939,7.0939,7.0939,7.1334,7.1605,7.1605,7.2326,7.2868,7.2868,7.324,0.0,0.0,0.0,7.3406,7.334,7.334,0.0,0.0,0.0,7.334,7.334,0.0,0.0,0.0,7.1508,7.1365,0.0,0.0,0.0,0.0,0.0,0.0,0.0,0.0,0.0,0.0,0.0,0.0,0.0,0.0,0.0,0.0,5.9458,6.0847,6.0001,6.0088,6.0166,5.9914,6.0668,6.1251,6.1351,6.1935,6.23,6.23,6.2996,6.3459,6.3526,0.0,0.0,0.0,0.0,6.5989,6.6674,6.7303,6.7773,6.8046,6.8213,6.8415,6.8652,6.8842,6.9043,6.9188,6.9232,6.9377,6.9586,6.9586,6.9586,6.9417,6.7726,6.7062,6.7062,6.7062,6.7062,6.7129,6.7827,0.0,0.0,6.8977,6.9282,6.935,6.9451,6.9485,6.9485,6.9586,6.9586,6.9891,7.121,7.1526,7.1887,7.3172,7.35,7.35,7.35,7.35,7.3557,7.374,7.3763,7.3843,7.4025,7.374,7.35,7.35,7.35,7.3523,7.3638,7.3729,7.3809,7.3923,0.0,0.0,7.4025,7.4025,7.4343,7.5042,7.5003,7.5331,7.6192,7.6212,7.6212,7.6212,7.6212,7.6212,7.6212,7.6282,7.6318,7.6277,7.4594,7.4227,0.0,0.0,0.0,0.0,0.0,0.0,0.0,0.0,0.0,0.0,0.0,0.0,0.0,0.0,0.0,5.9129,6.0225,6.1222,6.1636,6.173,6.1772,6.1702,6.1863,6.2233,6.283,6.2996,6.3095,6.3095,6.3758,6.4399,6.4962,6.5558,6.6198,6.696,6.7092,6.7339,6.7699,6.7866,6.8046,6.835,0.0,0.0,7.0216,7.1585,7.2216,7.2262,7.2493,7.2608,7.2631,7.2631,7.2631,7.236,6.9688,6.8673,6.8673,6.8673,6.8673,6.8673,6.8808,6.9248,6.9777,6.9947,7.0398,7.1007,7.1582,7.1751,0.0,7.2462,7.2631,7.2699,7.3026,7.3071,7.3138,7.3432,7.35,7.35,7.35,7.35,7.39,7.5261,7.5519,7.5913,7.7227,7.5261,7.35,7.35,7.35,7.3742,7.4459,7.5119,7.5806,7.6489,7.711,7.7459,7.7459,7.7459,7.7278,7.6838,7.6263,7.5995,7.6177,7.6212,7.6212,7.6212,7.6212,7.6212,7.6212,7.6789,7.707,7.707,7.6146,7.5748,0.0,0.0,0.0,0.0,0.0,0.0,0.0,0.0,0.0,0.0,0.0,5.8245,0.0,0.0,5.987,6.0739,6.1341,6.1902,6.2631,6.273,6.273,6.273,6.273,6.3029,6.3791,6.4155,6.4498,6.4862,6.5591,6.6154,6.6463,6.6964,6.7762,6.8892,6.8892,6.9374,7.0386,7.027,7.0386,7.0756,7.1495,7.1934,7.2073,7.2907,7.3291,7.3291,7.343,7.35,7.35,7.35,7.35,7.3364,7.1887,7.1278,7.1278,7.1278,7.1278,7.1278,7.1278,7.1515,7.1842,7.1842,7.209,7.2462,7.2834,7.2935,7.3003,7.3398,7.35,7.3601,7.395,7.4052,7.4153,7.4492,7.4955,7.5322,7.5322,7.5637,7.6192,7.7028,7.7205,7.7438,7.8266,7.705,7.5957,7.5957,7.5957,7.611,7.6549,7.6961,7.7376,7.7816,7.8174,7.8419,7.8419,7.8811,7.8932,7.8543,7.8601,7.8653,7.8653,7.8653,7.8653,7.8653,7.8653,7.8653,7.8653,7.9046,7.9205,7.9169,7.8831,7.8406,0.0,0.0,0.0,0.0,0.0,0.0,0.0,5.7039,5.7465,5.8483,5.8687,5.8934,5.9751,6.0033,6.0554,6.1962,6.23,6.2697,6.3592,6.3725,6.3824,6.4122,6.389,6.4056,6.4951,6.5525,6.6088,6.673,6.7413,6.791,6.8089,6.8452,6.9233,7.0599,7.068,7.1389,7.283,7.2639,7.2759,7.3174,7.3319,7.3504,7.3713,7.3849,7.394,7.394,7.394,7.394,7.394,7.394,7.394,7.394,7.394,7.394,7.3906,7.3601,7.35,7.35,7.35,7.35,7.35,7.35,7.35,7.3534,7.3646,7.3713,7.3713,7.3906,7.394,7.4052,7.4661,7.4971,7.5247,7.5824,7.6656,7.7352,7.7352,7.7891,7.8461,7.8647,7.8668,7.8729,7.8892,7.9039,7.8987,7.8461,7.8419,7.8482,7.8647,7.8668,7.8729,7.8913,7.8913,7.9004,7.9145,7.9996,8.0508,8.0508,8.1181,8.1563,8.1563,8.1563,8.1563,8.1563,8.1563,8.1563,8.1563,8.1563,8.1563,8.1563,8.1563,8.1001,5.4102,5.4521,5.497,5.5059,5.5698,5.6618,0.0,5.8619,5.9543,6.0569,6.0739,6.0814,6.0919,6.1468,6.1962,6.2167,6.273,6.3658,6.4995,6.5194,6.5635,6.696,6.5966,6.5701,6.7092,6.7324,6.7505,6.7822,6.8281,6.8988,6.9863,7.0566,7.1299,7.2132,7.2381,7.2686,7.3033,7.3067,7.3151,7.3454,7.4107,7.4445,7.4492,7.5168,7.5439,7.5439,7.5439,7.5439,7.5439,7.5439,7.5439,7.5439,7.5439,7.5439,7.5303,7.3984,7.35,7.35,7.35,7.35,7.35,7.35,7.35,7.3612,7.4289,7.4492,7.4627,7.527,7.5439,7.5473,7.5574,7.6197,7.6859,7.6928,7.7624,7.8252,7.8252,7.8336,7.8647,7.9483,7.962,7.9889,8.0676,8.1381,8.1059,7.8753,7.8419,7.8688,7.9451,7.962,7.9947,8.0712,8.0785,8.1092,8.1797,8.2593,8.3082,8.3082,8.3192,8.3247,8.3247,8.3247,8.3247,8.3247,8.3247,8.3247,8.3247,8.3247,8.3247,8.3247,8.3247,8.2432,5.5444,5.5804,5.6017,5.6017,5.6329,5.6848,5.7854,5.8867,5.9881,6.0898,6.145,6.1736,6.1736,6.2333,6.3095,0.0,6.4332,6.5028,6.6463,6.6662,6.7059,6.8109,6.8076,6.8042,6.8241,6.8639,6.9187,6.9866,7.0505,7.1085,7.1656,7.2122,7.2696,7.3491,7.3587,7.3955,7.4597,7.4454,7.4502,7.4762,7.51,7.5236,7.5236,7.5574,7.5709,7.5709,7.5709,7.5709,7.5709,7.5709,7.5709,7.5709,7.5709,7.5709,7.5642,7.4999,7.4762,7.4762,7.4762,7.4762,7.4762,7.4762,7.4762,7.483,7.5134,7.5236,7.5303,7.5608,7.5709,7.5818,7.6369,7.6804,7.7219,7.7754,7.8523,7.9316,7.9777,8.0281,8.0907,8.1787,8.1952,8.2064,8.2414,8.2758,8.2628,8.1535,8.1383,8.1499,8.1878,8.1952,8.2083,8.2468,8.2505,8.2613,8.2958,8.332,8.3501,8.3501,8.3501,8.3501,8.3501,8.3501,8.3501,8.3501,8.3501,8.3501,8.3501,8.3501,8.3501,8.3501,8.3501,8.3193,5.6831,5.7015,5.7015,5.7015,5.7205,5.7629,5.8369,5.9429,6.0532,6.1258,6.2001,6.2498,6.2498,6.3261,6.42,6.5204,6.5734,6.643,6.7721,6.8085,6.8473,6.9202,6.9964,7.0244,6.9784,7.0182,7.0857,7.1723,7.2243,7.2715,7.3156,7.3346,7.3777,7.4575,7.4589,7.4944,7.5676,7.5518,7.5518,7.5709,7.5709,7.5709,7.5709,7.5709,7.5709,7.5709,7.5709,7.5709,7.5709,7.5709,7.5709,7.5709,7.5709,7.5709,7.5709,7.5709,7.5709,7.5709,7.5709,7.5709,7.5709,7.5709,7.5709,7.5709,7.5709,7.5865,7.6101,7.6101,7.6253,7.6645,7.755,7.7959,7.8361,7.9225,8.0163,8.0981,8.1499,8.2154,8.2813,8.3392,8.3501,8.3501,8.3501,8.3682,8.3827,8.3827,8.4026,8.4008,8.3573,8.3501,8.3501,8.3501,8.3718,8.3827,8.3827,8.4044,8.4135,8.4135,8.4135,8.4135,8.4135,8.4135,8.4135,8.4135,8.4135,8.4135,8.4135,8.4135,8.4135,8.4135,8.4135,8.4245,5.8039,5.8039,5.8039,5.8039,5.8777,5.9521,5.9543,6.0869,6.2146,6.2167,6.273,6.3261,6.3261,6.4399,6.5337,6.537,6.6595,6.7787,6.8539,6.9268,6.9997,7.0759,7.1488,7.2016,0.0,7.2332,7.2524,7.2999,7.2901,7.3179,7.409,7.4238,7.4551,7.5234,7.5532,7.5676,7.5709,7.5709,7.5709,7.5709,7.5709,7.5709,7.5709,7.5709,7.5709,7.5709,7.5709,7.5709,7.5709,7.5709,7.5709,7.5709,7.5709,7.5709,7.5709,7.5709,7.5709,7.5709,7.5709,7.5709,7.5709,7.5709,7.5709,7.5709,7.5709,7.6323,7.7075,7.7075,7.7667,7.8476,7.9311,8.0146,8.0982,8.1806,8.2701,8.3392,8.3428,8.3446,8.3465,8.3501,8.3501,8.3501,8.3501,8.4153,8.4642,8.4642,8.533,8.5257,8.3718,8.3501,8.3501,8.3501,8.4225,8.4642,8.4642,8.5366,8.5837,8.5837,8.5837,8.5837,8.5837,8.5837,8.5837,8.5837,8.5837,8.5837,8.5837,8.5837,8.5837,8.5837,8.5837,8.5914,5.9278,5.9091,5.9091,5.9091,5.9722,6.0322,6.0322,6.1666,6.2929,6.2929,6.3868,6.4697,6.4697,6.5867,6.7026,6.7512,6.8009,6.8771,6.9997,7.0529,7.108,7.1812,7.2698,0.0,0.0,0.0,7.335,7.3854,7.4244,7.4662,7.5161,7.5218,7.532,7.5532,7.5662,7.5709,7.5709,7.5709,7.5709,7.5709,7.5709,7.5709,7.5709,7.5709,7.5709,7.5709,7.5709,7.5709,7.5743,7.6284,7.6487,7.6555,7.7029,7.7256,7.7256,7.7256,7.7256,7.7063,7.6048,7.5709,7.5794,7.6415,7.6622,7.6828,7.795,7.8507,7.885,7.9395,7.9772,8.0169,8.1033,8.1484,8.1913,8.2833,8.3261,8.3646,8.4189,8.4298,8.446,8.4968,8.5076,8.5076,8.5076,8.533,8.5511,8.5511,8.5728,8.5692,8.5149,8.5076,8.5076,8.5076,8.533,8.5511,8.5511,8.5728,8.5909,8.5909,8.5909,8.5909,8.5909,8.5909,8.6126,8.6614,8.6614,8.6868,8.7411,8.7565,8.7622,8.7641,8.7809,8.796,6.0302,6.0315,6.0533,6.0533,6.1088,6.1611,6.1611,6.2716,6.3691,6.3691,6.4796,6.5801,6.5801,6.6993,6.8142,6.8606,6.9136,6.9798,7.0759,7.1564,7.2265,7.2732,7.3684,7.4387,0.0,0.0,7.4338,7.4772,7.52,7.5518,7.5709,7.5709,7.5709,7.5709,7.5709,7.5709,7.5709,7.5709,7.5709,7.5709,7.598,7.6115,7.6149,7.6386,7.6521,7.6521,7.6521,7.6521,7.6555,7.7063,7.7299,7.7382,7.8176,7.849,7.8538,7.8884,7.9001,7.8817,7.7473,7.7025,7.7189,7.8126,7.8436,7.8615,7.971,8.0253,8.0609,8.1124,8.1529,8.1967,8.2806,8.305,8.3257,8.4167,8.4352,8.4497,8.5004,8.5112,8.5257,8.5801,8.5909,8.5909,8.5909,8.6126,8.638,8.667,8.6742,8.6634,8.6344,8.6308,8.6416,8.6706,8.6742,8.6742,8.6742,8.6742,8.6742,8.6742,8.6742,8.6742,8.6742,8.6742,8.694,8.7411,8.7488,8.778,8.8324,8.8535,8.863,8.8648,8.8816,8.8983,6.1152,6.167,6.22,6.2233,6.2797,6.336,6.336,6.3923,6.4454,6.452,6.5591,6.6562,6.6595,6.7777,6.8738,6.8738,6.9964,7.0924,7.0982,7.2428,7.3531,0.0,0.0,0.0,0.0,0.0,0.0,7.5686,7.5709,7.5709,7.5709,7.5709,7.5709,7.5709,7.5709,7.5709,7.5743,7.5811,7.5811,7.5811,7.6589,7.6961,7.6961,7.7671,7.8,7.8,7.8,7.8,7.8,7.8083,7.8142,7.8206,7.9187,7.958,7.9694,8.0561,8.0907,8.0778,7.9932,7.9557,7.9624,8.0565,8.0865,8.0865,8.0964,8.1585,8.2227,8.2263,8.2936,8.3791,8.4569,8.475,8.4931,8.5728,8.5909,8.5909,8.5909,8.5909,8.5909,8.5945,8.5982,8.6018,8.6018,8.6597,8.7302,8.8099,8.8208,8.7918,8.7158,8.7049,8.7339,8.8135,8.8208,8.8208,8.8208,8.8208,8.8208,8.8208,8.8208,8.8208,8.8208,8.8208,8.8208,8.83,8.8457,8.8608,8.8644,8.8907,8.9037,8.9037,8.9055,8.9148,6.1769,6.2068,6.2333,6.2863,6.3559,6.4122,6.4122,6.463,6.5293,6.5856,6.6695,6.7489,6.8042,6.8904,6.95,6.95,7.0295,7.1163,7.1912,7.285,0.0,7.4746,0.0,7.5325,7.559,7.5614,0.0,7.5709,7.5709,7.5709,7.5709,7.5709,7.5709,7.5709,7.5709,7.598,7.6589,7.713,7.7401,7.7425,7.7604,7.7705,7.7705,7.7933,7.8,7.8,7.8,7.8,7.8083,7.9334,7.9849,8.0012,8.1513,8.2082,8.2127,8.237,8.2458,8.2488,8.2977,8.1944,8.0586,8.1473,8.1774,8.2003,8.3318,8.3862,8.4159,8.4737,8.5106,8.533,8.5547,8.5583,8.5656,8.5837,8.5909,8.5909,8.5909,8.5909,8.6054,8.6634,8.7194,8.7592,8.7592,8.7773,8.7954,8.8171,8.8208,8.8135,8.7918,8.7882,8.799,8.8171,8.8208,8.8208,8.8208,8.8208,8.8208,8.8208,8.8208,8.8208,8.8208,8.8208,8.8539,8.9294,8.9388,8.9738,9.051,9.0718,9.0848,9.0831,9.1015,9.1437,6.2101,6.2664,6.3261,6.3691,6.4321,6.4929,6.526,6.5624,6.6099,6.6827,6.7556,6.8208,6.8606,6.9301,6.9898,7.0229,7.0988,7.1863,7.2741,7.3694,7.4515,0.0,7.5422,0.0,7.5686,7.5709,7.5709,7.5709,7.5709,7.5709,7.5709,7.5709,7.5845,7.6217,7.6217,7.6589,7.7367,7.7773,7.8,7.8,7.8314,7.8483,7.8483,7.8822,7.8957,7.8957,0.0,7.9195,7.9648,8.0575,8.124,8.1722,8.3098,8.3606,8.3684,8.4121,8.4267,8.4349,8.4872,8.4179,8.3127,8.3621,8.3758,8.3963,8.4908,8.5221,8.533,8.5764,8.5909,8.5909,8.5909,8.5909,8.5909,8.5909,8.5909,8.5982,8.6308,8.638,8.6634,8.7375,8.7882,8.8316,8.8678,8.8715,8.8859,8.9185,8.9258,8.9258,8.9258,8.8932,8.8859,8.9222,8.9258,8.9258,8.9258,8.9258,8.9258,8.9258,8.9258,8.9317,8.9359,8.9378,8.9693,9.0342,9.0802,9.1335,9.1887,9.2461,9.2737,9.2737,9.2849,9.3161,6.23,6.336,6.442,6.452,6.4962,6.5569,6.633,6.6496,6.6728,6.7556,6.8241,6.8728,6.8828,6.9434,7.0186,7.084,7.1854,7.2789,7.3529,7.4573,7.5277,7.5349,7.5542,7.5662,7.5709,7.5709,7.5709,7.5709,7.5811,7.5811,7.5709,7.5811,7.6217,7.7029,7.713,7.7502,7.8145,7.8247,7.8305,7.828,7.8957,7.9261,7.9261,8.0055,8.0376,8.0401,8.0517,8.1014,8.1815,8.1898,8.2473,8.3261,8.4231,8.4595,8.4696,8.5569,8.5945,8.6054,8.6054,8.6126,8.6163,8.5982,8.5909,8.5909,8.5909,8.5909,8.5909,8.5909,8.5909,8.5909,8.5909,8.5909,8.5909,8.6018,8.6054,8.6271,8.6977,8.723,8.752,8.8208,8.8461,8.8751,8.9422,8.9567,8.9785,9.0473,9.0581,9.0654,9.0762,9.0038,8.9857,9.0654,9.0762,9.0799,9.0907,9.0907,9.0927,9.0947,9.0947,9.1047,9.1263,9.1263,9.138,9.1573,9.2475,9.2991,9.301,9.3858,9.4299,9.4299,9.4299,9.4336,6.2929,6.3725,6.4553,6.5094,6.5304,6.5569,6.633,6.6496,6.686,6.8241,6.8606,6.8894,6.95,7.0196,7.0798,7.117,7.2408,7.3511,7.4081,7.467,7.5213,7.559,7.5494,7.547,7.5686,7.5709,0.0,7.5709,7.6318,7.6386,7.5743,7.6318,7.7029,7.7797,7.8416,7.8788,7.8923,7.9498,7.9803,7.9803,7.9938,8.0006,8.0031,8.0956,8.1376,8.139,8.2176,0.0,8.2798,8.3585,8.4023,8.4252,8.5261,8.5627,8.5646,8.5816,8.6308,8.6795,8.6795,8.723,8.7592,8.6308,8.5909,8.5909,8.5909,8.5909,8.5909,8.5909,8.5909,8.5909,8.5909,8.5909,8.6054,8.6742,8.6851,8.7013,8.7809,8.8497,8.9024,8.9169,8.9712,9.0219,9.0364,9.04,9.0436,9.0581,9.0581,9.0835,9.1523,9.0871,9.069,9.1523,9.1595,9.1849,9.2537,9.2573,9.2655,9.28,9.282,9.2956,9.3209,9.3209,9.3307,9.3519,9.3704,9.3872,9.4042,9.4207,9.4299,9.4299,9.4299,9.4666,6.3194,6.4089,6.4995,6.5326,6.5403,6.5701,6.6827,6.7059,6.7489,6.897,6.9268,6.9368,6.9732,7.0394,7.1072,7.1558,7.2823,7.3925,7.4569,7.5075,7.5446,7.5686,7.559,7.5566,7.5709,7.5709,7.5879,7.6284,7.669,7.6724,7.6352,7.7435,7.8213,7.8551,7.9295,7.9667,7.9667,8.0006,8.0209,8.0209,8.0715,8.0927,8.0975,8.1874,8.2336,8.2359,8.2798,8.3261,8.3791,8.4673,8.5304,8.5853,8.675,8.7085,8.7085,8.7085,8.7302,8.7628,8.7628,8.7882,8.8099,8.7339,8.7085,8.7085,8.7085,8.7085,8.7085,8.7085,8.7085,8.7085,8.7085,8.7085,8.7194,8.7556,8.7974,8.8372,8.8734,8.9459,9.0002,9.0002,9.0328,9.0581,9.0581,9.0581,9.0657,9.074,9.1103,9.1542,9.206,9.2153,9.2295,9.2538,9.2574,9.2796,9.3316,9.3352,9.3392,9.3512,9.3512,9.361,9.3861,9.3861,9.3958,9.4168,9.4552,9.4829,9.4923,9.5327,9.5547,9.5547,9.5547,9.5768,6.3294,6.4332,6.5403,6.5403,6.5403,6.5801,6.7258,6.7589,6.8019,6.95,6.9798,6.9798,6.9798,7.0527,7.1346,7.1992,7.3238,7.4357,7.5,7.5422,7.5709,7.5709,7.5709,7.5709,7.5709,7.5709,7.6014,7.6826,7.7198,7.7367,7.7367,7.8483,7.9169,7.9329,7.9904,8.0209,8.0209,8.0401,8.0492,8.0492,8.1437,8.1874,8.1921,8.2865,8.3283,8.334,8.3676,8.4271,8.5018,8.5826,8.6569,8.7302,8.7954,8.8208,8.8208,8.8208,8.8316,8.8461,8.8461,8.857,8.8715,8.8715,8.8497,8.8208,8.8208,8.8208,8.8208,8.8208,8.8208,8.8208,8.8208,8.8208,8.8244,8.8425,8.906,8.9659,8.9699,9.0226,9.0661,9.0701,9.072,9.072,9.072,9.072,9.078,9.0936,9.1647,9.2288,9.2609,9.3394,9.3938,9.3965,9.378,9.3783,9.416,9.418,9.4236,9.4275,9.4295,9.4373,9.4585,9.4585,9.4662,9.4813,9.5437,9.5749,9.5749,9.6392,9.6685,9.6685,9.6685,9.6685,6.3294,6.4332,6.5403,6.5403,6.5403,6.5801,6.7258,6.7589,6.8019,6.95,6.9798,6.9798,6.9798,7.0958,7.1992,7.2326,7.3785,7.5,7.5252,7.5518,7.5709,7.5709,7.5709,7.5709,7.5709,7.5709,7.6014,7.6826,7.8145,7.8923,7.8923,7.9034,7.9431,8.0073,8.0175,8.0209,8.0209,8.1073,8.1461,8.1461,8.2428,8.2865,8.2887,8.3819,8.4272,8.4349,8.5961,0.0,0.0,8.762,8.8021,8.8099,8.8171,8.8208,8.8208,8.8208,8.8642,8.9277,8.9277,8.9785,9.0364,9.0364,8.9366,8.8208,8.8208,8.8208,8.8208,8.8208,8.8208,8.8208,8.8208,8.8208,8.8389,8.9133,8.9893,9.0532,9.073,9.0841,9.0936,9.111,9.1149,9.1149,9.1149,9.1149,9.1168,9.1187,9.1861,9.2646,9.3394,9.4197,9.5078,9.6023,9.5244,9.4979,9.5708,9.5781,9.5881,9.6135,9.6135,9.6233,9.6427,9.6446,9.6446,9.6465,9.6539,9.6575,9.6575,9.6649,9.6685,9.6685,9.6685,9.6685,6.3294,6.4332,6.5403,6.5403,6.5734,6.633,6.7357,6.792,6.8539,6.9599,6.9798,6.9798,6.9798,7.1024,7.2116,7.235,7.3729,7.4895,7.5252,7.5398,7.5518,7.5686,7.5709,7.5709,7.5709,7.6149,7.6927,7.8145,7.9194,7.9769,7.9769,7.9769,7.9904,8.0175,8.0764,8.1014,8.1014,8.1968,8.245,8.2473,8.3391,8.3819,8.3897,8.4852,8.532,8.5356,8.6516,0.0,0.0,8.8389,8.8915,8.8988,8.9459,8.964,8.964,8.964,8.9857,9.011,9.011,9.0328,9.0581,9.0581,9.0183,8.964,8.964,8.964,8.964,8.964,8.964,8.964,8.964,8.9718,8.9889,9.0235,9.066,9.0995,9.1072,9.1091,9.111,9.1187,9.1206,9.1206,9.1206,9.1206,9.1427,9.2071,9.2858,9.37,9.462,9.5445,9.6106,9.6514,9.6082,9.593,9.6377,9.6433,9.6472,9.657,9.657,9.6608,9.6722,9.6685,9.6685,9.6685,9.6685,9.6685,9.6685,9.6685,9.6685,9.6685,9.6685,9.6685,6.3294,6.4332,6.5403,6.5403,6.5933,6.6695,6.7423,6.8175,6.8927,6.9633,6.9798,6.9798,6.9798,7.1063,7.218,7.2374,7.3754,7.4919,7.5252,7.5373,7.5494,7.5686,7.5709,7.5709,7.5709,7.6623,7.7739,7.9025,7.9769,8.0209,8.0209,8.0442,8.0616,8.0616,8.1256,8.1745,8.1991,8.2931,8.3413,8.3413,8.439,8.4852,8.4872,8.5569,8.5909,8.5945,8.694,8.7339,0.0,8.9096,8.9748,8.9821,9.0364,9.0581,9.0581,9.0581,9.0581,9.0581,9.0581,9.0581,9.0581,9.0581,9.0581,9.0601,9.0661,9.0641,9.0581,9.0581,9.0621,9.0681,9.076,9.0878,9.0995,9.0995,9.111,9.1225,9.1282,9.1301,9.132,9.1377,9.1396,9.1396,9.1396,9.1396,9.1726,9.2754,9.3579,9.4442,9.5363,9.6208,9.6685,9.6685,9.655,9.6531,9.6666,9.6685,9.6685,9.6685,9.6685,9.6685,9.6685,9.6685,9.6685,9.6685,9.6685,9.6685,9.6685,9.6685,9.6685,9.6685,9.6685,9.6685,6.3294,6.4332,6.5403,6.5403,6.5933,6.6695,6.7423,6.8175,6.8927,6.9633,6.9798,6.9798,6.9798,7.1232,7.2399,7.2399,7.4012,7.5301,7.5301,7.5542,7.5709,7.5709,7.5709,7.5709,7.5709,7.7063,7.828,7.9058,7.9769,8.0209,8.0209,8.1063,8.158,8.158,8.1603,8.2037,8.2976,8.3939,8.4375,8.4375,8.5398,8.5854,8.5854,8.5909,8.5909,8.5982,8.752,8.8208,0.0,8.9929,9.0581,9.0581,9.0581,9.0581,9.0581,9.0581,9.0581,9.0581,9.0581,9.0581,9.0581,9.0581,9.0581,9.0621,9.0839,9.076,9.0581,9.0581,9.074,9.0936,9.1149,9.1206,9.1206,9.1206,9.1206,9.1263,9.1471,9.1508,9.1564,9.1767,9.1803,9.1803,9.1803,9.1803,9.2097,9.2978,9.3786,9.4593,9.5382,9.6208,9.6685,9.6685,9.6685,9.6722,9.6685,9.6685,9.6685,9.6685,9.6685,9.6685,9.6685,9.6685,9.6685,9.6685,9.6685,9.6685,9.6685,9.6685,9.6685,9.6685,9.6685,9.6685,6.3294,6.4332,6.5403,6.5403,6.5933,6.6695,6.7423,6.8175,6.8927,6.9633,6.9798,6.9869,7.0035,7.1351,7.2519,7.2854,7.4143,7.5204,7.5542,7.5494,7.5494,7.5686,7.5709,7.6115,7.7164,7.7705,7.8517,7.9769,8.0073,8.0209,8.0209,8.1063,8.1603,8.1603,8.2843,8.3649,8.396,8.4912,8.5417,8.5417,8.5759,8.5909,8.5909,8.5909,8.5909,8.5982,8.752,8.8208,8.8316,8.9929,9.0581,9.0581,9.0581,9.0581,9.0581,9.0581,9.0581,9.0581,9.0581,9.0581,9.0581,9.0581,9.0681,9.0819,9.0878,9.0858,9.0819,9.0975,9.1072,9.113,9.1187,9.132,9.1415,9.1415,9.1527,9.1638,9.1694,9.1712,9.173,9.1803,9.1803,9.1803,9.1803,9.1803,9.2097,9.2978,9.3786,9.4593,9.5382,9.6208,9.6685,9.6685,9.6685,9.6685,9.6685,9.6685,9.6685,9.6685,9.6685,9.6685,9.6685,9.6685,9.6685,9.6685,9.6685,9.6685,9.6685,9.6685,9.6685,9.6685,9.6685,9.6685,6.3227,6.4332,6.5403,6.5403,6.5933,6.6628,6.7092,6.7976,6.8828,6.9268,6.9694,6.9988,7.0153,7.1308,7.2447,7.2999,7.4099,7.5046,7.5628,7.5566,7.5518,7.5686,7.5709,7.6318,7.7841,7.8308,7.9128,8.0603,8.1073,8.1256,8.1256,8.2153,8.2641,8.2641,8.3777,8.4574,8.4952,8.5589,8.5909,8.5909,8.5909,8.5909,8.5909,8.5909,8.5909,8.5982,8.7194,8.7918,0.0,8.9603,9.0328,9.0581,9.0581,9.0581,9.0581,9.0581,9.0581,9.0581,9.0581,9.0581,9.0601,9.0681,9.0897,9.113,9.113,9.1072,9.1053,9.1263,9.132,9.1339,9.1415,9.1527,9.162,9.162,9.1712,9.1803,9.1803,9.1803,9.1803,9.1803,9.1803,9.1803,9.1803,9.1803,9.2097,9.2978,9.3786,9.4593,9.5382,9.6208,9.6685,9.6685,9.6685,9.6685,9.6685,9.6685,9.6685,9.6685,9.6685,9.6685,9.6685,9.6685,9.6685,9.6685,9.6685,9.6685,9.6685,9.6685,9.6685,9.6685,9.6685,9.6685,0.0,6.4299,6.5337,6.537,6.59,6.643,6.6496,6.7612,0.0,6.8695,6.9513,7.02,7.02,7.1198,7.2229,7.3003,7.3956,7.4864,7.5608,7.5709,7.5709,7.5709,7.5709,7.6284,7.7773,7.8802,7.9971,8.1397,8.2461,8.2998,8.2998,8.3897,8.4396,8.4396,8.4493,8.4968,8.5909,8.5909,8.5909,8.5909,8.5909,8.5909,8.5909,8.5909,8.5909,0.0,8.6687,8.7411,8.8171,8.9024,8.9821,9.0509,9.0581,9.0581,9.0581,9.0581,9.0581,9.0581,9.0581,9.0637,9.0641,9.0878,9.1206,9.1508,9.1527,9.1396,9.1301,9.149,9.1527,9.1583,9.1767,9.1803,9.1803,9.1803,9.1803,9.1803,9.1803,9.1803,9.1803,9.1803,9.1803,9.1803,9.1803,9.1803,9.206,9.2905,9.3712,9.452,9.5308,9.6135,9.6649,9.6685,9.6685,9.6685,9.6685,9.6685,9.6685,9.6685,9.6685,9.6685,9.6685,9.6685,9.6685,9.6685,9.6685,9.6685,9.6685,9.6685,9.6685,9.6685,9.6685,9.6685,6.3095,0.0,6.4763,6.5271,6.5536,6.5801,0.0,6.7191,6.8019,6.8572,6.9513,7.0246,7.041,7.1281,7.2298,7.3259,7.4073,7.4864,7.5608,7.5709,7.5709,7.5709,7.5709,7.6082,7.7063,7.8529,7.9787,8.0672,8.2147,8.2998,8.2998,8.3897,8.4396,8.4396,8.5147,8.5646,8.5909,8.5909,8.5909,8.5909,8.5909,8.5909,8.5909,8.5909,8.5909,8.5945,8.6687,8.7121,8.7375,8.8807,8.9495,8.9748,9.0364,9.0581,9.0581,9.0581,9.0581,9.0581,9.0581,9.0681,9.0897,9.1263,9.1433,9.1546,9.1694,9.1712,9.1675,9.173,9.173,9.1749,9.1803,9.1803,9.1803,9.1803,9.1803,9.1803,9.1803,9.1803,9.1803,9.1803,9.1803,9.1803,9.1803,9.1803,9.1877,9.206,9.2831,9.3675,9.4483,9.529,9.6025,9.6649,9.6685,9.6685,9.6685,9.6685,9.6685,9.6685,9.6685,9.6685,9.6685,9.6685,9.6685,9.6685,9.6685,9.6685,9.6685,9.6685,9.6685,9.6685,9.6685,9.6685,6.2996,6.3824,6.4553,6.5227,6.5403,6.5502,6.59,6.6918,6.7895,6.8294,6.9503,7.0549,7.0654,7.1219,7.2065,7.3308,7.3815,7.4458,7.554,7.5709,7.5842,7.6277,7.6323,7.6816,7.7972,7.9643,8.0945,8.1673,8.3345,8.4329,8.4329,8.4812,8.5087,8.5087,8.5608,8.5909,8.5909,8.5909,8.5909,8.5909,8.5909,8.5909,8.5909,8.5909,8.5909,8.5909,8.6308,8.6687,8.7085,8.7937,8.8734,8.9442,8.9975,9.0394,9.074,9.0839,9.0878,9.0878,9.0878,9.1014,9.1225,9.1433,9.1583,9.1675,9.1767,9.1803,9.1803,9.1803,9.1803,9.1803,9.1803,9.1803,9.1803,9.1803,9.1803,9.1803,9.1803,9.1803,9.1803,9.1803,9.1803,9.1803,9.1803,9.1803,9.1803,9.1803,9.2537,9.3272,9.3675,9.4446,9.5254,9.6061,9.6135,9.6282,9.6685,9.6685,9.6685,9.6685,9.6685,9.6685,9.6685,9.6685,9.6685,9.6685,9.6685,9.6685,9.6685,9.6685,9.6685,9.6685,9.6685,9.6685,6.2896,6.3758,6.442,6.5194,6.5403,6.5425,6.547,6.6678,6.789,6.8013,6.9478,7.0759,7.086,7.1131,7.1785,7.3263,7.3703,7.4255,7.5506,7.5709,7.6054,7.7008,7.7085,7.7683,7.9184,8.1003,8.2382,8.2984,8.4799,8.5909,8.5909,8.5909,8.5909,8.5909,8.5909,8.5909,8.5909,8.5909,8.5909,8.5909,8.5909,8.5909,8.5909,8.5909,8.5909,8.5909,0.0,0.0,8.6832,8.694,8.7812,8.9102,8.9422,9.0008,9.0774,9.0967,9.1097,9.1206,9.1244,9.1377,9.1508,9.1546,9.1675,9.1803,9.1803,9.1803,9.1803,9.1803,9.1803,9.1803,9.1803,9.1803,9.1803,9.1803,9.1803,9.1803,9.1803,9.1803,9.1803,9.1803,9.1803,9.1803,9.1803,9.1803,9.1803,9.1803,9.2427,9.2941,9.3088,9.3712,9.441,9.5254,9.5327,9.564,9.6465,9.6539,9.6575,9.6685,9.6685,9.6685,9.6685,9.6685,9.6685,9.6685,9.6685,9.6685,9.6685,9.6685,9.6685,9.6685,9.6685,9.6685,6.2896,6.3393,6.3791,6.5094,6.5403,6.547,6.5692,6.6424,6.729,6.8093,6.9166,7.0175,7.0759,7.1131,7.1785,7.3263,7.4525,7.5439,7.5676,7.5709,7.6054,7.7008,7.7085,7.7497,7.8455,8.0704,8.2167,8.2275,8.4511,8.5909,8.5909,8.5909,8.5909,8.5909,8.5909,8.5909,8.5909,8.5909,8.5909,8.5909,8.5909,8.5909,8.5909,8.5909,8.5909,8.5909,0.0,8.5945,8.6126,8.6723,8.7273,8.7698,8.8407,8.9285,9.0128,9.0166,9.0623,9.1225,9.1415,9.149,9.1546,9.1712,9.1785,9.1803,9.1803,9.1803,9.1803,9.1803,9.1803,9.1803,9.1803,9.1803,9.1803,9.1803,9.1803,9.1803,9.1803,9.1803,9.1803,9.1803,9.1803,9.1803,9.1803,9.1803,9.1803,9.1803,9.1913,9.2281,9.3015,9.3198,9.3602,9.441,9.4483,9.4813,9.5621,9.5675,9.5969,9.6649,9.6685,9.6685,9.6685,9.6685,9.6685,9.6685,9.6685,9.6685,9.6685,9.6685,9.6685,9.6685,9.6685,9.6685,6.2399,6.2996,6.358,6.474,6.5326,6.5692,6.5911,6.6633,6.7501,6.835,6.9345,7.0243,7.0963,7.1222,7.1785,7.3263,7.4728,7.5709,7.5709,7.5709,7.623,7.7646,7.7819,7.8336,7.9737,8.1291,8.2399,8.2795,8.4326,8.5438,8.5873,8.5909,8.5909,8.5909,8.5909,8.5909,8.5909,8.5909,8.5909,8.5909,8.5909,8.5909,8.5909,8.5909,8.5909,8.5873,0.0,8.6006,8.6042,8.6499,8.6992,8.7485,8.7997,8.8727,8.9587,9.0118,9.0832,9.1546,9.1638,9.1675,9.1694,9.1785,9.1803,9.1803,9.1803,9.1803,9.1803,9.1803,9.1803,9.1803,9.1803,9.1803,9.1803,9.1803,9.1803,9.1803,9.1803,9.1803,9.1803,9.1803,9.1803,9.1803,9.1803,9.1803,9.1803,9.1803,9.1803,9.195,9.2354,9.2391,9.2721,9.3565,9.3639,9.3969,9.4777,9.5235,9.5841,9.6649,9.6685,9.6685,9.6685,9.6685,9.6685,9.6685,9.6685,9.6685,9.6685,9.6685,9.6685,9.6685,9.6685,9.6685,6.2001,6.2773,6.3589,6.4557,6.529,6.5867,6.6117,6.6781,6.7606,6.858,6.9409,7.0229,7.112,7.1582,7.2259,7.3544,7.483,7.5805,7.6007,7.603,7.6702,7.8503,7.8729,7.9349,8.0948,8.1817,8.2632,8.3428,8.4262,8.504,8.5873,8.5909,8.5909,8.5909,8.5909,8.5909,8.5909,8.5909,8.5909,8.5909,8.5909,8.5909,8.5909,8.5909,8.5911,8.5948,8.608,8.6137,8.6174,8.632,8.6812,8.7414,8.7558,8.8123,8.9037,9.0171,9.0996,9.1546,9.173,9.1803,9.1803,9.1803,9.1803,9.1803,9.1803,9.1803,9.1803,9.1803,9.1803,9.1803,9.1803,9.1803,9.1803,9.1803,9.1803,9.1803,9.1803,9.1803,9.1803,9.1803,9.1803,9.1803,9.1803,9.1803,9.1803,9.1803,9.1803,9.1803,9.1803,9.1803,9.206,9.2721,9.2794,9.3125,9.3932,9.4777,9.5584,9.6392,9.6612,9.6685,9.6685,9.6685,9.6685,9.6685,9.6685,9.6685,9.6685,9.6685,9.6685,9.6685,9.6685,9.6685,6.2001,6.2879,6.3803,6.4717,6.5399,6.5911,6.6378,6.6519,6.7076,6.8743,6.9125,6.962,7.1041,7.2428,7.3578,7.439,7.5202,7.6007,7.6895,7.7008,7.7646,7.9392,7.9679,8.0061,8.1003,8.1817,8.2632,8.3428,8.4262,8.504,8.5873,8.5909,8.5909,8.5909,8.5909,8.5909,8.5909,8.5909,8.5909,8.5909,8.5909,8.5909,8.5909,8.5909,8.5986,8.6081,8.61,8.621,8.6356,8.6374,8.6537,8.6771,8.6788,8.737,8.8445,9.0024,9.0629,9.0812,9.1546,9.1803,9.1803,9.1803,9.1803,9.1803,9.1803,9.1803,9.1803,9.1803,9.1803,9.1803,9.1803,9.1803,9.1803,9.1803,9.1803,9.1803,9.1803,9.1803,9.1803,9.1803,9.1803,9.1803,9.1803,9.1803,9.1803,9.1803,9.1803,9.1803,9.1803,9.1803,9.1803,9.1877,9.1877,9.2244,9.3125,9.3932,9.474,9.5528,9.6282,9.6685,9.6685,9.6685,9.6685,9.6685,9.6685,9.6685,9.6685,9.6685,9.6685,9.6685,9.6685,9.6685,6.1605,6.2619,6.3766,6.4413,6.5408,6.6314,6.6635,6.6698,6.7146,6.8753,6.9113,6.9688,7.165,7.28,7.3713,7.4492,7.5236,7.603,7.6985,7.7085,7.7754,7.9562,7.9757,8.0154,8.1003,8.1382,8.1889,8.2704,8.3501,8.4279,8.5112,8.5619,8.5909,8.5909,8.6005,8.6025,8.6025,8.6136,8.6192,8.6192,8.608,8.6025,8.6025,8.6155,8.6247,8.6283,8.6411,8.6501,8.6609,8.6733,8.6821,8.6891,8.6891,8.7402,8.828,8.8867,8.9748,9.0629,9.0959,9.1363,9.1803,9.1803,9.1803,9.1803,9.1803,9.1803,9.1803,9.1803,9.1803,9.1803,9.1803,9.1803,9.1803,9.1803,9.1803,9.1803,9.1803,9.1803,9.1803,9.1803,9.1803,9.1803,9.1803,9.1803,9.1803,9.1803,9.1803,9.1803,9.1803,9.1803,9.1803,9.1803,9.1803,9.2134,9.3015,9.3382,9.3896,9.4703,9.5511,9.6171,9.6685,9.6685,9.6685,9.6685,9.6685,9.6685,9.6685,9.6685,9.6685,9.6685,9.6685,9.6685,6.1363,6.2587,6.3911,6.4244,6.5459,6.6668,6.7075,6.7151,6.7523,6.8842,6.9654,7.0669,7.2428,7.3341,7.4086,7.483,7.5371,7.6114,7.7317,7.7493,7.8182,7.9985,8.0211,8.0436,8.1038,8.1111,8.1418,8.2233,8.3066,8.3863,8.4642,8.5495,8.5967,8.5967,8.6118,8.6192,8.6192,8.632,8.6411,8.6411,8.632,8.6247,8.6192,8.632,8.6411,8.6483,8.6625,8.675,8.6821,8.6943,8.6978,8.6978,8.6978,8.7362,8.7839,8.8096,8.8904,8.9931,9.0408,9.0959,9.1473,9.173,9.1803,9.1803,9.1803,9.1803,9.1803,9.1803,9.1803,9.1803,9.1803,9.1803,9.1803,9.1803,9.1803,9.1803,9.1803,9.1803,9.1803,9.1803,9.1803,9.1803,9.1803,9.1803,9.1803,9.1803,9.1803,9.1803,9.1803,9.1803,9.1803,9.1803,9.1803,9.2024,9.2648,9.2684,9.3051,9.3859,9.4446,9.5217,9.6282,9.6318,9.6428,9.6685,9.6685,9.6685,9.6685,9.6685,9.6685,9.6685,9.6685,9.6685,6.1404,6.2801,6.4293,6.4293,6.5551,6.6994,6.7726,6.7895,6.8132,6.8944,7.0872,7.2631,7.3341,7.4086,7.4864,7.5574,7.5709,7.6312,7.8168,7.8419,7.9054,8.0858,8.1111,8.1111,8.1111,8.1111,8.1418,8.2233,8.3066,8.3863,8.466,8.5608,8.61,8.61,8.6283,8.6392,8.6392,8.6392,8.6429,8.6429,8.6626,8.659,8.6392,8.6392,8.6501,8.6679,8.6679,8.6821,8.6978,8.6978,8.6978,8.6978,8.6978,8.6978,8.7088,8.7876,8.8206,8.8426,9.0041,9.0592,9.0739,9.1546,9.1803,9.1803,9.1803,9.1803,9.1803,9.1803,9.1803,9.1803,9.1803,9.1803,9.1803,9.1803,9.1803,9.1803,9.1803,9.1803,9.1803,9.1803,9.1803,9.1803,9.1803,9.1803,9.1803,9.1803,9.1803,9.1803,9.1803,9.1803,9.1803,9.1803,9.1803,9.1803,9.1803,9.1803,9.217,9.3015,9.3088,9.3822,9.5418,9.5492,9.5878,9.6685,9.6685,9.6685,9.6685,9.6685,9.6685,9.6685,9.6685,9.6685,6.1736,6.3026,6.4314,6.4491,6.5634,6.6994,6.7726,6.7895,6.8267,6.9586,7.121,7.2631,7.3341,7.4086,7.4864,7.5574,7.5709,7.6312,7.8168,7.8419,7.9054,8.0858,8.1111,8.1111,8.1111,8.1217,8.1414,8.1632,8.301,8.3954,8.4209,8.5537,8.6302,8.6302,8.6501,8.659,8.659,8.675,8.6821,8.6821,8.6873,8.6821,8.6626,8.6768,8.6856,8.6908,8.6908,8.6943,8.6978,8.6978,8.6978,8.6978,8.6978,8.6978,8.7014,8.7288,8.7729,8.828,8.8757,8.9638,9.0629,9.0886,9.1326,9.1803,9.1803,9.1803,9.1803,9.1803,9.1803,9.1803,9.1803,9.1803,9.1803,9.1803,9.1803,9.1803,9.1803,9.1803,9.1803,9.1803,9.1803,9.1803,9.1803,9.1803,9.1803,9.1803,9.1803,9.1803,9.1803,9.1803,9.1803,9.1803,9.1803,9.1803,9.1803,9.1803,9.1913,9.217,9.217,9.2941,9.4593,9.4666,9.5034,9.5841,9.5859,9.6135,9.6685,9.6685,9.6685,9.6685,9.6685,9.6685,6.232,6.3424,6.4538,6.4931,6.5933,6.7083,6.8132,6.8605,6.9248,7.077,7.1988,7.3071,7.3781,7.4525,7.5202,7.5642,7.6007,7.677,7.821,7.8709,7.9467,8.093,8.1111,8.1111,8.1111,8.127,8.1392,8.1392,8.2714,8.364,8.3968,8.5279,8.6208,8.6501,8.6733,8.6821,8.6821,8.6925,8.6978,8.6978,8.6978,8.6925,8.6838,8.6943,8.6978,8.6978,8.6978,8.6978,8.6978,8.6978,8.6978,8.6978,8.6978,8.6978,8.6978,8.6978,8.7325,8.7766,8.8096,8.883,8.9748,9.0408,9.0922,9.1363,9.1693,9.1803,9.1803,9.1803,9.1803,9.1803,9.1803,9.1803,9.1803,9.1803,9.1803,9.1803,9.1803,9.1803,9.1803,9.1803,9.1803,9.1803,9.1803,9.1803,9.1803,9.1803,9.1803,9.1803,9.1803,9.1803,9.1803,9.1803,9.1803,9.1803,9.1803,9.1803,9.1803,9.1803,9.1803,9.2244,9.3272,9.3639,9.4189,9.5034,9.5034,9.5254,9.5731,9.5731,9.5731,9.5731,9.5731,9.5731,6.2953,6.3897,6.4783,6.5514,6.6373,6.7366,6.8774,6.9722,7.0703,7.2124,7.2969,7.3737,7.4458,7.5202,7.5709,7.5709,7.6485,7.7383,7.8294,7.9154,8.0063,8.1021,8.1146,8.111,8.1128,8.1322,8.1445,8.1445,8.2329,8.3218,8.4021,8.4999,8.5891,8.6714,8.6908,8.6978,8.6978,8.6978,8.6978,8.6978,8.6978,8.6978,8.6978,8.6978,8.6978,8.6978,8.6978,8.6978,8.6978,8.6978,8.6978,8.6978,8.6978,8.6978,8.6978,8.6978,8.6978,8.7088,8.7839,8.8133,8.8426,8.9931,9.0464,9.0739,9.1473,9.173,9.1803,9.1803,9.1803,9.1803,9.1803,9.1803,9.1803,9.1803,9.1803,9.1803,9.1803,9.1803,9.1803,9.1803,9.1803,9.1803,9.1803,9.1803,9.1803,9.1803,9.1803,9.1803,9.1803,9.1803,9.1803,9.1803,9.1803,9.1803,9.1803,9.1803,9.1803,9.1803,9.1803,9.1803,9.1803,9.2574,9.3345,9.4153,9.4189,9.4226,9.4299,9.4299,9.4299,9.4299,9.4299,9.4299,6.3114,6.3998,6.4783,6.5514,6.7151,6.8707,6.9011,7.0128,7.1312,7.2225,7.2969,7.3737,7.4458,7.5202,7.5709,7.5709,7.6485,7.7383,7.8294,7.921,8.0175,8.1217,8.1322,8.1392,8.1495,8.1666,8.1785,8.1785,8.2704,8.3611,8.4417,8.5258,8.6099,8.6925,8.696,8.6978,8.6978,8.6978,8.6978,8.6978,8.6978,8.6978,8.6978,8.6978,8.6978,8.6978,8.6978,8.6978,8.6978,8.6978,8.6978,8.6978,8.6978,8.6978,8.6978,8.6978,8.6978,8.7014,8.7198,8.7655,8.8243,8.861,8.9564,9.0629,9.0812,9.1289,9.1803,9.1803,9.1803,9.1803,9.1803,9.1803,9.1803,9.1803,9.1803,9.1803,9.1803,9.1803,9.1803,9.1803,9.1803,9.1803,9.1803,9.1803,9.1803,9.1803,9.1803,9.1803,9.1803,9.1803,9.1803,9.1803,9.1803,9.1803,9.1803,9.1803,9.1803,9.1803,9.1803,9.1803,9.1803,9.1987,9.2464,9.3345,9.3345,9.3675,9.4299,9.4299,9.4299,9.4299,9.4299,9.4299,6.3613,6.4309,6.485,6.5967,6.7658,6.9113,6.9113,7.0263,7.1616,7.2699,7.3229,7.3815,7.4931,7.5805,7.6369,7.6369,7.7493,7.8503,7.8973,7.9834,8.0639,8.1181,8.134,8.1427,8.1495,8.1734,8.1885,8.1885,8.2455,8.3177,8.3985,8.4792,8.56,8.6407,8.6794,8.6978,8.6978,8.6978,8.6978,8.6978,8.6978,8.6978,8.6978,8.6978,8.6978,8.6978,8.6978,8.6978,8.6978,8.6978,8.6978,8.6978,8.6978,8.6978,8.6978,8.6978,8.6978,8.6978,8.6978,8.7288,8.7692,8.8059,8.8757,8.9601,9.0372,9.0886,9.1326,9.1693,9.1803,9.1803,9.1803,9.1803,9.1803,9.1803,9.1803,9.1803,9.1803,9.1803,9.1803,9.1803,9.1803,9.1803,9.1803,9.1803,9.1803,9.1803,9.1803,9.1803,9.1803,9.1803,9.1803,9.1803,9.1803,9.1803,9.1803,9.1803,9.1803,9.1803,9.1803,9.1803,9.1803,9.1803,9.2024,9.2464,9.2464,9.2684,9.3088,9.3088,9.3088,9.3088,9.3088,9.3088,6.4072,6.4783,6.529,6.6487,6.7963,6.9113,6.9113,7.0263,7.1684,7.3003,7.3432,7.395,7.5439,7.6462,7.7085,7.7085,7.8585,7.9724,7.9724,8.0567,8.1199,8.1234,8.1392,8.1497,8.1531,8.1805,8.1935,8.1935,8.2104,8.2553,8.3344,8.4168,8.4976,8.5764,8.6591,8.6978,8.6978,8.6978,8.6978,8.6978,8.6978,8.6978,8.6978,8.6978,8.6978,8.6978,8.6978,8.6978,8.6978,8.6978,8.6978,8.6978,8.6978,8.6978,8.6978,8.6978,8.6978,8.6978,8.6978,8.6978,8.7088,8.7766,8.8096,8.8463,8.9784,9.0372,9.0739,9.14,9.1693,9.1803,9.1803,9.1803,9.1803,9.1803,9.1803,9.1803,9.1803,9.1803,9.1803,9.1803,9.1803,9.1803,9.1803,9.1803,9.1803,9.1803,9.1803,9.1803,9.1803,9.1803,9.1803,9.1803,9.1803,9.1803,9.1803,9.1803,9.1803,9.1803,9.1803,9.1803,9.1803,9.1803,9.1803,9.1803,9.1803,9.1803,9.1803,9.1803,9.1803,9.1803,9.1803,9.1803,6.4113,6.5527,6.6555,6.6757,6.7963,6.9113,6.9113,7.0263,7.1526,7.236,7.3037,7.395,7.5439,7.6462,7.7085,7.7085,7.8729,7.9954,7.9954,8.0858,8.1598,8.1768,8.1802,8.1885,8.2071,8.2137,8.2154,8.2154,8.217,8.2553,8.3344,8.4168,8.4976,8.5764,8.6591,8.6978,8.6978,8.6978,8.6978,8.6978,8.6978,8.6978,8.6978,8.6978,8.6978,8.6978,8.6978,8.6978,8.6978,8.6978,8.6978,8.6978,8.6978,8.6978,8.6978,8.6978,8.6978,8.6978,8.6978,8.6978,8.7014,8.7124,8.7619,8.8243,8.8463,8.9491,9.0629,9.0739,9.1253,9.1803,9.1803,9.1803,9.1803,9.1803,9.1803,9.1803,9.1803,9.1803,9.1803,9.1803,9.1803,9.1803,9.1803,9.1803,9.1803,9.1803,9.1803,9.1803,9.1803,9.1803,9.1803,9.1803,9.1803,9.1803,9.1803,9.1803,9.1803,9.1803,9.1803,9.1803,9.1803,9.1803,9.1803,9.1803,9.1803,9.1803,9.1803,9.1803,9.1803,9.1803,9.1803,9.1803,6.4776,6.6,6.6791,6.6791,6.7624,6.8538,6.9011,6.9925,7.1007,7.2157,7.2969,7.3815,7.4897,7.6608,7.7883,7.7977,7.9487,8.0677,8.0858,8.125,8.1547,8.1717,8.1835,8.1919,8.2002,8.2137,8.2186,8.2186,8.2186,8.2333,8.27,8.3508,8.4315,8.5086,8.5894,8.6554,8.6978,8.6978,8.6978,8.6978,8.6978,8.6978,8.6978,8.6978,8.6978,8.6978,8.6978,8.6978,8.6978,8.6978,8.6978,8.6978,8.6978,8.6978,8.6978,8.6978,8.6978,8.6978,8.6978,8.6978,8.6978,8.6978,8.7234,8.7619,8.8059,8.8683,8.9454,9.0372,9.0849,9.1216,9.1693,9.1803,9.1803,9.1803,9.1803,9.1803,9.1803,9.1803,9.1803,9.1803,9.1803,9.1803,9.1803,9.1803,9.1803,9.1803,9.1803,9.1803,9.1803,9.1803,9.1803,9.1803,9.1803,9.1803,9.1803,9.1803,9.1803,9.1803,9.1803,9.1803,9.1803,9.1803,9.1803,9.1803,9.1803,9.1803,9.1803,9.1803,9.1803,9.1803,9.1803,9.1803,6.5371,6.6237,6.6791,6.6791,6.7354,6.8098,6.891,6.9654,7.0567,7.1853,7.2699,7.3524,7.4536,7.6747,7.8482,7.8673,8.0139,8.134,8.1649,8.1615,8.1652,8.1751,8.1869,8.2005,8.2005,8.2121,8.2186,8.2186,8.2186,8.2186,8.2186,8.2957,8.3675,8.4278,8.527,8.6077,8.6701,8.6904,8.6978,8.6978,8.6978,8.6978,8.6978,8.6978,8.6978,8.6978,8.6978,8.6978,8.6978,8.6978,8.6978,8.6978,8.6978,8.6978,8.6978,8.6978,8.6978,8.6978,8.6978,8.6978,8.6978,8.6978,8.6978,8.7088,8.7729,8.8059,8.8463,8.9638,9.0298,9.0739,9.1326,9.1657,9.1803,9.1803,9.1803,9.1803,9.1803,9.1803,9.1803,9.1803,9.1803,9.1803,9.1803,9.1803,9.1803,9.1803,9.1803,9.1803,9.1803,9.1803,9.1803,9.1803,9.1803,9.1803,9.1803,9.1803,9.1803,9.1803,9.1803,9.1803,9.1803,9.1803,9.1803,9.1803,9.1803,9.1803,9.1803,9.1803,9.1803,9.1803,9.1803,9.1803,6.5683,6.6237,6.6791,6.6791,6.7354,6.8098,6.891,6.9654,7.0398,7.121,7.1954,7.2994,7.4757,7.6887,7.8482,7.8673,8.0311,8.1666,8.1852,8.2055,8.2154,8.217,8.217,8.217,8.217,8.2186,8.2186,8.2186,8.2186,8.2186,8.2186,8.2957,8.3418,8.3454,8.4976,8.582,8.5857,8.6628,8.6978,8.6978,8.6978,8.6978,8.6978,8.6978,8.6978,8.6978,8.6978,8.6978,8.6978,8.6978,8.6978,8.6978,8.6978,8.6978,8.6978,8.6978,8.6978,8.6978,8.6978,8.6978,8.6978,8.6978,8.6978,8.7014,8.7051,8.7619,8.8206,8.8316,8.9417,9.0629,9.0665,9.1216,9.1803,9.1803,9.1803,9.1803,9.1803,9.1803,9.1803,9.1803,9.1803,9.1803,9.1803,9.1803,9.1803,9.1803,9.1803,9.1803,9.1803,9.1803,9.1803,9.1803,9.1803,9.1803,9.1803,9.1803,9.1803,9.1803,9.1803,9.1803,9.1803,9.1803,9.1803,9.1803,9.1803,9.1803,9.1803,9.1803,9.1803,9.1803,9.1803,9.1803,6.6271,6.6609,6.6791,6.6791,6.6994,6.7387,6.8166,6.9348,7.0319,7.0565,7.2005,7.3451,7.4181,7.6265,7.8332,7.9713,8.084,8.1734,8.2055,8.2055,8.2071,8.217,8.2186,8.2186,8.2186,8.2186,8.2186,8.2186,8.2186,8.2186,8.2186,8.248,8.2884,8.3381,8.3968,8.4756,8.5783,8.6591,8.6978,8.6978,8.6978,8.6978,8.6978,8.6978,8.6978,8.6978,8.6978,8.6978,8.6978,8.6978,8.6978,8.6978,8.6978,8.6978,8.6978,8.6978,8.6978,8.6978,8.6978,8.6978,8.6978,8.6978,8.6978,8.6978,8.6978,8.7198,8.7545,8.8059,8.861,8.9307,9.0335,9.0812,9.1179,9.1693,9.1803,9.1803,9.1803,9.1803,9.1803,9.1803,9.1803,9.1803,9.1803,9.1803,9.1803,9.1803,9.1803,9.1803,9.1803,9.1803,9.1803,9.1803,9.1803,9.1803,9.1803,9.1803,9.1803,9.1803,9.1803,9.1803,9.1803,9.1803,9.1803,9.1803,9.1803,9.1803,9.1803,9.1803,9.1803,9.1803,9.1803,9.1803,6.6656,6.6791,6.6791,6.6791,6.6791,6.6994,6.7726,6.8722,6.9727,7.0434,7.1855,7.3219,7.419,7.599,7.7949,7.9882,8.1049,8.1818,8.2154,8.2088,8.2055,8.217,8.2186,8.2186,8.2186,8.2186,8.2186,8.2186,8.2186,8.2186,8.2186,8.2186,8.2553,8.3381,8.3381,8.4168,8.58,8.6334,8.6738,8.6978,8.6978,8.6978,8.6978,8.6978,8.6978,8.6978,8.6978,8.6978,8.6978,8.6978,8.6978,8.6978,8.6978,8.6978,8.6978,8.6978,8.6978,8.6978,8.6978,8.6978,8.6978,8.6978,8.6978,8.6978,8.6978,8.6978,8.7088,8.7655,8.7986,8.8463,8.9528,9.0188,9.0812,9.162,9.1803,9.1803,9.1803,9.1803,9.1803,9.1803,9.1803,9.1803,9.1803,9.1803,9.1803,9.1803,9.1803,9.1803,9.1803,9.1803,9.1803,9.1803,9.1803,9.1803,9.1803,9.1803,9.1803,9.1803,9.1803,9.1803,9.1803,9.1803,9.1803,9.1803,9.1803,9.1803,9.1803,9.1803,9.1803,9.1803,9.1803,9.1803,0.0,0.0,0.0,6.6791,6.6791,6.7015,6.7692,6.7882,6.8566,7.0829,7.1346,7.2221,7.4749,7.608,7.7379,7.9107,8.0788,8.1969,8.217,8.2186,8.2186,8.2186,8.2186,8.2186,8.2186,8.2186,8.2186,8.2186,8.2186,8.2186,8.2186,8.2186,8.2553,8.3344,8.3381,8.4168,8.571,8.5764,8.6151,8.6941,8.6941,8.6978,8.6978,8.6978,8.6978,8.6978,8.6978,8.6978,8.6978,8.6978,8.6978,8.6978,8.6978,8.6978,8.6978,8.6978,8.6978,8.6978,8.6978,8.6978,8.6978,8.6978,8.6978,8.6978,8.6978,8.6978,8.6978,8.6978,8.7582,8.8169,8.8206,8.9417,9.0812,9.162,9.1803,9.1803,9.1803,9.1803,9.1803,9.1803,9.1803,9.1803,9.1803,9.1803,9.1803,9.1803,9.1803,9.1803,9.1803,9.1803,9.1803,9.1803,9.1803,9.1803,9.1803,9.1803,9.1803,9.1803,9.1803,9.1803,9.1803,9.1803,9.1803,9.1803,9.1803,9.1803,9.1803,9.1803,9.1803,9.1803,9.1803,9.1803,6.6791,0.0,0.0,0.0,0.0,0.0,6.7083,6.798,6.883,6.8858,7.0738,7.2645,7.3593,7.544,7.7229,7.8585,8.0194,8.1461,8.2113,8.2186,8.2186,8.2186,8.2186,8.2186,8.2186,8.2186,8.2186,8.2186,8.2186,8.2186,8.2186,8.2186,8.2296,8.2517,8.3104,8.3601,8.4058,8.4646,8.5343,8.6114,8.6114,8.6444,8.6978,8.6978,8.6978,8.6978,8.6978,8.6978,8.6978,8.6978,8.6978,8.6978,8.6978,8.6978,8.6978,8.6978,8.6978,8.6978,8.6978,8.6978,8.6978,8.6978,8.6978,8.6978,8.6978,8.6978,8.6978,8.6978,8.7178,8.7619,8.8776,8.984,9.0812,9.162,9.1803,9.1803,9.1803,9.1803,9.1803,9.1803,9.1803,9.1803,9.1803,9.1803,9.1803,9.1803,9.1803,9.1803,9.1803,9.1803,9.1803,9.1803,9.1803,9.1803,9.1803,9.1803,9.1803,9.1803,9.1803,9.1803,9.1803,9.1803,9.1803,9.1803,9.1803,9.1803,9.1803,9.1803,9.1803,9.1803,9.1803,9.1803,0.0,0.0,0.0,0.0,0.0,0.0,6.6791,6.7536,6.833,6.8779,7.0407,7.2088,7.3359,7.5083,7.6672,7.7744,7.91,8.0388,8.1525,8.1709,8.1819,8.215,8.2186,8.2186,8.2186,8.2186,8.2186,8.2186,8.2186,8.2186,8.2186,8.2186,8.2186,8.2186,8.2663,8.3051,8.3381,8.3858,8.4499,8.5306,8.5306,8.571,8.6518,8.6518,8.6701,8.6978,8.6978,8.6978,8.6978,8.6978,8.6978,8.6978,8.6978,8.6978,8.6978,8.6978,8.6978,8.6978,8.6978,8.6978,8.6978,8.6978,8.6978,8.6978,8.6978,8.6978,8.6978,8.6978,8.6978,8.7271,8.8556,8.951,9.028,9.1106,9.1546,9.1803,9.1803,9.1803,9.1803,9.1803,9.1803,9.1803,9.1803,9.1803,9.1803,9.1803,9.1803,9.1803,9.1803,9.1803,9.1803,9.1803,9.1803,9.1803,9.1803,9.1803,9.1803,9.1803,9.1803,9.1803,9.1803,9.1803,9.1803,9.1803,9.1803,9.1803,9.1803,9.1803,9.1803,9.1803,9.1803,9.1803,0.0,0.0,0.0,0.0,0.0,0.0,6.6791,6.6791,6.7416,6.9612,7.0181,7.1015,7.3397,7.4719,7.571,7.6568,7.7605,7.8882,8.0629,8.0865,8.1158,8.1966,8.2076,8.2113,8.2186,8.2186,8.2186,8.2186,8.2186,8.2186,8.2186,8.2186,8.2186,8.2186,8.2186,8.2553,8.3271,8.3271,8.3675,8.4462,8.4462,8.4903,8.5673,8.5673,8.6114,8.6885,8.6885,8.6904,8.6978,8.6978,8.6978,8.6978,8.6978,8.6978,8.6978,8.6978,8.6978,8.6978,8.6978,8.6978,8.6978,8.6978,8.6978,8.6978,8.6978,8.6978,8.6978,8.6978,8.6978,8.7215,8.7986,8.872,8.9473,9.0391,9.1143,9.1693,9.1767,9.1803,9.1803,9.1803,9.1803,9.1803,9.1803,9.1803,9.1803,9.1803,9.1803,9.1803,9.1803,9.1803,9.1803,9.1803,9.1803,9.1803,9.1803,9.1803,9.1803,9.1803,9.1803,9.1803,9.1803,9.1803,9.1803,9.1803,9.1803,9.1803,9.1803,9.1803,9.1803,9.1803,9.1803,9.1803,0.0,0.0,0.0,0.0,0.0,0.0,6.6791,6.6791,6.7091,6.8163,6.9405,7.0675,7.196,7.3382,7.4492,7.4786,7.5673,7.7215,7.9684,8.0036,8.0314,8.1158,8.1232,8.1489,8.215,8.2186,8.2186,8.2186,8.2186,8.2186,8.2186,8.2186,8.2186,8.2186,8.2186,8.226,8.2443,8.2443,8.2847,8.3638,8.3638,8.4058,8.4829,8.4829,8.527,8.604,8.604,8.6407,8.6978,8.6978,8.6978,8.6978,8.6978,8.6978,8.6978,8.6978,8.6978,8.6978,8.6978,8.6978,8.6978,8.6978,8.6978,8.6978,8.6978,8.6978,8.6978,8.6978,8.6978,8.7215,8.7986,8.8316,8.8793,9.0262,9.0739,9.1033,9.1657,9.1803,9.1803,9.1803,9.1803,9.1803,9.1803,9.1803,9.1803,9.1803,9.1803,9.1803,9.1803,9.1803,9.1803,9.1803,9.1803,9.1803,9.1803,9.1803,9.1803,9.1803,9.1803,9.1803,9.1803,9.1803,9.1803,9.1803,9.1803,9.1803,9.1803,9.1803,9.1803,9.1803,9.1803,9.1803,0.0,0.0,0.0,6.6791,0.0,0.0,0.0,6.7062,6.7557,6.8335,6.9433,7.0681,7.1981,7.2922,7.3631,7.4196,7.5138,7.6282,7.7605,7.8592,7.9522,8.0314,8.0388,8.0718,8.1525,8.1599,8.1782,8.215,8.2186,8.2186,8.2186,8.2186,8.2186,8.2186,8.2186,8.2186,8.2186,8.2186,8.2406,8.281,8.281,8.3214,8.4005,8.4005,8.4462,8.5196,8.5196,8.5673,8.6407,8.6407,8.6628,8.6978,8.6978,8.6978,8.6978,8.6978,8.6978,8.6978,8.6978,8.6978,8.6978,8.6978,8.6978,8.6978,8.6978,8.6978,8.6978,8.6978,8.6978,8.7088,8.7509,8.7912,8.839,8.9197,9.0041,9.0702,9.1106,9.151,9.1803,9.1803,9.1803,9.1803,9.1803,9.1803,9.1803,9.1803,9.1803,9.1803,9.1803,9.1803,9.1803,9.1803,9.1803,9.1803,9.1803,9.1803,9.1803,9.1803,9.1803,9.1803,9.1803,9.1803,9.1803,9.1803,9.1803,9.1803,9.1803,9.1803,9.1803,9.1803,9.1803,9.1803,0.0,0.0,0.0,0.0,0.0,6.6791,0.0,0.0,0.0,6.8944,6.9688,7.0673,7.2247,7.2498,7.2721,7.3401,7.4595,7.5439,7.5259,7.6971,7.86,7.947,7.9559,7.9874,8.0681,8.0901,8.1342,8.215,8.2186,8.2186,8.2186,8.2186,8.2186,8.2186,8.2186,8.2186,8.2186,8.2186,8.2186,8.2186,8.2186,8.2553,8.3161,8.3161,8.3601,8.4389,8.4389,8.4829,8.5563,8.5563,8.604,8.6775,8.6958,8.6978,8.6978,8.6978,8.6978,8.6978,8.6978,8.6978,8.6978,8.6978,8.6978,8.6978,8.6978,8.6978,8.6978,8.6978,8.6978,8.6978,8.6978,8.7472,8.8023,8.8169,8.9197,9.0225,9.0519,9.1106,9.162,9.1767,9.1803,9.1803,9.1803,9.1803,9.1803,9.1803,9.1803,9.1803,9.1803,9.1803,9.1803,9.1803,9.1803,9.1803,9.1803,9.1803,9.1803,9.1803,9.1803,9.1803,9.1803,9.1803,9.1803,9.1803,9.1803,9.1803,9.1803,9.1803,9.1803,9.1803,9.1803,9.1803,0.0,0.0,0.0,0.0,6.6791,0.0,0.0,0.0,6.8132,6.8944,0.0,7.0443,0.0,0.0,0.0,7.076,7.2707,7.4057,7.3315,7.5413,7.7452,7.8594,7.8736,7.9029,7.9853,8.0571,8.1342,8.215,8.2186,8.2186,8.2186,8.2186,8.2186,8.2186,8.2186,8.2186,8.2186,8.2186,8.2186,8.2186,8.2186,8.226,8.2333,8.2333,8.2774,8.3528,8.3528,8.3968,8.4756,8.4756,8.5196,8.6004,8.6738,8.6978,8.6978,8.6978,8.6978,8.6978,8.6978,8.6978,8.6978,8.6978,8.6978,8.6978,8.6978,8.6978,8.6978,8.6978,8.6978,8.6978,8.6978,8.7051,8.7308,8.8023,8.8353,8.8867,9.0298,9.0665,9.0959,9.1657,9.1803,9.1803,9.1803,9.1803,9.1803,9.1803,9.1803,9.1803,9.1803,9.1803,9.1803,9.1803,9.1803,9.1803,9.1803,9.1803,9.1803,9.1803,9.1803,9.1803,9.1803,9.1803,9.1803,9.1803,9.1803,9.1803,9.1803,9.1803,9.1803,9.1803,9.1803,9.1803,0.0,0.0,0.0,0.0,0.0,0.0,0.0,0.0,6.9316,0.0,0.0,0.0,0.0,0.0,0.0,0.0,7.2242,0.0,7.2893,7.4724,7.6465,7.742,7.7557,7.7934,7.8835,8.0177,8.1158,8.1489,8.1929,8.2186,8.2186,8.2186,8.2186,8.2186,8.2186,8.2186,8.2186,8.2186,8.2186,8.2186,8.2186,8.2186,8.2186,8.2186,8.237,8.27,8.27,8.3177,8.3895,8.3895,8.4389,8.5196,8.6004,8.6591,8.6978,8.6978,8.6978,8.6978,8.6978,8.6978,8.6978,8.6978,8.6978,8.6978,8.6978,8.6978,8.6978,8.6978,8.6978,8.6978,8.6978,8.6978,8.7088,8.7435,8.7876,8.839,8.905,8.9546,8.9987,9.0317,9.0776,9.1106,9.1106,9.1473,9.1803,9.1803,9.1803,9.1803,9.1803,9.1803,9.1803,9.1803,9.1803,9.1803,9.1803,9.1803,9.1803,9.1803,9.1803,9.1803,9.1803,9.1803,9.1803,9.1803,9.1803,9.1803,9.1803,9.1803,9.1803,9.1803,9.1803,9.1803,6.7387,0.0,0.0,0.0,0.0,0.0,0.0,0.0,0.0,0.0,0.0,0.0,0.0,0.0,0.0,0.0,0.0,7.2707,0.0,7.435,0.0,0.0,0.0,0.0,7.8147,7.9409,8.0385,8.0874,8.1461,8.1917,8.2186,8.2186,8.2186,8.2186,8.2186,8.2186,8.2186,8.2186,8.2186,8.2186,8.2186,8.2186,8.2186,8.2186,8.2186,8.2186,8.2186,8.2517,8.3067,8.3067,8.3544,8.4352,8.4903,8.5637,8.6407,8.6831,8.6978,8.6978,8.6978,8.6978,8.6978,8.6978,8.6978,8.6978,8.6978,8.6978,8.6978,8.6978,8.6978,8.6978,8.6978,8.6978,8.6978,8.6978,8.7472,8.7949,8.8133,8.8683,8.9143,8.9363,8.9877,9.028,9.028,9.1106,9.1803,9.1803,9.1803,9.1803,9.1803,9.1803,9.1803,9.1803,9.1803,9.1803,9.1803,9.1803,9.1803,9.1803,9.1803,9.1803,9.1803,9.1803,9.1803,9.1803,9.1803,9.1803,9.1803,9.1803,9.1803,9.1803,9.1803,9.1803,0.0,0.0,0.0,6.9045,0.0,0.0,0.0,0.0,7.0217,0.0,0.0,0.0,0.0,0.0,0.0,0.0,0.0,0.0,0.0,0.0,0.0,0.0,0.0,0.0,0.0,7.8074,7.8796,8.0585,8.0747,8.1179,8.215,8.2186,8.2186,8.2186,8.2186,8.2186,8.2186,8.2186,8.2186,8.2186,8.2186,8.2186,8.2186,8.2186,8.2186,8.2186,8.2186,8.2223,8.2223,8.2223,8.27,8.3454,8.3454,8.3968,8.4866,8.6444,8.6978,8.6978,8.6978,8.6978,8.6978,8.6978,8.6978,8.6978,8.6978,8.6978,8.6978,8.6978,8.6978,8.6978,8.6978,8.6978,8.6978,8.6978,8.7014,8.7252,8.8023,8.8206,8.8463,8.9253,8.9436,8.9436,8.9436,9.0739,9.1803,9.1803,9.1803,9.1803,9.1803,9.1803,9.1803,9.1803,9.1803,9.1803,9.1803,9.1803,9.1803,9.1803,9.1803,9.1803,9.1803,9.1803,9.1803,9.1803,9.1803,9.1803,9.1803,9.1803,9.1803,9.1803,9.1803,9.1803,0.0,0.0,6.9113,6.9113,0.0,0.0,0.0,0.0,0.0,0.0,0.0,0.0,0.0,0.0,0.0,0.0,0.0,0.0,0.0,0.0,0.0,0.0,0.0,0.0,0.0,0.0,7.8503,7.9265,8.0307,8.1057,8.1379,8.1893,8.2186,8.2186,8.2186,8.2186,8.2186,8.2186,8.2186,8.2186,8.2186,8.2186,8.2186,8.2186,8.2186,8.2186,8.2186,8.2186,8.2186,8.2186,8.237,8.2663,8.3197,8.3564,8.4005,8.56,8.6224,8.6261,8.6811,8.6978,8.6978,8.6978,8.6978,8.6978,8.6978,8.6978,8.6978,8.6978,8.6978,8.6978,8.6978,8.6978,8.6978,8.6978,8.6978,8.7051,8.7344,8.7435,8.7509,8.7748,8.8225,8.861,8.861,8.9491,9.0391,9.0922,9.1473,9.1803,9.1803,9.1803,9.1803,9.1803,9.1803,9.1803,9.1803,9.1803,9.1803,9.1803,9.1803,9.1803,9.1803,9.1803,9.1803,9.1803,9.1803,9.1803,9.1803,9.1803,9.1803,9.1803,9.1803,9.1803,6.9823,6.9891,0.0,6.9891,7.0229,0.0,7.0601,0.0,0.0,0.0,0.0,0.0,0.0,0.0,0.0,0.0,0.0,0.0,0.0,7.3397,0.0,0.0,0.0,0.0,0.0,7.7312,7.7911,7.8443,7.9448,8.0324,8.0959,8.1489,8.1893,8.2186,8.2186,8.2186,8.2186,8.2186,8.2186,8.2186,8.2186,8.2186,8.2186,8.2186,8.2186,8.2186,8.2186,8.2186,8.2186,8.2186,8.2186,8.226,8.2774,8.2994,8.3177,8.4792,8.5527,8.593,8.6738,8.6978,8.6978,8.6978,8.6978,8.6978,8.6978,8.6978,8.7051,8.7344,8.7215,8.7051,8.7344,8.7198,8.6978,8.6978,8.6978,8.6978,8.6978,8.6978,8.6978,8.6978,8.7435,8.7766,8.7766,8.8445,8.9253,9.006,9.0849,9.1363,9.1363,9.162,9.1803,9.1803,9.1803,9.1803,9.1803,9.1803,9.1803,9.1803,9.1803,9.1803,9.1803,9.1803,9.206,9.2684,9.2097,9.2097,9.2684,9.2097,9.1803,9.1803,9.1803,9.1803]}]]